     2              OBSERVATION DATA    GPS                 RINEX VERSION / TYPE
ASHTORIN 07 - MAY - 99 10:17                                PGM / RUN BY / DATE
                                                            COMMENT
Original Marker Name: SIO4                                  COMMENT
Campaign Name: rose canyon fault                            COMMENT
4-Character Station Name: SIO4                              COMMENT
6-Character Antenna Code: DMRCHT                            COMMENT
Vertical Measurement Point: BPA                             COMMENT
Vertical Offset to Rinex Ref. Point: 0.0000                 COMMENT
Radial Measurement Point: RRP                               COMMENT
Radial Offset to Rinex Ref. Point: 0.0000                   COMMENT
Antenna Height from Field Measurement: 0.0000 m             COMMENT
Additional Antenna Identification Info.:                    COMMENT
Turborogue and Ashtech Choke Ring                           COMMENT
Original XYZ: 0.0000 0.0000 0.0000                          COMMENT
New XYZ position is based on association with SCEC monument COMMENT
E1C8P4W3+0501. Position of that monument is believed to be  COMMENT
valid to within 1 m horizontally; vertical accuracy         COMMENT
should be no worse than 3-times this value.                 COMMENT
                                                            COMMENT
Revised Rinex header created by UCSD GPS archive for        COMMENT
GSAC on 04-Sep-1999 (1999:247) 20:18:38 GMT                 COMMENT
For assistance contact dagnew@ucsd.edu or hjohnson@ucsd.edu COMMENT
                                                            COMMENT
SIO LIBRARY WALL - SOUTH                                    MARKER NAME
                                                            MARKER NUMBER
SJB SCRIPPS INSTITUTION OF OCEANOGRAPHY                     OBSERVER / AGENCY
386 ASHTECH Z12-XII3 1E951D0                                REC # / TYPE / VERS
409 DORNE-MARGOL. TYPE T                                    ANT # / TYPE
 -2455542.0000 -4767225.0000  3441626.0000                  APPROX POSITION XYZ
        0.0000        0.0000        0.0000                  ANTENNA: DELTA H/E/N
     1     1     0                                          WAVELENGTH FACT L1/2
     7    L1    L2    C1    P1    P2    D1    D2            # / TYPES OF OBSERV
    30                                                      INTERVAL
  1999     5     6     0     0   30.000000                  TIME OF FIRST OBS
  1999     5     6    23    59   30.000000                  TIME OF LAST OBS
                                                            END OF HEADER
 99  5  6  0  0 30.0000000  0  7 22 17  6 23 21 30 26                0.000000000
  -5280074.946 9  -3583530.08146  23744274.764    23744273.6314   23744286.4354
        -0.000          -0.000
 -19515739.042 9 -14375161.41649  21141096.949    21141096.2234   21141105.2884
        -0.000          -0.000
 -16665215.925 9 -12530008.95148  21381335.800    21381335.5494   21381344.7724
        -0.000          -0.000
 -19899635.822 9 -15031913.15749  21082291.305    21082290.7144   21082299.7604
        -0.000          -0.000
 -10702314.829 9  -6692476.57546  23546753.983    23546753.0624   23546766.1714
        -0.000          -0.000
  15079720.46616  11978199.00153         0.000           0.0005          0.0005
        -0.000          -0.000
    521879.461 9    412358.19947  22175976.481    22175976.4414   22175985.4834
        -0.000          -0.000
 99  5  6  0  1  0.0000000  0  6 22 17  6 23 21 26                   0.001003849
  -5242143.851 9  -3553973.45046  23751492.697    23751491.6554   23751504.2424
        -0.000          -0.000
 -19516953.349 9 -14376107.60448  21140865.906    21140865.1644   21140874.1364
        -0.000          -0.000
 -16588526.834 9 -12470251.27848  21395929.331    21395929.0474   21395938.3664
        -0.000          -0.000
 -19906966.600 9 -15037625.42049  21080896.345    21080895.7694   21080904.7174
        -0.000          -0.000
 -10764414.539 9  -6740865.75146  23534936.570    23534935.6234   23534948.5074
        -0.000          -0.000
    559549.199 9    441711.23547  22183144.543    22183144.5204   22183153.9534
        -0.000          -0.000
 99  5  6  0  1 30.0010000  0  6 22 17  6 23 21 26                   0.001010931
  -5203779.176 9  -3524078.95946  23758792.851    23758792.0604   23758804.6194
        -0.000          -0.000
 -19518023.052 9 -14376941.11648  21140662.193    21140661.4454   21140670.4284
        -0.000          -0.000
 -16511380.420 9 -12410137.24948  21410609.772    21410609.5434   21410618.7974
        -0.000          -0.000
 -19913903.796 9 -15043030.99249  21079576.269    21079575.6544   21079584.5024
        -0.000          -0.000
 -10826269.784 9  -6789064.45346  23523165.497    23523164.8124   23523177.4634
        -0.000          -0.000
    597794.877 9    471513.09347  22190422.169    22190422.2014   22190431.9764
        -0.000          -0.000
 99  5  6  0  2  0.0010000  0  6 22 17  6 23 21 26                   0.001018008
  -5164985.794 9  -3493850.43846  23766175.325    23766174.3404   23766186.8814
        -0.000          -0.000
 -19518943.898 9 -14377658.64948  21140486.810    21140486.1064   21140495.2224
        -0.000          -0.000
 -16433761.921 9 -12349655.35448  21425380.184    21425379.8884   21425389.1504
        -0.000          -0.000
 -19920440.565 9 -15048124.55049  21078332.299    21078331.7054   21078340.5394
        -0.000          -0.000
 -10887887.456 9  -6837078.04346  23511439.794    23511439.1704   23511451.7694
        -0.000          -0.000
    636623.412 9    501769.10547  22197811.013    22197810.9954   22197820.8724
        -0.000          -0.000
 99  5  6  0  2 30.0010000  0  6 22 17  6 23 21 26                   0.001025097
  -5125751.030 9  -3463277.95346  23773641.322    23773640.4824   23773653.2414
        -0.000          -0.000
 -19519696.808 9 -14378245.32649  21140343.557    21140342.8654   21140351.9914
        -0.000          -0.000
 -16355653.974 9 -12288792.07648  21440243.534    21440243.2884   21440252.6654
        -0.000          -0.000
 -19926577.356 9 -15052906.44449  21077164.408    21077163.8334   21077172.7714
        -0.000          -0.000
 -10949264.399 9  -6884904.03946  23499759.684    23499759.1574   23499771.8384
        -0.000          -0.000
    676063.903 9    532501.94547  22205316.373    22205316.3394   22205326.1434
        -0.000          -0.000
 99  5  6  0  3  0.0010000  0  7  3 22 17  6 23 21 26                0.001032181
   -220905.37818   -150167.29652         0.000           0.0005          0.0005
        -0.000          -0.000
  -5086105.752 9  -3432385.58246  23781185.688    23781184.9284   23781197.6934
        -0.000          -0.000
 -19520294.337 9 -14378710.91848  21140229.870    21140229.1244   21140238.2284
        -0.000          -0.000
 -16277085.067 9 -12227569.59648  21455194.754    21455194.5084   21455203.8834
        -0.000          -0.000
 -19932324.177 9 -15057384.45549  21076070.847    21076070.3004   21076079.1894
        -0.000          -0.000
 -11010416.102 9  -6932554.52846  23488122.393    23488121.9324   23488134.8304
        -0.000          -0.000
    716101.034 9    563699.71147  22212935.331    22212935.2254   22212944.9504
        -0.000          -0.000
 99  5  6  0  3 30.0010000  0  7  3 22 17  6 23 21 26                0.001039255
   -313613.05718      -697.94952         0.000           0.0005          0.0005
        -0.000          -0.000
  -5046068.026 9  -3401187.43346  23788805.027    23788804.0834   23788816.6104
        -0.000          -0.000
 -19520723.029 9 -14379044.95448  21140148.117    21140147.4114   21140156.5774
        -0.000          -0.000
 -16198069.431 9 -12165999.02248  21470231.052    21470230.7684   21470240.0964
        -0.000          -0.000
 -19937684.935 9 -15061561.63049  21075050.872    21075050.2464   21075059.0484
        -0.000          -0.000
 -11071349.102 9  -6980034.60646  23476526.802    23476526.4094   23476539.5504
        -0.000          -0.000
    756746.694 9    595371.66747  22220669.979    22220669.9304   22220679.5964
        -0.000          -0.000
 99  5  6  0  4  0.0010000  0  7  3 22 17  6 23 21 26                0.001046321
   -406240.952 8    -72875.40842         0.000           0.0004          0.0004
        -0.000          -0.000
  -5005628.359 9  -3369676.04946  23796500.197    23796499.3964   23796511.9434
        -0.000          -0.000
 -19520964.501 9 -14379233.10949  21140102.132    21140101.4924   21140110.6194
        -0.000          -0.000
 -16118608.724 9 -12104081.66748  21485351.951    21485351.7204   21485361.0074
        -0.000          -0.000
 -19942645.288 9 -15065426.80549  21074106.883    21074106.2304   21074115.0374
        -0.000          -0.000
 -11132047.195 9  -7027331.63346  23464976.107    23464975.8754   23464989.1784
        -0.000          -0.000
    798006.265 9    627521.98047  22228521.537    22228521.4254   22228531.0064
        -0.000          -0.000
 99  5  6  0  4 30.0010000  0  7  3 22 17  6 23 21 26                0.001053389
   -498761.567 8   -144969.43652         0.000           0.0004          0.0005
        -0.000          -0.000
  -4964774.531 9  -3337841.95646  23804274.152    23804273.4144   23804286.3914
        -0.000          -0.000
 -19521015.782 9 -14379273.05549  21140092.547    21140091.8794   21140100.8644
        -0.000          -0.000
 -16038717.661 9 -12041828.95948  21500554.805    21500554.5464   21500563.8244
        -0.000          -0.000
 -19947205.369 9 -15068980.08049  21073239.039    21073238.4414   21073247.2974
        -0.000          -0.000
 -11192499.543 9  -7074437.16046  23453472.605    23453472.2194   23453485.4834
        -0.000          -0.000
    839882.047 9    660152.48847  22236490.072    22236490.0184   22236499.5904
        -0.000          -0.000
 99  5  6  0  5  0.0010000  0  7  3 22 17  6 23 21 26                0.001060490
   -591187.14518   -216989.15154         0.000           0.0005   24981359.0365
        -0.000          -0.000
  -4923502.851 9  -3305682.30546  23812128.104    23812127.1374   23812140.1554
        -0.000          -0.000
 -19520876.013 9 -14379164.13649  21140119.155    21140118.4814   21140127.4784
        -0.000          -0.000
 -15958413.254 9 -11979254.16048  21515836.282    21515836.0564   21515845.3674
        -0.000          -0.000
 -19951367.225 9 -15072223.04549  21072447.095    21072446.4394   21072455.3584
        -0.000          -0.000
 -11252713.132 9  -7121356.63946  23442014.623    23442014.0514   23442027.0404
        -0.000          -0.000
    882354.963 9    693248.27947  22244572.346    22244572.2844   22244581.7744
        -0.000          -0.000
 99  5  6  0  5 30.0010000  0  7  3 22 17  6 23 21 26                0.001067558
   -683528.67418   -288943.46445  24963775.001    24963775.9285   24963787.4184
        -0.000          -0.000
  -4881808.589 9  -3273193.35146  23820061.832    23820061.0954   23820074.1894
        -0.000          -0.000
 -19520532.714 9 -14378896.63049  21140184.547    21140183.8454   21140192.9044
        -0.000          -0.000
 -15877694.893 9 -11916356.80348  21531196.632    21531196.3734   21531205.6924
        -0.000          -0.000
 -19955153.801 9 -15075173.59149  21071726.427    21071725.7484   21071734.7614
        -0.000          -0.000
 -11312685.746 9  -7168088.36647  23430602.193    23430601.5924   23430614.4864
        -0.000          -0.000
    925415.731 9    726802.10847  22252766.526    22252766.5304   22252775.9424
        -0.000          -0.000
 99  5  6  0  6  0.0010000  0  7  3 22 17  6 23 21 26                0.001074621
   -775763.032 8   -360814.29745  24946224.186    24946221.5504   24946237.2274
        -0.000          -0.000
  -4839677.929 9  -3240364.35446  23828078.640    23828078.1854   23828091.5584
        -0.000          -0.000
 -19519984.236 9 -14378469.24449  21140288.966    21140288.2234   21140297.2664
        -0.000          -0.000
 -15796561.018 9 -11853135.66248  21546635.819    21546635.6054   21546645.0284
        -0.000          -0.000
 -19958565.100 9 -15077831.71249  21071077.208    21071076.5574   21071085.5424
        -0.000          -0.000
 -11372404.103 9  -7214621.99847  23419237.907    23419237.4504   23419250.3644
        -0.000          -0.000
    969056.970 9    760808.24447  22261071.297    22261071.2614   22261080.5384
        -0.000          -0.000
 99  5  6  0  6 30.0010000  0  7  3 22 17  6 23 21 26                0.001081685
   -867882.022 8   -432595.24045  24928694.706    24928694.4244   24928707.0884
        -0.000          -0.000
  -4797115.929 9  -3207199.22346  23836177.993    23836177.4984   23836191.1114
        -0.000          -0.000
 -19519239.725 9 -14377889.09549  21140430.661    21140429.9254   21140438.8974
        -0.000          -0.000
 -15715008.951 9 -11789588.65948  21562154.587    21562154.4014   21562163.9474
        -0.000          -0.000
 -19961606.529 9 -15080201.62949  21070498.414    21070497.7884   21070506.7354
        -0.000          -0.000
 -11431871.814 9  -7260960.32846  23407921.451    23407921.0244   23407933.8224
        -0.000          -0.000
   1013276.962 9    795265.37347  22269485.863    22269485.8464   22269495.3834
        -0.000          -0.000
 99  5  6  0  7  0.0010000  0  7  3 22 17  6 23 21 26                0.001088744
   -959896.681 8   -504294.89645  24911184.115    24911183.5174   24911197.2574
        -0.000          -0.000
  -4754128.405 9  -3173702.53346  23844358.382    23844357.9244   23844371.6724
        -0.000          -0.000
 -19518304.600 9 -14377160.43649  21140608.562    21140607.8924   21140616.9194
        -0.000          -0.000
 -15633025.959 9 -11725705.87948  21577755.532    21577755.3414   21577764.8224
        -0.000          -0.000
 -19964272.201 9 -15082278.74749  21069991.140    21069990.4994   21069999.5234
        -0.000          -0.000
 -11491091.264 9  -7307105.19846  23396652.044    23396651.7464   23396664.4664
        -0.000          -0.000
   1058069.246 9    830168.44847  22278009.459    22278009.4654   22278019.0524
        -0.000          -0.000
 99  5  6  0  7 30.0010000  0  7  3 22 17  6 23 21 26                0.001095815
  -1051799.798 8   -575907.60345  24893695.180    24893694.8054   24893708.6954
        -0.000          -0.000
  -4710730.702 9  -3139886.21746  23852616.850    23852616.3974   23852630.0054
        -0.000          -0.000
 -19517184.130 9 -14376287.33949  21140821.852    21140821.0844   21140830.2434
        -0.000          -0.000
 -15550602.317 9 -11661479.73748  21593440.229    21593440.0234   21593449.5294
        -0.000          -0.000
 -19966558.310 9 -15084060.09849  21069556.016    21069555.4104   21069564.4804
        -0.000          -0.000
 -11550050.489 9  -7353047.28846  23385432.225    23385432.0134   23385444.6214
        -0.000          -0.000
   1103449.317 9    865529.55047  22286645.153    22286645.0964   22286654.7444
        -0.000          -0.000
 99  5  6  0  8  0.0010000  0  7  3 22 17  6 23 21 26                0.001102895
  -1143594.785 8   -647436.03545  24876227.084    24876226.3674   24876240.4044
        -0.000          -0.000
  -4666937.021 9  -3105761.34846  23860950.636    23860950.0884   23860963.4124
        -0.000          -0.000
 -19515910.980 9 -14375295.27648  21141063.878    21141063.1774   21141072.4494
        -0.000          -0.000
 -15467744.792 9 -11596915.50348  21609207.349    21609207.1874   21609216.8684
        -0.000          -0.000
 -19968464.771 9 -15085545.61349  21069193.217    21069192.6224   21069201.6664
        -0.000          -0.000
 -11608764.156 9  -7398798.02646  23374259.328    23374259.0374   23374271.5414
        -0.000          -0.000
   1149410.297 9    901343.28647  22295391.550    22295391.4314   22295400.8524
        -0.000          -0.000
 99  5  6  0  8 30.0010000  0  7  3 22 17  6 23 21 26                0.001109975
  -1235292.245 8   -718888.44645  24858777.829    24858776.8974   24858790.8864
        -0.000          -0.000
  -4622753.308 9  -3071332.55346  23869358.442    23869357.9474   23869370.9904
        -0.000          -0.000
 -19514484.832 9 -14374183.98648  21141335.212    21141334.5794   21141343.7414
        -0.000          -0.000
 -15384453.062 9 -11532012.92448  21625057.332    21625057.1444   21625066.9754
        -0.000          -0.000
 -19969981.212 9 -15086727.22149  21068904.492    21068903.9224   21068913.0924
        -0.000          -0.000
 -11667239.731 9  -7444363.25446  23363131.568    23363131.1814   23363143.8444
        -0.000          -0.000
   1195959.324 9    937615.26847  22304249.531    22304249.3904   22304258.8974
        -0.000          -0.000
 99  5  6  0  9  0.0010000  0  7  3 22 17  6 23 21 26                0.001117049
  -1326896.898 8   -790268.52945  24841346.341    24841344.8554   24841359.0534
        -0.000          -0.000
  -4578167.973 9  -3036590.80746  23877843.091    23877842.4534   23877855.1224
        -0.000          -0.000
 -19512893.347 9 -14372943.86449  21141638.108    21141637.4294   21141646.5514
        -0.000          -0.000
 -15300730.542 9 -11466774.65448  21640989.221    21640989.0454   21640998.9434
        -0.000          -0.000
 -19971088.590 9 -15087590.08349  21068693.590    21068693.1074   21068702.3324
        -0.000          -0.000
 -11725464.815 9  -7489733.31847  23352051.366    23352051.0424   23352063.7144
        -0.000          -0.000
   1243101.803 9    974349.66947  22313220.302    22313220.2194   22313229.8084
        -0.000          -0.000
 99  5  6  0  9 30.0010000  0  7  3 22 17  6 23 21 26                0.001124117
  -1418393.005 8   -861564.06445  24823934.911    24823933.7184   24823947.7684
        -0.000          -0.000
  -4533166.309 9  -3001524.66546  23886406.881    23886406.2254   23886418.7094
        -0.000          -0.000
 -19511119.426 9 -14371561.58048  21141975.659    21141974.9364   21141984.1064
        -0.000          -0.000
 -15216578.316 9 -11401201.55248  21657002.960    21657002.7994   21657012.6174
        -0.000          -0.000
 -19971780.027 9 -15088128.82749  21068561.988    21068561.4794   21068570.6584
        -0.000          -0.000
 -11783426.248 9  -7534897.93547  23341021.804    23341021.3674   23341033.8114
        -0.000          -0.000
   1290840.117 9   1011548.34547  22322304.491    22322304.4304   22322313.9954
        -0.000          -0.000
 99  5  6  0 10  0.0010000  0  7  3 22 17  6 23 21 26                0.001131158
  -1509801.994 8   -932791.68445  24806540.270    24806539.0114   24806553.1974
        -0.000          -0.000
  -4487761.209 9  -2966144.13346  23895047.368    23895046.5044   23895059.2054
        -0.000          -0.000
 -19509187.282 9 -14370056.01248  21142343.212    21142342.5314   21142351.8204
        -0.000          -0.000
 -15132028.675 9 -11335318.79248  21673092.284    21673092.0514   21673101.8744
        -0.000          -0.000
 -19972088.036 9 -15088368.80249  21068503.345    21068502.8494   21068512.0004
        -0.000          -0.000
 -11841166.956 9  -7579890.55247  23330034.134    23330033.5944   23330045.8774
        -0.000          -0.000
   1339132.161 9   1049178.51147  22331494.196    22331494.1184   22331503.6684
        -0.000          -0.000
 99  5  6  0 10 30.0010000  0  7  3 22 17  6 23 21 26                0.001138178
  -1601108.969 8  -1003939.79945  24789165.052    24789163.7994   24789178.1024
        -0.000          -0.000
  -4441938.586 9  -2930438.26846  23903767.121    23903766.2074   23903779.1954
        -0.000          -0.000
 -19507057.858 9 -14368396.72149  21142748.454    21142747.8004   21142757.0104
        -0.000          -0.000
 -15047066.136 9 -11269114.28148  21689260.076    21689259.9374   21689269.7714
        -0.000          -0.000
 -19972000.288 9 -15088300.40149  21068520.090    21068519.5474   21068528.6674
        -0.000          -0.000
 -11898674.012 9  -7624701.11347  23319091.055    23319090.4404   23319102.3314
        -0.000          -0.000
   1387995.798 9   1087254.08447  22340792.694    22340792.6514   22340802.0594
        -0.000          -0.000
 99  5  6  0 11  0.0010000  0  7  3 22 17  6 23 21 26                0.001145186
  -1692309.238 8  -1075004.77345  24771809.895    24771808.7944   24771822.9704
        -0.000          -0.000
  -4395703.214 9  -2894410.77546  23912565.522    23912564.5864   23912577.5744
        -0.000          -0.000
 -19504734.543 9 -14366586.33248  21143190.592    21143189.9244   21143199.0264
        -0.000          -0.000
 -14961679.961 9 -11202579.67348  21705508.662    21705508.4994   21705518.2654
        -0.000          -0.000
 -19971536.711 9 -15087939.13649  21068608.270    21068607.6974   21068616.7674
        -0.000          -0.000
 -11955955.868 9  -7669336.19647  23308190.510    23308189.9164   23308201.5734
        -0.000          -0.000
   1437426.515 9   1125771.53047  22350199.147    22350199.0694   22350208.3564
        -0.000          -0.000
 99  5  6  0 11 30.0010000  0  7  3 22 17  6 23 21 26                0.001152203
  -1783397.710 8  -1145982.62345  24754475.738    24754474.8244   24754489.2394
        -0.000          -0.000
  -4349063.255 9  -2858068.00846  23921441.000    23921439.9224   23921453.0264
        -0.000          -0.000
 -19502231.139 9 -14364635.62248  21143666.910    21143666.2654   21143675.2974
        -0.000          -0.000
 -14875863.558 9 -11135709.83448  21721839.019    21721838.8544   21721848.6834
        -0.000          -0.000
 -19970728.422 9 -15087309.27349  21068761.889    21068761.3804   21068770.5504
        -0.000          -0.000
 -12013023.453 9  -7713804.31447  23297330.439    23297329.9944   23297341.7824
        -0.000          -0.000
   1487428.355 9   1164734.00047  22359714.216    22359714.1224   22359723.3714
        -0.000          -0.000
 99  5  6  0 12  0.0010000  0  7  3 22 17  6 23 21 26                0.001159234
  -1874368.844 8  -1216869.07045  24737164.120    24737163.4304   24737177.5984
        -0.000          -0.000
  -4302043.533 9  -2821429.33146  23930388.330    23930387.3784   23930400.8824
        -0.000          -0.000
 -19499555.477 9 -14362550.69048  21144176.043    21144175.3924   21144184.4844
        -0.000          -0.000
 -14789614.181 9 -11068502.60048  21738251.700    21738251.5524   21738261.4634
        -0.000          -0.000
 -19969572.881 9 -15086408.81949  21068981.836    21068981.3274   21068990.4954
        -0.000          -0.000
 -12069880.801 9  -7758108.62147  23286510.705    23286510.2644   23286522.1124
        -0.000          -0.000
   1538013.428 9   1204150.93847  22369339.972    22369340.0084   22369349.3924
        -0.000          -0.000
 99  5  6  0 12 30.0010000  0  7  3 22 17  6 23 21 26                0.001166284
  -1965218.362 8  -1287660.72445  24719875.813    24719875.1364   24719889.2284
        -0.000          -0.000
  -4254662.178 9  -2784508.87146  23939404.539    23939403.7364   23939417.3934
        -0.000          -0.000
 -19496720.661 9 -14360341.73448  21144715.448    21144714.8194   21144723.8794
        -0.000          -0.000
 -14702934.343 9 -11000959.93948  21754746.247    21754746.1224   21754756.1214
        -0.000          -0.000
 -19968069.922 9 -15085237.65149  21069267.975    21069267.4004   21069276.5354
        -0.000          -0.000
 -12126512.685 9  -7802237.21747  23275734.318    23275733.6744   23275745.4314
        -0.000          -0.000
   1589184.138 9   1244024.21347  22379077.321    22379077.3974   22379086.8824
        -0.000          -0.000
 99  5  6  0 13  0.0010000  0  7  3 22 17  6 23 21 26                0.001173375
  -2055917.250 8  -1358335.01545  24702616.271    24702615.6154   24702629.7254
        -0.000          -0.000
  -4206894.009 9  -2747287.02546  23948494.402    23948493.7534   23948507.4564
        -0.000          -0.000
 -19493729.739 9 -14358011.13348  21145284.635    21145283.9654   21145293.0234
        -0.000          -0.000
 -14615814.501 9 -10933074.41348  21771324.734    21771324.6054   21771334.5744
        -0.000          -0.000
 -19966192.365 9 -15083774.59249  21069625.296    21069624.7224   21069633.8244
        -0.000          -0.000
 -12182885.761 9  -7846164.16447  23265006.922    23265006.3414   23265018.0554
        -0.000          -0.000
   1640962.526 9   1284371.00447  22388930.355    22388930.4564   22388940.0084
        -0.000          -0.000
 99  5  6  0 13 30.0010000  0  7  3 22 17  6 23 21 26                0.001180497
  -2146453.804 8  -1428882.82045  24685387.360    24685386.9234   24685401.4074
        -0.000          -0.000
  -4158735.766 9  -2709761.19746  23957658.471    23957657.8694   23957671.9094
        -0.000          -0.000
 -19490565.630 9 -14355545.58148  21145886.693    21145886.0584   21145895.1924
        -0.000          -0.000
 -14528269.324 9 -10864857.45948  21787984.167    21787983.9824   21787993.9764
        -0.000          -0.000
 -19963920.534 9 -15082004.30749  21070057.679    21070057.1134   21070066.1214
        -0.000          -0.000
 -12238976.075 9  -7889870.78347  23254333.278    23254332.7504   23254344.4914
        -0.000          -0.000
   1693354.635 9   1325196.00247  22398900.294    22398900.3044   22398909.9074
        -0.000          -0.000
 99  5  6  0 14  0.0010000  0  7  3 22 17  6 23 21 26                0.001187623
  -2236845.890 8  -1499318.06245  24668186.014    24668185.9104   24668200.4094
        -0.000          -0.000
  -4110204.399 9  -2671944.64646  23966893.585    23966893.1454   23966907.3554
        -0.000          -0.000
 -19487233.108 9 -14352948.80248  21146520.839    21146520.1994   21146529.3484
        -0.000          -0.000
 -14440327.420 9 -10796331.35948  21804719.075    21804718.8974   21804728.8134
        -0.000          -0.000
 -19961257.977 9 -15079929.55349  21070564.396    21070563.8424   21070572.7254
        -0.000          -0.000
 -12294787.030 9  -7933359.70947  23243712.902    23243712.4234   23243724.0854
        -0.000          -0.000
   1746334.181 9   1366478.74647  22408982.021    22408982.0444   22408991.5984
        -0.000          -0.000
 99  5  6  0 14 30.0010000  0  7  3 22 17  6 23 21 26                0.001194752
  -2327104.649 8  -1569649.43445  24651010.471    24651010.3114   24651024.6964
        -0.000          -0.000
  -4061278.284 9  -2633820.50446  23976204.403    23976203.8294   23976217.5524
        -0.000          -0.000
 -19483726.212 9 -14350216.14348  21147188.222    21147187.5574   21147196.6674
        -0.000          -0.000
 -14352003.385 9 -10727507.50948  21821526.649    21821526.4714   21821536.3124
        -0.000          -0.000
 -19958220.093 9 -15077562.34549  21071142.457    21071141.8924   21071150.6914
        -0.000          -0.000
 -12350312.713 9  -7976626.33647  23233147.097    23233146.3084   23233157.8004
        -0.000          -0.000
   1799886.722 9   1408207.99447  22419172.886    22419172.8794   22419182.4854
        -0.000          -0.000
 99  5  6  0 15  0.0010000  0  7  3 22 17  6 23 21 26                0.001201879
  -2417218.689 8  -1639868.03845  24633862.440    24633862.0434   24633876.3534
        -0.000          -0.000
  -4011950.249 9  -2595383.15846  23985591.799    23985591.0694   23985604.1604
        -0.000          -0.000
 -19480014.139 9 -14347323.59749  21147894.777    21147894.0284   21147903.0984
        -0.000          -0.000
 -14263298.018 9 -10658386.52148  21838406.840    21838406.6954   21838416.3694
        -0.000          -0.000
 -19954805.648 9 -15074901.71449  21071792.234    21071791.6324   21071800.4714
        -0.000          -0.000
 -12405537.991 9  -8019658.88147  23222637.777    23222637.0444   23222648.5574
        -0.000          -0.000
   1854015.414 9   1450386.21447  22429473.328    22429473.2984   22429483.0384
        -0.000          -0.000
 99  5  6  0 15 30.0010000  0  7  3 22 17  6 23 21 26                0.001208984
  -2507202.015 8  -1709984.77745  24616739.213    24616738.4574   24616752.7844
        -0.000          -0.000
  -3962249.572 9  -2556655.43346  23995050.503    23995049.4124   23995062.0384
        -0.000          -0.000
 -19476090.819 9 -14344266.45449  21148641.248    21148640.5514   21148649.6154
        -0.000          -0.000
 -14174225.523 9 -10588979.44048  21855356.855    21855356.6714   21855366.3504
        -0.000          -0.000
 -19951045.686 9 -15071971.84249  21072507.639    21072507.0674   21072515.8904
        -0.000          -0.000
 -12460489.764 9  -8062478.31147  23212180.255    23212179.7134   23212191.4324
        -0.000          -0.000
   1908684.808 9   1492985.74547  22439876.583    22439876.5674   22439886.4014
        -0.000          -0.000
 99  5  6  0 16  0.0010000  0  7  3 22 17  6 23 21 26                0.001216068
  -2597042.967 8  -1779990.57645  24599642.619    24599641.8934   24599656.5354
        -0.000          -0.000
  -3912171.938 9  -2517633.96746  24004580.690    24004579.3054   24004591.8304
        -0.000          -0.000
 -19471952.018 9 -14341041.38649  21149428.880    21149428.1364   21149437.2374
        -0.000          -0.000
 -14084769.966 9 -10519273.86348  21872379.738    21872379.5774   21872389.4044
        -0.000          -0.000
 -19946929.624 9 -15068764.48949  21073290.839    21073290.2954   21073299.0144
        -0.000          -0.000
 -12515180.797 9  -8105094.55547  23201772.568    23201772.1184   23201783.9384
        -0.000          -0.000
   1963891.372 9   1536003.82247  22450381.940    22450381.9844   22450391.9284
        -0.000          -0.000
 99  5  6  0 16 30.0010000  0  7  3 22 17  6 23 21 26                0.001223138
  -2686721.150 8  -1849869.57945  24582576.530    24582576.3174   24582591.1694
        -0.000          -0.000
  -3861723.697 9  -2478323.72046  24014180.935    24014179.4794   24014191.9404
        -0.000          -0.000
 -19467584.415 9 -14337638.03149  21150259.951    21150259.2504   21150268.4244
        -0.000          -0.000
 -13994914.377 9 -10449256.58448  21889478.817    21889478.5994   21889488.5824
        -0.000          -0.000
 -19942450.595 9 -15065274.30449  21074143.208    21074142.6654   21074151.2754
        -0.000          -0.000
 -12569623.162 9  -8147517.04347  23191412.112    23191411.7404   23191423.7484
        -0.000          -0.000
   2019647.358 9   1579450.03247  22460991.942    22460991.9394   22461001.8264
        -0.000          -0.000
 99  5  6  0 17  0.0010000  0  7  3 22 17  6 23 21 26                0.001230196
  -2776242.353 8  -1919626.26345  24565540.986    24565540.9304   24565555.5874
        -0.000          -0.000
  -3810935.050 9  -2438748.22046  24023845.560    24023844.1094   24023856.6494
        -0.000          -0.000
 -19462996.777 9 -14334063.23248  21151132.845    21151132.1664   21151141.3494
        -0.000          -0.000
 -13904647.089 9 -10378918.51648  21906656.167    21906655.9774   21906666.0504
        -0.000          -0.000
 -19937619.148 9 -15061509.51649  21075062.599    21075062.0684   21075070.6354
        -0.000          -0.000
 -12623842.725 9  -8189765.92847  23181094.062    23181093.7934   23181105.9284
        -0.000          -0.000
   2075951.936 9   1623323.71147  22471706.290    22471706.3424   22471716.2044
        -0.000          -0.000
 99  5  6  0 17 30.0010000  0  7  3 22 17  6 23 21 26                0.001237245
  -2865613.342 9  -1989265.88445  24548534.569    24548534.4324   24548548.5324
        -0.000          -0.000
  -3759803.362 9  -2398905.41746  24033575.559    24033574.0844   24033586.7354
        -0.000          -0.000
 -19458201.207 9 -14330326.40548  21152045.283    21152044.7044   21152053.8794
        -0.000          -0.000
 -13813956.556 9 -10308250.64748  21923914.093    21923913.8804   21923923.9224
        -0.000          -0.000
 -19932422.666 9 -15057460.28049  21076051.469    21076050.9144   21076059.4564
        -0.000          -0.000
 -12677862.000 9  -8231858.73647  23170814.565    23170814.1494   23170826.3034
        -0.000          -0.000
   2132811.250 9   1667629.65647  22482526.364    22482526.4214   22482536.1014
        -0.000          -0.000
 99  5  6  0 18  0.0010000  0  7  3 22 17  6 23 21 26                0.001244282
  -2954859.973 8  -2058808.59745  24531552.035    24531551.6604   24531565.1294
        -0.000          -0.000
  -3708357.434 9  -2358817.73446  24043364.717    24043363.6364   24043376.6854
        -0.000          -0.000
 -19453235.819 9 -14326457.25049  21152990.255    21152989.6104   21152998.7784
        -0.000          -0.000
 -13722852.070 9 -10237260.22348  21941250.768    21941250.5684   21941260.4844
        -0.000          -0.000
 -19926875.777 9 -15053137.99549  21077106.967    21077106.4234   21077114.9464
        -0.000          -0.000
 -12731694.300 9  -8273805.85247  23160570.388    23160569.9724   23160582.3724
        -0.000          -0.000
   2190225.367 9   1712367.91447  22493452.017    22493452.0474   22493461.5234
        -0.000          -0.000
 99  5  6  0 18 30.0010000  0  7  3 22 17  6 23 21 26                0.001251327
  -3043981.879 9  -2128254.09445  24514592.842    24514592.5604   24514605.5584
        -0.000          -0.000
  -3656587.697 9  -2318477.75746  24053215.972    24053215.0764   24053228.1074
        -0.000          -0.000
 -19448105.287 9 -14322459.41649  21153966.516    21153965.8544   21153975.0944
        -0.000          -0.000
 -13631327.251 9 -10165942.25048  21958667.412    21958667.1914   21958676.9674
        -0.000          -0.000
 -19920988.911 9 -15048550.78849  21078227.237    21078226.6974   21078235.2344
        -0.000          -0.000
 -12785317.391 9  -8315589.95747  23150365.994    23150365.6664   23150378.1814
        -0.000          -0.000
   2248209.360 9   1757550.24147  22504485.968    22504486.0194   22504495.4564
        -0.000          -0.000
 99  5  6  0 19  0.0010000  0  7  3 22 17  6 23 21 26                0.001258381
  -3132980.490 9  -2197603.56445  24497657.289    24497656.7654   24497669.6204
        -0.000          -0.000
  -3604467.163 9  -2277864.43046  24063134.160    24063133.3404   24063146.1044
        -0.000          -0.000
 -19442811.861 9 -14318334.63649  21154973.854    21154973.2074   21154982.3694
        -0.000          -0.000
 -13539387.100 9 -10094300.65648  21976163.077    21976162.7894   21976172.6034
        -0.000          -0.000
 -19914749.617 9 -15043688.97649  21079414.473    21079413.9164   21079422.5624
        -0.000          -0.000
 -12838712.623 9  -8357196.50547  23140204.927    23140204.6604   23140217.2774
        -0.000          -0.000
   2306763.124 9   1803176.53547  22515628.516    22515628.5844   22515637.9034
        -0.000          -0.000
 99  5  6  0 19 30.0010000  0  7  3 22 17  6 23 21 26                0.001265450
  -3221825.985 8  -2266833.66045  24480750.696    24480750.0404   24480762.7564
        -0.000          -0.000
  -3551964.215 9  -2236953.11746  24073125.149    24073124.2634   24073137.0654
        -0.000          -0.000
 -19437344.089 9 -14314074.01448  21156014.436    21156013.7464   21156022.7314
        -0.000          -0.000
 -13447025.301 9 -10022330.48948  21993738.819    21993738.6124   21993748.4994
        -0.000          -0.000
 -19908125.416 9 -15038527.23749  21080675.001    21080674.4534   21080683.0564
        -0.000          -0.000
 -12891843.888 9  -8398597.35547  23130094.227    23130093.9204   23130106.5124
        -0.000          -0.000
   2365892.287 9   1849251.19247  22526880.510    22526880.5454   22526889.8264
        -0.000          -0.000
 99  5  6  0 20  0.0010000  0  7  3 22 17  6 23 21 26                0.001272529
  -3310524.324 8  -2335949.13045  24463871.961    24463871.1754   24463883.7994
        -0.000          -0.000
  -3499082.843 9  -2195746.93546  24083188.239    24083187.1574   24083200.2484
        -0.000          -0.000
 -19431710.394 9 -14309684.09948  21157086.591    21157085.8444   21157094.7584
        -0.000          -0.000
 -13354262.771 9  -9950048.07448  22011390.779    22011390.6614   22011400.5264
        -0.000          -0.000
 -19901132.830 9 -15033078.43649  21082005.656    21082005.0824   21082013.6324
        -0.000          -0.000
 -12944706.871 9  -8439789.17847  23120034.327    23120034.2044   23120046.6254
        -0.000          -0.000
   2425578.308 9   1895759.76447  22538238.537    22538238.5424   22538247.6164
        -0.000          -0.000
 99  5  6  0 20 30.0010000  0  7  3 22 17  6 23 21 26                0.001279616
  -3399058.244 8  -2404936.42545  24447024.313    24447023.3894   24447036.2244
        -0.000          -0.000
  -3445795.907 9  -2154224.73846  24093328.322    24093327.2674   24093340.2384
        -0.000          -0.000
 -19425888.887 9 -14305147.83349  21158194.307    21158193.5584   21158202.5824
        -0.000          -0.000
 -13261106.712 9  -9877459.00948  22029117.983    22029117.7994   22029127.5294
        -0.000          -0.000
 -19893763.137 9 -15027335.79149  21083407.989    21083407.4014   21083416.0094
        -0.000          -0.000
 -12997281.628 9  -8480756.38947  23110029.459    23110029.4204   23110041.5784
        -0.000          -0.000
   2485811.086 9   1942694.37047  22549700.445    22549700.4074   22549709.4324
        -0.000          -0.000
 99  5  6  0 21  0.0010000  0  7  3 22 17  6 23 21 26                0.001286692
  -3487430.042 8  -2473797.40745  24430207.724    24430206.6204   24430219.4784
        -0.000          -0.000
  -3392124.540 9  -2112402.97846  24103541.726    24103540.5264   24103553.4214
        -0.000          -0.000
 -19419869.283 9 -14300457.21449  21159339.817    21159339.1244   21159348.1224
        -0.000          -0.000
 -13167573.276 9  -9804575.89048  22046916.888    22046916.6874   22046926.4674
        -0.000          -0.000
 -19886021.519 9 -15021303.33149  21084881.052    21084880.4714   21084889.1634
        -0.000          -0.000
 -13049577.232 9  -8521506.08047  23100078.113    23100077.8994   23100089.8874
        -0.000          -0.000
   2546572.873 9   1990041.17547  22561263.033    22561262.9824   22561271.8234
        -0.000          -0.000
 99  5  6  0 21 30.0010000  0  7  3 22 17  6 23 21 26                0.001293752
  -3575635.303 8  -2542528.61445  24413422.608    24413421.5314   24413434.4984
        -0.000          -0.000
  -3338086.732 9  -2070295.66446  24113824.972    24113823.7074   24113836.7084
        -0.000          -0.000
 -19413654.733 9 -14295614.68349  21160522.486    21160521.7064   21160530.6344
        -0.000          -0.000
 -13073678.775 9  -9731411.42048  22064784.488    22064784.2674   22064794.0964
        -0.000          -0.000
 -19877919.130 9 -15014989.75349  21086422.877    21086422.3044   21086431.0104
        -0.000          -0.000
 -13101602.465 9  -8562045.10547  23090178.333    23090177.9324   23090189.6774
        -0.000          -0.000
   2607857.123 9   2037795.11047  22572924.981    22572924.9594   22572933.8254
        -0.000          -0.000
 99  5  6  0 22  0.0010000  0  7  3 22 17  6 23 21 26                0.001300785
  -3663691.709 8  -2611143.84845  24396665.809    24396664.7914   24396677.7024
        -0.000          -0.000
  -3283705.372 9  -2027920.65446  24124173.125    24124172.0934   24124185.6124
        -0.000          -0.000
 -19407253.896 9 -14290627.00348  21161740.283    21161739.6234   21161748.5424
        -0.000          -0.000
 -12979450.683 9  -9657987.01848  22082715.627    22082715.3944   22082725.1964
        -0.000          -0.000
 -19869485.400 9 -15008417.99349  21088027.745    21088027.1824   21088035.9014
        -0.000          -0.000
 -13153383.154 9  -8602393.57047  23080324.775    23080324.3944   23080335.9684
        -0.000          -0.000
   2669652.162 9   2085947.06247  22584684.114    22584684.1584   22584693.1364
        -0.000          -0.000
 99  5  6  0 22 30.0010000  0  7  3 22 17  6 23 21 26                0.001307798
  -3751567.714 8  -2679618.50145  24379942.838    24379942.3184   24379955.2064
        -0.000          -0.000
  -3228992.625 9  -1985287.42446  24134584.435    24134583.6254   24134597.5454
        -0.000          -0.000
 -19400652.451 9 -14285482.99848  21162996.477    21162995.7734   21163004.7754
        -0.000          -0.000
 -12884886.861 9  -9584301.00048  22100710.682    22100710.4464   22100720.1694
        -0.000          -0.000
 -19860717.325 9 -15001585.69749  21089696.261    21089695.6984   21089704.4064
        -0.000          -0.000
 -13204922.466 9  -8642553.96247  23070517.361    23070516.9334   23070528.3894
        -0.000          -0.000
   2731967.203 9   2134504.22347  22596542.257    22596542.3094   22596551.3904
        -0.000          -0.000
 99  5  6  0 23  0.0010000  0  7  3 22 17  6 23 21 26                0.001314802
  -3839243.941 8  -2747937.48545  24363258.681    24363258.0474   24363270.8214
        -0.000          -0.000
  -3173954.972 9  -1942401.03346  24145057.958    24145057.1554   24145070.9884
        -0.000          -0.000
 -19393845.132 9 -14280178.58648  21164291.689    21164291.0264   21164300.2224
        -0.000          -0.000
 -12789977.086 9  -9510345.41648  22118771.463    22118771.2834   22118781.1244
        -0.000          -0.000
 -19851600.743 9 -14994481.84949  21091431.030    21091430.4374   21091439.2644
        -0.000          -0.000
 -13256236.534 9  -8682538.84647  23060752.877    23060752.2734   23060763.5424
        -0.000          -0.000
   2794822.376 9   2183482.26647  22608503.172    22608503.2294   22608512.3324
        -0.000          -0.000
 99  5  6  0 23 30.0010000  0  7  3 22 17  6 23 21 26                0.001321795
  -3926721.882 8  -2816101.97245  24346611.951    24346611.4124   24346624.1954
        -0.000          -0.000
  -3118600.027 9  -1899267.40146  24155591.756    24155590.9624   24155604.8154
        -0.000          -0.000
 -19386844.876 9 -14274723.82949  21165623.884    21165623.1944   21165632.4214
        -0.000          -0.000
 -12694727.654 9  -9436125.16247  22136896.908    22136896.6464   22136906.6364
        -0.000          -0.000
 -19842136.330 9 -14987106.95749  21093232.015    21093231.4404   21093240.2204
        -0.000          -0.000
 -13307324.047 9  -8722347.19247  23051031.272    23051030.5244   23051041.6274
        -0.000          -0.000
   2858218.036 9   2232881.47647  22620566.910    22620566.9384   22620576.1974
        -0.000          -0.000
 99  5  6  0 24  0.0010000  0  7  3 22 17  6 23 21 26                0.001328777
  -4014002.700 8  -2884112.86245  24330003.003    24330002.3504   24330015.1564
        -0.000          -0.000
  -3062950.904 9  -1855904.55646  24166181.397    24166180.7614   24166194.6204
        -0.000          -0.000
 -19379657.781 9 -14269123.48549  21166991.496    21166990.7474   21167000.1304
        -0.000          -0.000
 -12599126.979 9  -9361631.22048  22155089.102    22155088.8914   22155098.9904
        -0.000          -0.000
 -19832333.630 9 -14979468.46149  21095097.490    21095096.8394   21095105.5124
        -0.000          -0.000
 -13358192.148 9  -8761984.54647  23041351.317    23041350.5154   23041361.5844
        -0.000          -0.000
   2922147.789 9   2282696.87547  22632732.340    22632732.4154   22632741.6984
        -0.000          -0.000
 99  5  6  0 24 30.0010000  0  7  3 22 17  6 23 21 26                0.001335761
  -4101071.118 8  -2951958.24245  24313434.098    24313433.5814   24313446.4274
        -0.000          -0.000
  -3007001.902 9  -1812308.02646  24176827.951    24176827.6104   24176841.5264
        -0.000          -0.000
 -19372265.495 9 -14263363.25849  21168398.209    21168397.4834   21168406.8604
        -0.000          -0.000
 -12503149.455 9  -9286843.60448  22173353.141    22173352.9274   22173363.0774
        -0.000          -0.000
 -19822170.964 9 -14971549.47949  21097031.272    21097030.6804   21097039.3554
        -0.000          -0.000
 -13408822.232 9  -8801436.44347  23031716.864    23031715.8754   23031726.9674
        -0.000          -0.000
   2986633.923 9   2332945.79747  22645003.738    22645003.7804   22645012.9944
        -0.000          -0.000
 99  5  6  0 25  0.0010000  0  7  3 22 17  6 23 21 26                0.001342738
  -4187953.828 8  -3019658.91645  24296900.696    24296900.1974   24296913.0414
        -0.000          -0.000
  -2950751.206 9  -1768476.41346  24187532.152    24187531.7504   24187545.7854
        -0.000          -0.000
 -19364678.120 9 -14257451.01349  21169842.133    21169841.3834   21169850.6294
        -0.000          -0.000
 -12406794.464 9  -9211761.87848  22191688.865    22191688.6834   22191699.0304
        -0.000          -0.000
 -19811654.038 9 -14963354.44249  21099032.563    21099031.9344   21099040.5634
        -0.000          -0.000
 -13459202.245 9  -8840693.47347  23022129.885    23022128.8524   23022139.9294
        -0.000          -0.000
   3051663.738 9   2383618.35447  22657378.585    22657378.6234   22657387.7964
        -0.000          -0.000
 99  5  6  0 25 30.0010000  0  7  3 22 17  6 23 21 26                0.001349712
  -4274648.105 8  -3087212.77845  24280402.617    24280402.2884   24280415.4644
        -0.000          -0.000
  -2894186.625 9  -1724400.23146  24198296.154    24198295.6084   24198309.7674
        -0.000          -0.000
 -19356886.470 9 -14251379.58349  21171324.915    21171324.1374   21171333.3064
        -0.000          -0.000
 -12310044.963 9  -9136372.73247  22210099.758    22210099.5684   22210109.9894
        -0.000          -0.000
 -19800779.608 9 -14954880.82849  21101101.837    21101101.2224   21101109.7624
        -0.000          -0.000
 -13509310.795 9  -8879738.98947  23012594.557    23012593.5934   23012604.3814
        -0.000          -0.000
   3117227.456 9   2434706.92847  22669854.890    22669854.9064   22669864.0444
        -0.000          -0.000
 99  5  6  0 26  0.0010000  0  8  3 22 17  6 29 23 21 26             0.001356691
  -4361148.277 8  -3154615.40545  24263941.857    24263941.3544   24263954.7794
        -0.000          -0.000
  -2837301.308 9  -1680074.10546  24209121.432    24209120.7044   24209134.7644
        -0.000          -0.000
 -19348894.144 9 -14245151.78749  21172845.851    21172845.0444   21172854.1984
        -0.000          -0.000
 -12212896.319 9  -9060672.56947  22228586.569    22228586.3994   22228596.8654
        -0.000          -0.000
   -291966.69318   -216881.46052         0.000           0.0005          0.0005
        -0.000          -0.000
 -19789561.273 9 -14946139.24049  21103236.645    21103235.9944   21103244.4954
        -0.000          -0.000
 -13559161.917 9  -8918583.91247  23003107.966    23003107.1904   23003117.9054
        -0.000          -0.000
   3183312.995 9   2486202.11947  22682430.399    22682430.4014   22682439.7774
        -0.000          -0.000
 99  5  6  0 26 30.0010000  0  8  3 22 17  6 29 23 21 26             0.001363667
  -4447459.288 8  -3221870.62445  24247516.533    24247516.5844   24247530.3214
        -0.000          -0.000
  -2780083.842 9  -1635489.16746  24220010.018    24220009.0664   24220022.7704
        -0.000          -0.000
 -19340695.479 9 -14238763.20549  21174405.911    21174405.1444   21174414.3124
        -0.000          -0.000
 -12115366.442 9  -8984675.34147  22247146.076    22247145.8614   22247156.2124
        -0.000          -0.000
   -388866.03418    -61089.26552         0.000           0.0005          0.0005
        -0.000          -0.000
 -19777999.219 9 -14937129.82849  21105436.749    21105436.1314   21105444.6544
        -0.000          -0.000
 -13608746.127 9  -8957220.86647  22993672.208    22993671.5234   22993682.3184
        -0.000          -0.000
   3249915.592 9   2538100.24046  22695104.149    22695104.2664   22695113.9174
        -0.000          -0.000
 99  5  6  0 27  0.0010000  0  8  3 22 17  6 29 23 21 26             0.001370647
  -4533580.918 8  -3288978.29845  24231127.544    24231128.0294   24231141.7214
        -0.000          -0.000
  -2722522.842 9  -1590636.52246  24230963.905    24230962.6634   24230976.1494
        -0.000          -0.000
 -19332291.857 9 -14232214.92949  21176004.944    21176004.2174   21176013.4594
        -0.000          -0.000
 -12017457.933 9  -8908383.09347  22265777.468    22265777.2734   22265787.4074
        -0.000          -0.000
   -485837.174 8   -136650.07352         0.000           0.0004          0.0005
        -0.000          -0.000
 -19766103.415 9 -14927860.34149  21107700.404    21107699.7844   21107708.2544
        -0.000          -0.000
 -13658067.209 9  -8995652.78247  22984286.462    22984285.8804   22984296.8144
        -0.000          -0.000
   3317025.129 9   2590393.36746  22707874.566    22707874.6664   22707884.3954
        -0.000          -0.000
 99  5  6  0 27 30.0010000  0  8  3 22 17  6 29 23 21 26             0.001377630
  -4619515.004 9  -3355939.82245  24214775.093    24214775.3894   24214788.8824
        -0.000          -0.000
  -2664623.369 9  -1545520.15846  24241981.791    24241980.5764   24241994.0284
        -0.000          -0.000
 -19323682.041 9 -14225505.97749  21177643.320    21177642.5934   21177651.7934
        -0.000          -0.000
 -11919183.878 9  -8831805.98147  22284478.385    22284478.2274   22284488.1834
        -0.000          -0.000
   -582870.801 8   -212259.58252         0.000           0.0004          0.0005
        -0.000          -0.000
 -19753876.540 9 -14918332.88349  21110026.993    21110026.3834   21110034.9104
        -0.000          -0.000
 -13707141.934 9  -9033892.72047  22974947.413    22974947.0064   22974958.1314
        -0.000          -0.000
   3384652.221 9   2643089.77546  22720743.407    22720743.4974   22720753.3254
        -0.000          -0.000
 99  5  6  0 28  0.0010000  0  8  3 22 17  6 29 23 21 26             0.001384613
  -4705264.342 9  -3422757.37645  24198458.275    24198457.9864   24198471.1554
        -0.000          -0.000
  -2606402.771 9  -1500153.58046  24253060.678    24253059.6564   24253072.9964
        -0.000          -0.000
 -19314867.544 9 -14218637.51648  21179320.580    21179319.8424   21179329.0764
        -0.000          -0.000
 -11820575.407 9  -8754968.28547  22303242.976    22303242.8474   22303252.8684
        -0.000          -0.000
   -679978.15718    -54930.34852         0.000           0.0005          0.0005
        -0.000          -0.000
 -19741332.760 9 -14908558.49149  21112413.871    21112413.3304   21112421.9434
        -0.000          -0.000
 -13755982.120 9  -9071949.90147  22965653.089    22965652.7504   22965664.0594
        -0.000          -0.000
   3452805.856 9   2696196.47346  22733712.639    22733712.7384   22733722.4284
        -0.000          -0.000
 99  5  6  0 28 30.0010000  0  8  3 22 17  6 29 23 21 26             0.001391581
  -4790845.232 9  -3489443.68345  24182173.229    24182172.6204   24182185.5894
        -0.000          -0.000
  -2547883.865 9  -1454554.53346  24264196.506    24264195.4184   24264208.7954
        -0.000          -0.000
 -19305850.769 9 -14211611.45449  21181036.261    21181035.6144   21181044.9984
        -0.000          -0.000
 -11721645.133 9  -8677879.83847  22322068.750    22322068.6634   22322078.8374
        -0.000          -0.000
   -777167.047 8   -130661.48952         0.000           0.0004          0.0005
        -0.000          -0.000
 -19728473.280 9 -14898538.08649  21114861.011    21114860.4164   21114869.0614
        -0.000          -0.000
 -13804595.778 9  -9109830.56647  22956402.311    22956401.8444   22956413.1394
        -0.000          -0.000
   3521487.265 9   2749714.43346  22746782.356    22746782.4204   22746792.1374
        -0.000          -0.000
 99  5  6  0 29  0.0010000  0  8  3 22 17  6 29 23 21 26             0.001398538
  -4876257.637 9  -3555998.67745  24165920.012    24165919.3624   24165931.9824
        -0.000          -0.000
  -2489081.041 9  -1408734.26146  24275386.318    24275385.3004   24275398.7194
        -0.000          -0.000
 -19296643.287 9 -14204436.79348  21182788.398    21182787.6814   21182797.1624
        -0.000          -0.000
 -11622394.703 9  -8600541.91147  22340955.678    22340955.5084   22340965.6814
        -0.000          -0.000
   -874422.89918   -206444.86255         0.000           0.0005   25287493.0865
        -0.000          -0.000
 -19715306.825 9 -14888278.48249  21117366.487    21117365.8624   21117374.5134
        -0.000          -0.000
 -13852991.173 9  -9147541.16047  22947192.975    22947192.4994   22947203.6714
        -0.000          -0.000
   3590693.025 9   2803640.98246  22759951.854    22759951.9634   22759961.5984
        -0.000          -0.000
 99  5  6  0 29 30.0010000  0  8  3 22 17  6 29 23 21 26             0.001405485
  -4961472.561 9  -3622399.80045  24149704.328    24149703.6384   24149715.7044
        -0.000          -0.000
  -2429993.328 9  -1362691.98346  24286630.111    24286629.2574   24286643.1454
        -0.000          -0.000
 -19287233.631 9 -14197104.59048  21184578.963    21184578.2524   21184587.7524
        -0.000          -0.000
 -11522819.857 9  -8522951.20847  22359904.162    22359903.9404   22359914.2674
        -0.000          -0.000
   -971725.53718   -282264.63245  25268956.633    25268954.7275   25268975.4234
        -0.000          -0.000
 -19701816.575 9 -14877766.57949  21119933.550    21119932.9954   21119941.6774
        -0.000          -0.000
 -13901154.399 9  -9185070.86347  22938027.604    22938027.2844   22938038.5424
        -0.000          -0.000
   3660428.144 9   2857980.00146  22773222.004    22773222.1164   22773231.8064
        -0.000          -0.000
 99  5  6  0 30  0.0010000  0  8  3 22 17  6 29 23 21 26             0.001412447
  -5046445.185 9  -3688612.11346  24133534.765    24133534.0624   24133545.6644
        -0.000          -0.000
  -2370598.234 9  -1316410.18846  24297932.286    24297931.6524   24297945.8834
        -0.000          -0.000
 -19277585.225 9 -14189586.33749  21186414.995    21186414.3104   21186423.9024
        -0.000          -0.000
 -11422883.055 9  -8445078.46947  22378921.714    22378921.4554   22378931.8014
        -0.000          -0.000
  -1069050.849 8   -358102.07245  25250436.298    25250437.5064   25250455.5404
        -0.000          -0.000
 -19687986.347 9 -14866989.76349  21122565.348    21122564.7434   21122573.5684
        -0.000          -0.000
 -13949049.641 9  -9222391.73747  22928913.477    22928913.1344   22928924.3564
        -0.000          -0.000
   3730711.382 9   2912746.14346  22786596.559    22786596.6374   22786606.2624
        -0.000          -0.000
 99  5  6  0 30 30.0010000  0  8  3 22 17  6 29 23 21 26             0.001419413
  -5131196.748 9  -3754652.16146  24117407.350    24117406.4074   24117417.6404
        -0.000          -0.000
  -2310908.337 9  -1269898.69046  24309290.971    24309290.3984   24309304.7144
        -0.000          -0.000
 -19267721.552 9 -14181900.34949  21188291.985    21188291.3114   21188301.0134
        -0.000          -0.000
 -11322597.323 9  -8366933.82547  22398005.630    22398005.3544   22398015.6964
        -0.000          -0.000
  -1166398.335 8   -433956.79645  25231911.713    25231910.5924   25231929.9334
        -0.000          -0.000
 -19673829.989 9 -14855958.81449  21125259.172    21125258.5884   21125267.3524
        -0.000          -0.000
 -13996688.545 9  -9259512.84747  22919848.133    22919847.6804   22919858.8524
        -0.000          -0.000
   3801513.499 9   2967916.59547  22800069.931    22800069.9104   22800079.6844
        -0.000          -0.000
 99  5  6  0 31  0.0010000  0  8  3 22 17  6 29 23 21 26             0.001426360
  -5215753.509 9  -3820540.43146  24101316.880    24101315.8564   24101326.5244
        -0.000          -0.000
  -2250938.206 9  -1223168.86046  24320703.102    24320702.5184   24320716.8994
        -0.000          -0.000
 -19257683.754 9 -14174078.66749  21190202.081    21190201.4094   21190211.1324
        -0.000          -0.000
 -11221999.289 9  -8288545.81247  22417148.764    22417148.5014   22417158.9604
        -0.000          -0.000
  -1263786.309 8   -509843.06545  25213378.946    25213377.9134   25213397.3274
        -0.000          -0.000
 -19659374.338 9 -14844694.64249  21128010.025    21128009.3934   21128018.0144
        -0.000          -0.000
 -14044097.388 9  -9296454.69447  22910826.299    22910825.7964   22910837.1684
        -0.000          -0.000
   3872787.883 9   3023455.05947  22813633.251    22813633.2004   22813642.9334
        -0.000          -0.000
 99  5  6  0 31 30.0010000  0  8  3 22 17  6 29 23 21 26             0.001433310
  -5300088.959 9  -3886256.24046  24085268.343    24085267.3964   24085277.7004
        -0.000          -0.000
  -2190654.649 9  -1176194.77246  24332174.430    24332173.9974   24332188.5514
        -0.000          -0.000
 -19247446.291 9 -14166101.40249  21192150.196    21192149.6204   21192159.1814
        -0.000          -0.000
 -11121055.518 9  -8209888.41647  22436357.602    22436357.4234   22436367.9884
        -0.000          -0.000
  -1361193.489 8   -585744.30645  25194842.448    25194841.5144   25194861.3034
        -0.000          -0.000
 -19644591.520 9 -14833175.54649  21130823.119    21130822.5064   21130831.1254
        -0.000          -0.000
 -14091256.470 9  -9333201.93247  22901851.929    22901851.4784   22901863.0874
        -0.000          -0.000
   3944563.329 9   3079383.99047  22827291.833    22827291.6654   22827301.4334
        -0.000          -0.000
 99  5  6  0 32  0.0010000  0  8  3 22 17  6 29 23 21 26             0.001440270
  -5384216.333 9  -3951809.91246  24069259.154    24069258.2804   24069268.5384
        -0.000          -0.000
  -2130048.908 9  -1128969.60446  24343707.161    24343706.8824   24343721.4364
        -0.000          -0.000
 -19237012.256 9 -14157970.95949  21194136.023    21194135.3454   21194144.6774
        -0.000          -0.000
 -11019758.155 9  -8130955.48647  22455634.054    22455633.8284   22455644.3654
        -0.000          -0.000
  -1458613.525 8   -661655.56445  25176303.674    25176303.0984   25176322.9684
        -0.000          -0.000
 -19629481.258 9 -14821401.30649  21133698.572    21133697.9454   21133706.5314
        -0.000          -0.000
 -14138154.275 9  -9369745.57647  22892927.358    22892926.9674   22892938.7114
        -0.000          -0.000
   4016849.371 9   3135710.74447  22841047.313    22841047.2824   22841057.0054
        -0.000          -0.000
 99  5  6  0 32 30.0010000  0  8  3 22 17  6 29 23 21 26             0.001447212
  -5468185.112 9  -4017239.99946  24053280.164    24053279.2324   24053289.6844
        -0.000          -0.000
  -2069148.860 9  -1081515.13646  24355296.721    24355296.0394   24355310.2324
        -0.000          -0.000
 -19226436.600 9 -14149730.17349  21196148.472    21196147.8024   21196157.1174
        -0.000          -0.000
 -10918153.333 9  -8051782.97647  22474968.956    22474968.6834   22474979.2394
        -0.000          -0.000
  -1556084.353 8   -737606.35845  25157754.974    25157754.6014   25157775.1514
        -0.000          -0.000
 -19614066.983 9 -14809390.15749  21136631.828    21136631.2344   21136639.7264
        -0.000          -0.000
 -14184822.925 9  -9406110.64947  22884046.497    22884046.1054   22884057.9244
        -0.000          -0.000
   4089602.417 9   3192401.40047  22854891.929    22854891.8584   22854901.4044
        -0.000          -0.000
 99  5  6  0 33  0.0010000  0  8  3 22 17  6 29 23 21 26             0.001454151
  -5551957.079 9  -4082516.75246  24037338.614    24037337.7784   24037348.5514
        -0.000          -0.000
  -2007940.150 9  -1033820.15646  24366944.778    24366943.9754   24366958.0774
        -0.000          -0.000
 -19215686.073 9 -14141353.12149  21198194.214    21198193.5964   21198202.9334
        -0.000          -0.000
 -10816210.945 9  -7972347.42447  22494367.880    22494367.5944   22494378.2374
        -0.000          -0.000
  -1653603.438 8   -813594.76745  25139197.198    25139197.0164   25139217.7324
        -0.000          -0.000
 -19598326.783 9 -14797125.04449  21139627.176    21139626.5514   21139635.0134
        -0.000          -0.000
 -14231227.769 9  -9442270.17247  22875215.809    22875215.4484   22875227.3574
        -0.000          -0.000
   4162847.746 9   3249475.64146  22868829.993    22868829.9294   22868839.3874
        -0.000          -0.000
 99  5  6  0 33 30.0010000  0  8  3 22 17  6 29 23 21 26             0.001461098
  -5635510.685 9  -4147623.35146  24021438.591    24021437.8554   24021448.9134
        -0.000          -0.000
  -1946426.888 9   -985887.85246  24378650.735    24378649.7424   24378663.7784
        -0.000          -0.000
 -19204729.179 9 -14132815.26449  21200279.286    21200278.6134   21200288.0274
        -0.000          -0.000
 -10713921.568 9  -7892641.51347  22513832.868    22513832.5784   22513843.2274
        -0.000          -0.000
  -1751174.049 8   -889623.33345  25120629.977    25120629.8004   25120650.4134
        -0.000          -0.000
 -19582265.308 9 -14784609.59949  21142683.422    21142682.8454   21142691.4574
        -0.000          -0.000
 -14277357.541 9  -9478215.35447  22866437.672    22866437.2854   22866449.1834
        -0.000          -0.000
   4236599.809 9   3306944.72246  22882864.484    22882864.4534   22882873.9494
        -0.000          -0.000
 99  5  6  0 34  0.0010000  0  8  3 22 17  6 29 23 21 26             0.001468033
  -5718841.219 9  -4212556.12846  24005581.130    24005580.3434   24005591.5874
        -0.000          -0.000
  -1884631.887 9   -937736.00246  24390409.500    24390408.8124   24390423.0344
        -0.000          -0.000
 -19193557.977 9 -14124110.42549  21202405.007    21202404.3614   21202413.8434
        -0.000          -0.000
 -10611304.449 9  -7812680.22447  22533360.167    22533359.9094   22533370.5314
        -0.000          -0.000
  -1848790.433 8   -965687.55745  25102054.683    25102054.4584   25102073.9844
        -0.000          -0.000
 -19565887.339 9 -14771847.52249  21145800.050    21145799.5274   21145808.1064
        -0.000          -0.000
 -14323202.079 9  -9513938.26247  22857714.019    22857713.5144   22857725.1934
        -0.000          -0.000
   4310840.224 9   3364794.37446  22896991.904    22896991.9324   22897001.5094
        -0.000          -0.000
 99  5  6  0 34 30.0010000  0  8  3 22 17  6 29 23 21 26             0.001474952
  -5801915.341 9  -4277289.10746  23989772.467    23989771.7674   23989783.1274
        -0.000          -0.000
  -1822565.327 9   -889372.55246  24402219.982    24402219.5154   24402233.9344
        -0.000          -0.000
 -19182158.509 9 -14115227.71349  21204574.217    21204573.5494   21204583.0784
        -0.000          -0.000
 -10508367.394 9  -7732469.61347  22552948.352    22552948.1894   22552958.9534
        -0.000          -0.000
  -1946447.746 8  -1041783.64245  25083471.547    25083471.0234   25083489.7864
        -0.000          -0.000
 -19549178.257 9 -14758827.43249  21148979.763    21148979.1474   21148987.7674
        -0.000          -0.000
 -14368770.357 9  -9549445.89947  22849042.773    22849042.2074   22849053.5724
        -0.000          -0.000
   4385562.472 9   3423019.44746  22911211.276    22911211.2784   22911220.7664
        -0.000          -0.000
 99  5  6  0 35  0.0010000  0  8  3 22 17  6 29 23 21 26             0.001481868
  -5884703.807 9  -4341799.49446  23974018.154    23974017.4044   23974028.8134
        -0.000          -0.000
  -1760229.508 9   -840799.27146  24414082.362    24414081.6124   24414096.1284
        -0.000          -0.000
 -19170508.302 9 -14106149.60949  21206791.193    21206790.5744   21206799.9494
        -0.000          -0.000
 -10405100.898 9  -7652002.29647  22572599.439    22572599.2544   22572610.2494
        -0.000          -0.000
  -2044134.511 8  -1117902.73445  25064881.947    25064881.6244   25064899.9554
        -0.000          -0.000
 -19532140.196 9 -14745551.00849  21152221.963    21152221.3724   21152230.0744
        -0.000          -0.000
 -14414074.675 9  -9584747.85647  22840421.916    22840421.1554   22840432.1584
        -0.000          -0.000
   4460771.692 9   3481623.99146  22925523.301    22925523.2204   22925532.8114
        -0.000          -0.000
 99  5  6  0 35 30.0010000  0  8  3 22 17  6 29 23 21 26             0.001488773
  -5967224.311 9  -4406101.09246  23958314.446    23958313.9954   23958325.4914
        -0.000          -0.000
  -1697636.452 9   -792025.58446  24425994.200    24425993.1554   24426007.3034
        -0.000          -0.000
 -19158626.990 9 -14096891.42049  21209052.119    21209051.4494   21209060.8164
        -0.000          -0.000
 -10301519.317 9  -7571289.47447  22592310.553    22592310.3194   22592321.4314
        -0.000          -0.000
  -2141841.436 8  -1194037.55845  25046288.397    25046288.0464   25046306.3844
        -0.000          -0.000
 -19514779.998 9 -14732023.55749  21155525.500    21155524.9154   21155533.5674
        -0.000          -0.000
 -14459151.929 9  -9619872.87847  22831844.002    22831843.2344   22831854.1114
        -0.000          -0.000
   4536461.714 9   3540603.18746  22939926.710    22939926.6094   22939936.2504
        -0.000          -0.000
 99  5  6  0 36  0.0010000  0  8  3 22 17  6 29 23 21 26             0.001495668
  -6049467.763 9  -4470186.78746  23942663.994    23942663.3894   23942674.8074
        -0.000          -0.000
  -1634790.325 9   -743054.68846  24437954.169    24437952.8374   24437966.7534
        -0.000          -0.000
 -19146526.714 9 -14087462.62849  21211354.660    21211354.0554   21211363.4494
        -0.000          -0.000
 -10197623.444 9  -7490331.74147  22612081.363    22612081.1824   22612092.3104
        -0.000          -0.000
  -2239551.999 8  -1270175.16945  25027694.276    25027693.7704   25027712.3744
        -0.000          -0.000
 -19497082.681 9 -14718233.41849  21158893.272    21158892.6534   21158901.1664
        -0.000          -0.000
 -14504000.781 9  -9654819.93047  22823309.421    22823308.7024   22823319.5694
        -0.000          -0.000
   4612635.467 9   3599959.32046  22954422.234    22954422.0544   22954431.6814
        -0.000          -0.000
 99  5  6  0 36 30.0010000  0  8  3 22 17  6 29 23 21 26             0.001502573
  -6131428.550 9  -4534052.24146  23927067.271    23927066.8564   23927077.9084
        -0.000          -0.000
  -1571667.236 9   -693867.98146  24449966.284    24449965.1414   24449978.7224
        -0.000          -0.000
 -19134212.233 9 -14077866.90949  21213698.172    21213697.4634   21213706.6534
        -0.000          -0.000
 -10093400.129 9  -7409118.85847  22631914.462    22631914.2824   22631925.4934
        -0.000          -0.000
  -2337263.411 8  -1346313.44545  25009099.514    25009098.8454   25009118.2934
        -0.000          -0.000
 -19479045.416 9 -14704178.38149  21162325.707    21162325.0674   21162333.5774
        -0.000          -0.000
 -14548621.998 9  -9689589.60547  22814818.195    22814817.4814   22814828.3364
        -0.000          -0.000
   4689314.464 9   3659709.13946  22969013.767    22969013.6334   22969023.2474
        -0.000          -0.000
 99  5  6  0 37  0.0010000  0  8  3 22 17  6 29 23 21 26             0.001509489
  -6213145.368 9  -4597727.59246  23911517.331    23911516.7014   23911527.4894
        -0.000          -0.000
  -1508282.559 9   -644477.45346  24462027.944    24462026.9314   24462040.3354
        -0.000          -0.000
 -19121705.072 9 -14068121.05849  21216078.221    21216077.4854   21216086.5794
        -0.000          -0.000
  -9988862.321 9  -7327660.91447  22651807.380    22651807.2404   22651818.4844
        -0.000          -0.000
  -2434978.353 8  -1422454.51245  24990503.977    24990503.6654   24990523.0574
        -0.000          -0.000
 -19460699.709 9 -14689882.99949  21165816.642    21165816.0314   21165824.6504
        -0.000          -0.000
 -14593029.211 9  -9724192.52547  22806367.537    22806366.9214   22806377.7964
        -0.000          -0.000
   4766496.287 9   3719850.78947  22983701.117    22983700.9954   22983710.4054
        -0.000          -0.000
 99  5  6  0 37 30.0010000  0  8  3 22 17  6 29 23 21 26             0.001516417
  -6294612.868 9  -4661208.66046  23896014.570    23896013.9344   23896024.6634
        -0.000          -0.000
  -1444635.036 9   -594882.08046  24474139.747    24474138.7464   24474152.1134
        -0.000          -0.000
 -19108988.587 9 -14058212.09749  21218498.068    21218497.3504   21218506.3794
        -0.000          -0.000
  -9884006.750 9  -7245955.39147  22671760.902    22671760.7574   22671771.9864
        -0.000          -0.000
  -2532670.197 8  -1498577.61045  24971913.389    24971913.4744   24971932.4174
        -0.000          -0.000
 -19442033.084 9 -14675337.54849  21169368.668    21169368.0724   21169376.7584
        -0.000          -0.000
 -14637188.228 9  -9758602.05447  22797963.920    22797963.5094   22797974.4364
        -0.000          -0.000
   4844198.666 9   3780398.05247  22998487.577    22998487.4384   22998496.7254
        -0.000          -0.000
 99  5  6  0 38  0.0010000  0  8  3 22 17  6 29 23 21 26             0.001523328
  -6375839.075 9  -4724501.72046  23880557.341    23880556.9554   23880567.7274
        -0.000          -0.000
  -1380740.046 9   -545093.86946  24486298.256    24486297.4194   24486311.2094
        -0.000          -0.000
 -19096068.041 9 -14048144.12448  21220956.749    21220956.0284   21220965.0234
        -0.000          -0.000
  -9778857.583 9  -7164021.10547  22691770.106    22691770.0044   22691781.2034
        -0.000          -0.000
  -2630367.845 8  -1574705.19545  24953322.448    24953322.3144   24953340.7514
        -0.000          -0.000
 -19423070.940 9 -14660561.83049  21172977.016    21172976.3844   21172985.1264
        -0.000          -0.000
 -14681096.492 9  -9792816.19047  22789608.310    22789607.9534   22789618.7844
        -0.000          -0.000
   4922388.388 9   3841325.07647  23013366.631    23013366.4384   23013375.8234
        -0.000          -0.000
 99  5  6  0 38 30.0010000  0  8  3 22 17  6 29 23 21 26             0.001530253
  -6456848.873 9  -4787626.16246  23865141.312    23865141.2074   23865151.9114
        -0.000          -0.000
  -1316607.546 9   -495120.64946  24498502.390    24498501.5504   24498515.6474
        -0.000          -0.000
 -19082938.291 9 -14037913.13049  21223455.236    21223454.5384   21223463.5884
        -0.000          -0.000
  -9673420.107 9  -7081862.15647  22711834.129    22711834.0654   22711845.2724
        -0.000          -0.000
  -2728092.939 8  -1650854.17545  24934726.071    24934725.6394   24934743.8564
        -0.000          -0.000
 -19403841.452 9 -14645577.79049  21176636.160    21176635.5304   21176644.3394
        -0.000          -0.000
 -14724775.570 9  -9826851.74047  22781296.475    22781296.1274   22781306.6994
        -0.000          -0.000
   5001051.469 9   3902620.97046  23028335.399    23028335.3064   23028344.9364
        -0.000          -0.000
 99  5  6  0 39  0.0010000  0  8  3 22 17  6 29 23 21 26             0.001537166
  -6537621.771 9  -4850565.99346  23849770.596    23849770.4784   23849781.1214
        -0.000          -0.000
  -1252226.839 9   -444953.99446  24510753.982    24510752.9194   24510767.0704
        -0.000          -0.000
 -19069551.656 9 -14027481.97649  21226002.694    21226001.9554   21226011.0284
        -0.000          -0.000
  -9567666.064 9  -6999456.53147  22731958.506    22731958.4624   22731969.6254
        -0.000          -0.000
  -2825817.737 8  -1727002.91445  24916129.228    24916128.4844   24916146.9524
        -0.000          -0.000
 -19384319.723 9 -14630366.03149  21180350.906    21180350.2794   21180359.1824
        -0.000          -0.000
 -14768199.083 9  -9860688.14647  22773033.488    22773033.0874   22773043.3444
        -0.000          -0.000
   5080187.962 9   3964285.75446  23043394.160    23043394.2204   23043403.9934
        -0.000          -0.000
 99  5  6  0 39 30.0010000  0  8  3 22 17  6 29 23 21 26             0.001544074
  -6618134.392 9  -4913303.00546  23834449.301    23834449.2454   23834459.8394
        -0.000          -0.000
  -1187581.474 9   -394581.10746  24523055.509    24523054.6034   24523068.7824
        -0.000          -0.000
 -19055883.850 9 -14016831.72848  21228603.519    21228602.8044   21228611.8744
        -0.000          -0.000
  -9461567.088 9  -6916782.10447  22752148.690    22752148.5354   22752159.6864
        -0.000          -0.000
  -2923546.357 8  -1803154.64845  24897531.411    24897530.9604   24897549.2904
        -0.000          -0.000
 -19364495.216 9 -14614918.33849  21184123.408    21184122.7774   21184131.7134
        -0.000          -0.000
 -14811350.502 9  -9894312.52047  22764822.167    22764821.6324   22764831.9094
        -0.000          -0.000
   5159790.380 9   4026313.58446  23058542.010    23058542.0534   23058551.9594
        -0.000          -0.000
 99  5  6  0 40  0.0010000  0  8  3 22 17  6 29 23 21 26             0.001550988
  -6698364.170 9  -4975819.61746  23819181.910    23819181.9344   23819192.5334
        -0.000          -0.000
  -1122643.540 9   -343980.23146  24535412.544    24535411.7284   24535426.0604
        -0.000          -0.000
 -19041927.859 9 -14005956.92448  21231259.277    21231258.5664   21231267.6594
        -0.000          -0.000
  -9355099.515 9  -6833820.47147  22772408.743    22772408.5104   22772419.7704
        -0.000          -0.000
  -3021265.771 8  -1879299.22245  24878935.055    24878935.0824   24878953.5364
        -0.000          -0.000
 -19344352.501 9 -14599222.70249  21187956.450    21187955.8334   21187964.7204
        -0.000          -0.000
 -14854226.167 9  -9927722.02347  22756663.237    22756662.5904   22756672.9844
        -0.000          -0.000
   5239874.245 9   4088716.56146  23073781.770    23073781.6524   23073791.4964
        -0.000          -0.000
 99  5  6  0 40 30.0010000  0  8  3 22 17  6 29 23 21 26             0.001557901
  -6778340.682 9  -5038138.88946  23803962.774    23803962.8794   23803973.4384
        -0.000          -0.000
  -1057446.390 9   -293177.38446  24547818.805    24547818.2494   24547832.8094
        -0.000          -0.000
 -19027729.235 9 -13994893.05649  21233961.206    21233960.4854   21233969.5944
        -0.000          -0.000
  -9248298.134 9  -6750598.71147  22792732.302    22792732.1004   22792743.3584
        -0.000          -0.000
  -3118979.618 8  -1955439.44245  24860340.186    24860340.1664   24860358.9184
        -0.000          -0.000
 -19323917.435 9 -14583299.24949  21191845.068    21191844.4714   21191853.2844
        -0.000          -0.000
 -14896861.345 9  -9960944.14447  22748550.040    22748549.2774   22748559.7834
        -0.000          -0.000
   5320418.520 9   4151478.31646  23089108.935    23089108.9224   23089118.4714
        -0.000          -0.000
 99  5  6  0 41  0.0010000  0  8  3 22 17  6 29 23 21 26             0.001564830
  -6858024.929 9  -5100230.40846  23788799.609    23788799.5474   23788809.9334
        -0.000          -0.000
   -991966.378 9   -242154.14246  24560279.480    24560278.8624   24560293.3284
        -0.000          -0.000
 -19013275.885 9 -13983630.69849  21236711.632    21236710.9414   21236719.9324
        -0.000          -0.000
  -9141152.685 9  -6667108.84247  22813121.722    22813121.4344   22813132.5444
        -0.000          -0.000
  -3216638.860 8  -2031537.12445  24841755.822    24841755.8424   24841774.6124
        -0.000          -0.000
 -19303140.716 9 -14567109.57949  21195798.737    21195798.1544   21195806.9274
        -0.000          -0.000
 -14939208.859 9  -9993942.11647  22740491.469    22740490.6864   22740501.3584
        -0.000          -0.000
   5401454.666 9   4214623.32846  23104529.782    23104529.8164   23104538.9804
        -0.000          -0.000
 99  5  6  0 41 30.0010000  0  8  3 22 17  6 29 23 21 26             0.001571758
  -6937451.639 9  -5162121.24846  23773685.186    23773685.1204   23773695.4544
        -0.000          -0.000
   -926256.555 9   -190951.81246  24572783.917    24572783.1664   24572797.6714
        -0.000          -0.000
 -18998641.940 9 -13972227.61749  21239496.422    21239495.6834   21239504.6094
        -0.000          -0.000
  -9033739.076 9  -6583410.03047  22833562.059    22833561.8134   22833572.7234
        -0.000          -0.000
  -3314281.412 8  -2107621.77645  24823174.815    24823174.6644   24823193.3904
        -0.000          -0.000
 -19282065.152 9 -14550687.04149  21199809.294    21199808.7184   21199817.3674
        -0.000          -0.000
 -14981316.637 9 -10026753.29147  22732478.608    22732477.8234   22732488.3254
        -0.000          -0.000
   5482957.122 9   4278131.71346  23120039.437    23120039.3894   23120048.4284
        -0.000          -0.000
 99  5  6  0 42  0.0010000  0  8  3 22 17  6 29 23 21 26             0.001578696
  -7016603.559 9  -5223797.96146  23758623.096    23758622.9484   23758633.3344
        -0.000          -0.000
   -860305.725 9   -139561.65546  24585333.728    24585333.1884   24585347.9264
        -0.000          -0.000
 -18983813.813 9 -13960673.22549  21242318.092    21242317.3704   21242326.3364
        -0.000          -0.000
  -8926069.272 9  -6499511.59347  22854051.094    22854050.8894   22854061.6204
        -0.000          -0.000
  -3411869.481 8  -2183663.96545  24804604.363    24804603.8224   24804622.1174
        -0.000          -0.000
 -19260658.979 9 -14534006.88549  21203882.820    21203882.2484   21203890.7424
        -0.000          -0.000
 -15023161.363 9 -10059359.47647  22724516.011    22724515.0464   22724525.2184
        -0.000          -0.000
   5564956.270 9   4342027.15446  23135643.217    23135643.1784   23135652.5744
        -0.000          -0.000
 99  5  6  0 42 30.0010000  0  8  3 22 17  6 29 23 21 26             0.001585640
  -7095478.711 9  -5285259.02546  23743613.490    23743613.2394   23743623.7464
        -0.000          -0.000
   -794105.593 9    -87977.25846  24597931.360    24597930.6974   24597945.4374
        -0.000          -0.000
 -18968778.786 9 -13948957.61549  21245179.178    21245178.4294   21245187.3734
        -0.000          -0.000
  -8818139.720 9  -6415410.76047  22874589.512    22874589.3314   22874600.0424
        -0.000          -0.000
  -3509403.880 8  -2259664.30045  24786043.886    24786043.0294   24786061.3664
        -0.000          -0.000
 -19238908.725 9 -14517058.61949  21208021.761    21208021.1434   21208029.6204
        -0.000          -0.000
 -15064729.218 9 -10091749.92247  22716605.626    22716604.7824   22716614.8674
        -0.000          -0.000
   5647446.014 9   4406304.87446  23151340.293    23151340.3314   23151350.0434
        -0.000          -0.000
 99  5  6  0 43  0.0010000  0  8  3 22 17  6 29 23 21 26             0.001592566
  -7174090.981 9  -5346515.25246  23728653.816    23728653.7554   23728664.2474
        -0.000          -0.000
   -727673.013 9    -36211.74046  24610573.274    24610572.5554   24610587.3294
        -0.000          -0.000
 -18953541.653 9 -13937084.53348  21248078.660    21248077.9324   21248086.8554
        -0.000          -0.000
  -8709969.488 9  -6331122.35847  22895173.664    22895173.4714   22895184.4124
        -0.000          -0.000
  -3606930.378 9  -2335658.49145  24767484.763    24767484.2184   24767502.3304
        -0.000          -0.000
 -19216835.837 9 -14499858.94449  21212222.067    21212221.4654   21212229.9354
        -0.000          -0.000
 -15106039.371 9 -10123939.55747  22708744.323    22708743.5544   22708753.6384
        -0.000          -0.000
   5730398.981 9   4470943.49846  23167125.800    23167125.9024   23167135.3904
        -0.000          -0.000
 99  5  6  0 43 30.0010000  0  8  3 22 17  6 29 23 21 26             0.001599489
  -7252414.129 9  -5407546.17446  23713749.352    23713749.2634   23713759.7474
        -0.000          -0.000
   -660992.133 9     15747.25846  24623262.092    24623261.5604   24623276.6564
        -0.000          -0.000
 -18938081.630 9 -13925037.76548  21251020.605    21251019.8754   21251028.8644
        -0.000          -0.000
  -8601531.600 9  -6246625.40547  22915808.626    22915808.5554   22915819.8114
        -0.000          -0.000
  -3704450.683 9  -2411647.83145  24748926.856    24748926.5454   24748944.4504
        -0.000          -0.000
 -19194444.912 9 -14482411.45049  21216482.906    21216482.2654   21216490.7654
        -0.000          -0.000
 -15147098.505 9 -10155933.59947  22700931.060    22700930.2344   22700940.2694
        -0.000          -0.000
   5813819.467 9   4535946.43146  23183000.351    23183000.3834   23183009.6314
        -0.000          -0.000
 99  5  6  0 44  0.0010000  0  8  3 22 17  6 29 23 21 26             0.001606402
  -7330437.870 9  -5468343.79146  23698902.082    23698901.8214   23698912.2574
        -0.000          -0.000
   -594046.630 9     67912.45846  24636001.414    24636000.9614   24636015.9274
        -0.000          -0.000
 -18922371.397 9 -13912796.02648  21254010.056    21254009.3264   21254018.4254
        -0.000          -0.000
  -8492787.927 9  -6161890.17547  22936502.139    22936502.0294   22936513.3154
        -0.000          -0.000
  -3801963.921 8  -2487631.61845  24730370.322    24730369.9734   24730387.9274
        -0.000          -0.000
 -19171726.267 9 -14464708.59549  21220805.904    21220805.3624   21220813.8944
        -0.000          -0.000
 -15187893.069 9 -10187721.49147  22693167.889    22693167.0684   22693177.2914
        -0.000          -0.000
   5897687.356 9   4601298.02446  23198959.984    23198959.9744   23198969.2904
        -0.000          -0.000
 99  5  6  0 44 30.0010000  0  8  3 22 17  6 29 23 21 26             0.001613322
  -7408129.896 9  -5528882.92446  23684118.019    23684117.5964   23684127.9314
        -0.000          -0.000
   -526816.453 9    120299.46246  24648795.780    24648794.8244   24648809.5284
        -0.000          -0.000
 -18906385.874 9 -13900339.77248  21257051.939    21257051.2504   21257060.3154
        -0.000          -0.000
  -8383704.867 9  -6076890.48647  22957260.425    22957260.2094   22957271.3554
        -0.000          -0.000
  -3899451.405 8  -2563595.35745  24711818.431    24711818.0664   24711836.2214
        -0.000          -0.000
 -19148673.655 9 -14446745.50049  21225192.711    21225192.1754   21225200.5954
        -0.000          -0.000
 -15228404.645 9 -10219288.86447  22685458.538    22685457.7944   22685468.1954
        -0.000          -0.000
   5982009.856 9   4667003.86046  23215006.074    23215006.0364   23215015.5824
        -0.000          -0.000
 99  5  6  0 45  0.0010000  0  8  3 22 17  6 29 23 21 26             0.001620229
  -7485529.941 9  -5589194.54246  23669389.318    23669388.9234   23669399.2864
        -0.000          -0.000
   -459364.211 9    172859.52046  24661631.774    24661630.6294   24661645.3124
        -0.000          -0.000
 -18890165.170 9 -13887700.26548  21260138.745    21260138.0034   21260146.9854
        -0.000          -0.000
  -8274317.899 9  -5991654.00447  22978076.344    22978076.0794   22978087.0904
        -0.000          -0.000
  -3996934.053 9  -2639555.35445  24693267.794    24693267.5374   24693285.2954
        -0.000          -0.000
 -19125343.152 9 -14428565.87249  21229632.457    21229631.8714   21229640.1774
        -0.000          -0.000
 -15268675.429 9 -10250668.61547  22677795.190    22677794.4004   22677805.0394
        -0.000          -0.000
   6066752.338 9   4733036.93046  23231131.750    23231131.8634   23231141.5594
        -0.000          -0.000
 99  5  6  0 45 30.0010000  0  8  3 22 17  6 29 23 21 26             0.001627150
  -7562612.690 9  -5649258.92446  23654720.896    23654720.5084   23654731.0154
        -0.000          -0.000
   -391663.165 9    225613.49746  24674514.456    24674513.5304   24674528.3514
        -0.000          -0.000
 -18873680.204 9 -13874854.84848  21263275.725    21263274.9614   21263283.9734
        -0.000          -0.000
  -8164587.251 9  -5906149.72347  22998957.475    22998957.1444   22998968.0984
        -0.000          -0.000
  -4094353.149 9  -2715465.72645  24674729.619    24674729.1514   24674746.3924
        -0.000          -0.000
 -19101705.963 9 -14410147.26349  21234130.589    21234129.9874   21234138.1694
        -0.000          -0.000
 -15308681.398 9 -10281842.01247  22670182.312    22670181.5104   22670192.0664
        -0.000          -0.000
   6151948.136 9   4799423.23146  23247343.841    23247344.0194   23247353.6564
        -0.000          -0.000
 99  5  6  0 46  0.0010000  0  8  3 22 17  6 29 23 21 26             0.001634050
  -7639447.957 9  -5709130.46246  23640099.579    23640099.2304   23640109.8054
        -0.000          -0.000
   -323774.757 9    278513.42146  24687433.228    24687432.3654   24687447.0434
        -0.000          -0.000
 -18856990.523 9 -13861849.91948  21266451.603    21266450.8724   21266459.8814
        -0.000          -0.000
  -8054579.465 9  -5820429.50947  23019891.209    23019890.8714   23019901.8734
        -0.000          -0.000
  -4191755.965 8  -2791363.41045  24656194.195    24656193.6134   24656210.9144
        -0.000          -0.000
 -19077827.381 9 -14391540.56349  21238674.598    21238673.9424   21238682.0914
        -0.000          -0.000
 -15348478.052 9 -10312852.30647  22662608.992    22662608.3834   22662618.8364
        -0.000          -0.000
   6237538.105 9   4866116.71446  23263630.877    23263631.0844   23263640.6834
        -0.000          -0.000
 99  5  6  0 46 30.0010000  0  8  3 22 17  6 29 23 21 26             0.001640958
  -7716010.754 9  -5768789.70147  23625529.972    23625529.8464   23625540.5314
        -0.000          -0.000
   -255688.940 9    331567.14946  24700389.949    24700388.9474   24700403.2984
        -0.000          -0.000
 -18840085.641 9 -13848677.27748  21269668.476    21269667.7754   21269676.6954
        -0.000          -0.000
  -7944300.137 9  -5734497.69047  23040876.491    23040876.2234   23040887.3784
        -0.000          -0.000
  -4289111.855 8  -2867224.58645  24637667.129    24637666.9404   24637684.2674
        -0.000          -0.000
 -19053706.172 9 -14372744.80149  21243264.689    21243264.0544   21243272.1584
        -0.000          -0.000
 -15388051.615 9 -10343688.77247  22655078.263    22655077.7064   22655088.0714
        -0.000          -0.000
   6323569.213 9   4933153.92846  23280001.874    23280002.1204   23280011.7904
        -0.000          -0.000
 99  5  6  0 47  0.0010000  0  8  3 22 17  6 29 23 21 26             0.001647892
  -7792269.431 9  -5828211.94647  23611018.518    23611018.3324   23611029.1574
        -0.000          -0.000
   -187381.394 9    384793.67145  24713388.518    24713387.3084   24713401.7254
        -0.000          -0.000
 -18822935.305 9 -13835313.37448  21272932.121    21272931.3764   21272940.1964
        -0.000          -0.000
  -7833735.349 9  -5648343.41447  23061916.045    23061915.7694   23061927.1564
        -0.000          -0.000
  -4386386.672 8  -2943022.55545  24619155.617    24619155.3944   24619173.2474
        -0.000          -0.000
 -19029307.277 9 -14353732.65449  21247907.575    21247906.9804   21247915.0444
        -0.000          -0.000
 -15427373.211 9 -10374328.88147  22647595.479    22647594.8174   22647605.3264
        -0.000          -0.000
   6410068.176 9   5000555.67946  23296462.295    23296462.4644   23296472.1464
        -0.000          -0.000
 99  5  6  0 47 30.0010000  0  8  3 22 17  6 29 23 21 26             0.001654837
  -7868221.914 9  -5887395.58847  23596565.424    23596565.1584   23596576.0234
        -0.000          -0.000
   -118860.409 8    438186.51245  24726427.269    24726426.1924   24726440.9194
        -0.000          -0.000
 -18805548.283 9 -13821765.06048  21276240.665    21276239.9364   21276248.8484
        -0.000          -0.000
  -7722915.721 9  -5561990.55847  23083004.068    23083003.8494   23083015.4294
        -0.000          -0.000
  -4483593.873 8  -3018767.85945  24600657.441    24600657.0704   24600675.0774
        -0.000          -0.000
 -19004634.540 9 -14334507.13649  21252602.565    21252601.9804   21252610.0854
        -0.000          -0.000
 -15466445.538 9 -10404774.77447  22640160.072    22640159.4844   22640170.0534
        -0.000          -0.000
   6497013.571 9   5068305.31046  23313007.656    23313007.7804   23313017.2964
        -0.000          -0.000
 99  5  6  0 48  0.0010000  0  8  3 22 17  6 29 23 21 26             0.001661775
  -7943874.333 9  -5946345.42547  23582169.207    23582168.8844   23582179.8194
        -0.000          -0.000
    -50159.618 9    491719.44745  24739500.588    24739499.6504   24739514.5294
        -0.000          -0.000
 -18787953.312 9 -13808054.69548  21279588.887    21279588.1584   21279597.0254
        -0.000          -0.000
  -7611880.541 9  -5475469.75947  23104133.407    23104133.2514   23104144.8304
        -0.000          -0.000
  -4580767.254 8  -3094486.82545  24582165.668    24582165.1734   24582183.3774
        -0.000          -0.000
 -18979728.407 9 -14315099.74849  21257342.071    21257341.4894   21257349.6054
        -0.000          -0.000
 -15505281.899 9 -10435036.78247  22632769.801    22632769.1904   22632779.6024
        -0.000          -0.000
   6584368.842 9   5136374.32046  23329631.081    23329631.1224   23329640.4564
        -0.000          -0.000
 99  5  6  0 48 30.0010000  0  8  3 22 17  6 29 23 21 26             0.001668723
  -8019178.529 9  -6005023.91647  23567839.138    23567838.8754   23567849.8054
        -0.000          -0.000
     18745.517 9    545411.62346  24752613.314    24752612.1134   24752626.8854
        -0.000          -0.000
 -18770111.192 9 -13794151.73648  21282984.133    21282983.3974   21282992.1544
        -0.000          -0.000
  -7500597.093 9  -5388755.51047  23125310.159    23125309.9504   23125321.5604
        -0.000          -0.000
  -4677872.804 8  -3170152.95945  24563686.207    24563685.9954   24563704.6284
        -0.000          -0.000
 -18954549.437 9 -14295479.75849  21262133.600    21262132.9024   21262140.9934
        -0.000          -0.000
 -15543835.338 9 -10465078.35248  22625433.342    22625432.7194   22625443.1844
        -0.000          -0.000
   6672161.832 9   5204784.41746  23346337.553    23346337.5384   23346346.9864
        -0.000          -0.000
 99  5  6  0 49  0.0010000  0  8  3 22 17  6 29 23 21 26             0.001675684
  -8094113.042 9  -6063414.35747  23553579.342    23553579.2164   23553590.2064
        -0.000          -0.000
     87872.177 9    599276.39846  24765767.756    24765766.6864   24765781.4074
        -0.000          -0.000
 -18751993.505 9 -13780034.05048  21286431.952    21286431.2304   21286439.9384
        -0.000          -0.000
  -7389021.868 9  -5301813.89147  23146542.330    23146542.1024   23146553.7054
        -0.000          -0.000
  -4774898.208 8  -3245756.63245  24545222.276    24545222.2674   24545241.0824
        -0.000          -0.000
 -18929064.003 9 -14275620.96849  21266983.285    21266982.5954   21266990.7164
        -0.000          -0.000
 -15582082.681 9 -10494881.39848  22618154.960    22618154.4674   22618164.9484
        -0.000          -0.000
   6760405.024 9   5273545.32846  23363129.454    23363129.4424   23363139.1234
        -0.000          -0.000
 99  5  6  0 49 30.0010000  0  8  3 22 17  6 29 23 21 26             0.001682639
  -8168729.341 9  -6121556.82747  23539380.346    23539380.2364   23539391.0654
        -0.000          -0.000
    157176.153 9    653279.32046  24778955.831    24778954.9664   24778969.5874
        -0.000          -0.000
 -18733653.957 9 -13765743.48349  21289921.936    21289921.1544   21289929.9274
        -0.000          -0.000
  -7277190.161 9  -5214672.42847  23167823.316    23167823.0704   23167834.7194
        -0.000          -0.000
  -4871903.851 8  -3321344.93545  24526762.681    24526762.3464   24526781.0604
        -0.000          -0.000
 -18903326.725 9 -14255565.94549  21271880.828    21271880.1944   21271888.3304
        -0.000          -0.000
 -15620087.120 9 -10524495.15748  22610923.036    22610922.4044   22610932.7634
        -0.000          -0.000
   6849067.644 9   5342633.06646  23380001.356    23380001.2034   23380011.1664
        -0.000          -0.000
 99  5  6  0 50  0.0010000  0  8  3 22 17  6 29 23 21 26             0.001689610
  -8243006.093 9  -6179434.71547  23525246.040    23525245.8224   23525256.5014
        -0.000          -0.000
    226692.183 9    707447.52246  24792184.168    24792183.4884   24792198.1314
        -0.000          -0.000
 -18715063.558 9 -13751257.43849  21293459.659    21293458.9054   21293467.6174
        -0.000          -0.000
  -7165068.369 9  -5127304.93147  23189159.323    23189159.1204   23189170.9234
        -0.000          -0.000
  -4968863.224 8  -3396897.16345  24508311.918    24508311.2104   24508329.8714
        -0.000          -0.000
 -18877303.974 9 -14235288.46849  21276832.855    21276832.2054   21276840.2684
        -0.000          -0.000
 -15657838.545 9 -10553911.77448  22603738.957    22603738.4184   22603748.7544
        -0.000          -0.000
   6938185.954 8   5412075.90645  23396959.549    23396959.5624   23396969.9704
        -0.000          -0.000
 99  5  6  0 50 30.0010000  0  8  3 22 17  6 29 23 21 26             0.001696570
  -8316996.809 9  -6237089.72347  23511166.074    23511165.8694   23511176.4524
        -0.000          -0.000
    296387.015 9    761755.00946  24805446.920    24805446.3154   24805460.8214
        -0.000          -0.000
 -18696239.971 9 -13736589.69049  21297041.805    21297040.9854   21297049.7034
        -0.000          -0.000
  -7052695.901 9  -5039742.10246  23210542.976    23210542.8264   23210554.8384
        -0.000          -0.000
  -5065801.934 8  -3472433.34845  24489864.419    24489863.9714   24489882.3894
        -0.000          -0.000
 -18851003.407 9 -14214794.51349  21281837.752    21281837.0314   21281845.0554
        -0.000          -0.000
 -15695380.982 9 -10583165.54547  22596594.687    22596594.2634   22596604.6614
        -0.000          -0.000
   7027733.503 8   5481853.16345  23413999.708    23413999.7464   23414010.2974
        -0.000          -0.000
 99  5  6  0 51  0.0010000  0  8  3 22 17  6 29 23 21 26             0.001703518
  -8390718.371 9  -6294535.00347  23497137.260    23497137.0504   23497147.6074
        -0.000          -0.000
    366267.232 9    816206.96546  24818745.538    24818744.6394   24818758.8564
        -0.000          -0.000
 -18677198.310 9 -13721752.01948  21300665.269    21300664.4474   21300673.1664
        -0.000          -0.000
  -6940088.581 9  -4951996.27946  23231971.658    23231971.4004   23231983.3804
        -0.000          -0.000
  -5162718.905 9  -3547952.58445  24471421.195    24471421.0184   24471439.1674
        -0.000          -0.000
 -18824426.959 9 -14194085.59349  21286894.990    21286894.3204   21286902.3644
        -0.000          -0.000
 -15732732.693 9 -10612270.70247  22589486.993    22589486.4444   22589496.7984
        -0.000          -0.000
   7117698.331 9   5551955.56545  23431119.439    23431119.4834   23431130.2294
        -0.000          -0.000
 99  5  6  0 51 30.0010000  0  8  3 22 17  6 29 23 21 26             0.001710479
  -8464114.542 9  -6351726.74147  23483170.523    23483170.2404   23483180.7234
        -0.000          -0.000
    436388.108 9    870846.44646  24832089.953    24832088.6424   24832102.6624
        -0.000          -0.000
 -18657890.127 9 -13706706.65048  21304339.513    21304338.7334   21304347.3594
        -0.000          -0.000
  -6827212.849 9  -4864041.33246  23253451.462    23253451.1304   23253463.0274
        -0.000          -0.000
  -5259547.181 9  -3623402.72645  24452995.104    24452994.7754   24453012.8784
        -0.000          -0.000
 -18797519.062 9 -14173118.38549  21292015.415    21292014.7154   21292022.7864
        -0.000          -0.000
 -15769837.629 9 -10641183.57448  22582425.973    22582425.5224   22582435.8974
        -0.000          -0.000
   7208110.596 9   5622406.63146  23448324.589    23448324.7224   23448335.2444
        -0.000          -0.000
 99  5  6  0 52  0.0010000  0  8  3 22 17  6 29 23 21 26             0.001717449
  -8537163.470 9  -6408647.89947  23469269.750    23469269.4434   23469279.8654
        -0.000          -0.000
    506737.629 9    925664.10846  24845477.277    24845475.8254   24845490.0434
        -0.000          -0.000
 -18638303.878 9 -13691444.61948  21308066.528    21308065.7344   21308074.4744
        -0.000          -0.000
  -6714060.077 9  -4775870.48447  23274983.761    23274983.5244   23274995.5424
        -0.000          -0.000
  -5356259.452 8  -3698762.48345  24434590.824    24434590.5264   24434608.6984
        -0.000          -0.000
 -18770268.630 9 -14151884.28449  21297200.881    21297200.1854   21297208.4254
        -0.000          -0.000
 -15806671.518 9 -10669885.23248  22575416.749    22575416.3254   22575426.6684
        -0.000          -0.000
   7298956.083 9   5693195.26846  23465612.410    23465612.3554   23465622.6634
        -0.000          -0.000
 99  5  6  0 52 30.0010000  0  8  3 22 17  6 29 23 21 26             0.001724400
  -8609880.317 9  -6465310.28947  23455432.041    23455431.7634   23455442.2034
        -0.000          -0.000
    577271.145 9    980625.16946  24858899.345    24858897.8234   24858912.2694
        -0.000          -0.000
 -18618484.734 9 -13676001.10648  21311837.711    21311836.9934   21311845.8784
        -0.000          -0.000
  -6600665.107 9  -4687510.88747  23296562.280    23296562.1154   23296574.1684
        -0.000          -0.000
  -5452899.501 9  -3774065.98245  24416200.142    24416200.1074   24416218.1304
        -0.000          -0.000
 -18742726.029 9 -14130422.50949  21302441.923    21302441.2874   21302449.6104
        -0.000          -0.000
 -15843254.780 9 -10698391.60048  22568455.267    22568454.7144   22568464.9374
        -0.000          -0.000
   7390182.332 9   5764280.58646  23482972.376    23482972.3764   23482982.3634
        -0.000          -0.000
 99  5  6  0 53  0.0010000  0  8  3 22 17  6 29 23 21 26             0.001731346
  -8682235.764 9  -6521691.08147  23441663.140    23441662.9144   23441673.2754
        -0.000          -0.000
    647992.480 9   1035732.55546  24872356.888    24872355.4774   24872370.2324
        -0.000          -0.000
 -18598436.976 9 -13660379.46148  21315652.648    21315651.9314   21315660.8344
        -0.000          -0.000
  -6487008.398 9  -4598947.36146  23318190.777    23318190.5824   23318202.5104
        -0.000          -0.000
  -5549470.770 8  -3849315.89945  24397822.751    24397822.9094   24397840.4944
        -0.000          -0.000
 -18714903.103 9 -14108742.29249  21307736.431    21307735.7924   21307744.1734
        -0.000          -0.000
 -15879573.011 9 -10726691.44548  22561544.151    22561543.5194   22561553.5224
        -0.000          -0.000
   7481793.629 8   5835665.96546  23500405.512    23500405.2984   23500415.2904
        -0.000          -0.000
 99  5  6  0 53 30.0010000  0  8  3 22 17  6 29 23 21 26             0.001738261
  -8754260.162 9  -6577813.91147  23427957.486    23427957.1034   23427967.3764
        -0.000          -0.000
    718837.677 9   1090936.42446  24885838.180    24885836.8454   24885851.7754
        -0.000          -0.000
 -18578176.405 9 -13644591.98248  21319508.187    21319507.4424   21319516.2934
        -0.000          -0.000
  -6373119.552 9  -4510202.94546  23339863.497    23339863.2384   23339874.7934
        -0.000          -0.000
  -5646009.160 9  -3924540.16945  24379451.626    24379451.7774   24379469.4314
        -0.000          -0.000
 -18686847.072 9 -14086880.45149  21313075.203    21313074.5864   21313083.1854
        -0.000          -0.000
 -15915663.643 9 -10754813.94648  22554676.304    22554675.6434   22554685.5034
        -0.000          -0.000
   7573760.446 9   5907328.44546  23517905.797    23517905.7934   23517915.8244
        -0.000          -0.000
 99  5  6  0 54  0.0010000  0  8  3 22 17  6 29 23 21 26             0.001745184
  -8825915.291 9  -6633648.99047  23414321.881    23414321.4934   23414331.7454
        -0.000          -0.000
    789846.596 8   1146267.90346  24899350.168    24899349.1694   24899364.6034
        -0.000          -0.000
 -18557645.573 9 -13628593.90648  21323415.067    21323414.2884   21323423.1404
        -0.000          -0.000
  -6258965.793 9  -4421252.10146  23361586.577    23361586.2704   23361597.3684
        -0.000          -0.000
  -5742468.074 8  -3999702.53845  24361095.582    24361095.8054   24361113.5184
        -0.000          -0.000
 -18658533.166 9 -14064817.65949  21318463.152    21318462.5654   21318471.2724
        -0.000          -0.000
 -15951492.890 9 -10782732.77948  22547858.038    22547857.4734   22547867.3374
        -0.000          -0.000
   7666137.339 9   5979310.39846  23535484.393    23535484.3844   23535494.5774
        -0.000          -0.000
 99  5  6  0 54 30.0010000  0  8  3 22 17  6 29 23 21 26             0.001752124
  -8897205.736 9  -6689199.90247  23400755.692    23400755.2454   23400765.4944
        -0.000          -0.000
    861051.208 9   1201751.84946  24912899.706    24912898.8684   24912914.7104
        -0.000          -0.000
 -18536824.331 9 -13612369.54648  21327377.119    21327376.4144   21327385.3624
        -0.000          -0.000
  -6144556.795 9  -4332102.36646  23383358.103    23383357.6884   23383368.7244
        -0.000          -0.000
  -5838837.242 8  -4074794.96845  24342756.691    24342756.8714   24342774.6254
        -0.000          -0.000
 -18629953.525 9 -14042547.79149  21323901.808    21323901.1804   21323909.8204
        -0.000          -0.000
 -15987054.963 9 -10810443.42048  22541090.498    22541090.1984   22541100.1114
        -0.000          -0.000
   7758942.857 9   6051626.34745  23553144.642    23553144.7074   23553154.7094
        -0.000          -0.000
 99  5  6  0 55  0.0010000  0  8  3 22 17  6 29 23 21 26             0.001759064
  -8968185.698 9  -6744508.88947  23387248.630    23387248.1654   23387258.2894
        -0.000          -0.000
    932411.211 9   1257356.90046  24926480.018    24926478.6774   24926494.3274
        -0.000          -0.000
 -18515734.022 9 -13595935.53049  21331390.546    21331389.7764   21331398.8034
        -0.000          -0.000
  -6029931.011 9  -4242783.72646  23405170.575    23405170.2084   23405181.4554
        -0.000          -0.000
  -5935128.539 8  -4149826.72145  24324432.761    24324432.7374   24324450.3914
        -0.000          -0.000
 -18601136.593 9 -14020093.03149  21329385.457    21329384.8544   21329393.5124
        -0.000          -0.000
 -16022389.708 9 -10837976.92748  22534366.360    22534366.1334   22534376.0404
        -0.000          -0.000
   7852154.529 9   6124258.73545  23570882.206    23570882.2684   23570891.7404
        -0.000          -0.000
 99  5  6  0 55 30.0010000  0  8  3 22 17  6 29 23 21 26             0.001766045
  -9038790.462 9  -6799525.50847  23373812.910    23373812.4964   23373822.6114
        -0.000          -0.000
   1003998.659 9   1313139.18646  24940103.096    24940101.6964   24940117.1434
        -0.000          -0.000
 -18494304.987 9 -13579237.57548  21335468.297    21335467.6034   21335476.5424
        -0.000          -0.000
  -5915031.917 9  -4153252.13046  23427035.242    23427034.9014   23427046.2044
        -0.000          -0.000
  -6031262.606 8  -4224735.95745  24306138.546    24306138.6514   24306155.9954
        -0.000          -0.000
 -18572007.681 9 -13997395.17749  21334928.556    21334927.9474   21334936.6794
        -0.000          -0.000
 -16057434.678 9 -10865284.63548  22527697.642    22527697.2504   22527707.0284
        -0.000          -0.000
   7945838.947 9   6197259.54145  23588710.025    23588709.9664   23588719.1844
        -0.000          -0.000
 99  5  6  0 56  0.0010000  0  8  3 22 17  6 29 23 21 26             0.001773026
  -9109078.427 9  -6854295.26247  23360437.464    23360437.0464   23360447.1794
        -0.000          -0.000
   1075768.130 9   1369063.31446  24953760.098    24953758.8824   24953774.5184
        -0.000          -0.000
 -18472629.118 9 -13562347.27648  21339593.094    21339592.3184   21339601.2114
        -0.000          -0.000
  -5799937.881 9  -4063568.62046  23448937.213    23448936.7484   23448948.0094
        -0.000          -0.000
  -6127317.675 8  -4299583.64445  24287859.670    24287859.7254   24287876.7914
        -0.000          -0.000
 -18542634.981 9 -13974507.35349  21340517.999    21340517.4174   21340526.1224
        -0.000          -0.000
 -16092249.159 9 -10892412.74048  22521072.649    22521072.2364   22521082.0084
        -0.000          -0.000
   8039918.236 9   6270568.05545  23606612.913    23606612.8114   23606621.7994
        -0.000          -0.000
 99  5  6  0 56 30.0010000  0  8  3 22 17  6 29 23 21 26             0.001779994
  -9179041.548 9  -6908811.89447  23347123.596    23347123.3634   23347133.6584
        -0.000          -0.000
   1147698.960 9   1425113.15745  24967447.682    24967446.6064   24967462.3654
        -0.000          -0.000
 -18450726.931 9 -13545280.63848  21343760.826    21343760.1124   21343769.0414
        -0.000          -0.000
  -5684641.077 9  -3973727.12446  23470877.647    23470877.1304   23470888.3804
        -0.000          -0.000
  -6223304.724 8  -4374378.35945  24269593.617    24269593.8514   24269610.7134
        -0.000          -0.000
 -18513007.078 9 -13951420.66049  21346156.049    21346155.4444   21346164.0154
        -0.000          -0.000
 -16126818.834 9 -10919350.08648  22514494.257    22514493.8004   22514503.6084
        -0.000          -0.000
   8134375.798 8   6344171.29845  23624587.791    23624587.8184   23624596.8634
        -0.000          -0.000
 99  5  6  0 57  0.0010000  0  8  3 22 17  6 29 23 21 26             0.001786962
  -9248639.094 9  -6963043.67847  23333879.509    23333879.2824   23333889.5734
        -0.000          -0.000
   1219797.072 8   1481293.37545  24981167.344    24981166.2894   24981182.0954
        -0.000          -0.000
 -18428576.172 9 -13528020.30748  21347976.077    21347975.3344   21347984.2284
        -0.000          -0.000
  -5569107.544 9  -3883701.14646  23492862.917    23492862.5094   23492874.0134
        -0.000          -0.000
  -6319192.941 9  -4449096.04346  24251346.666    24251346.6724   24251363.6064
        -0.000          -0.000
 -18483103.857 9 -13928119.43849  21351846.527    21351845.8854   21351854.4014
        -0.000          -0.000
 -16161119.289 9 -10946077.66448  22507967.072    22507966.6194   22507976.3734
        -0.000          -0.000
   8229226.965 8   6418081.23045  23642637.615    23642637.5324   23642646.8124
        -0.000          -0.000
 99  5  6  0 57 30.0010000  0  8  3 22 17  6 29 23 21 26             0.001793901
  -9317894.278 9  -7017008.66747  23320700.634    23320700.3854   23320710.6634
        -0.000          -0.000
   1292019.162 8   1537570.15645  24994910.330    24994909.4444   24994925.4204
        -0.000          -0.000
 -18406215.263 9 -13510596.21148  21352231.192    21352230.4294   21352239.3284
        -0.000          -0.000
  -5453385.521 9  -3793528.29946  23514884.093    23514883.6654   23514895.4474
        -0.000          -0.000
  -6415020.741 9  -4523766.66846  24233111.431    24233111.1164   24233127.8424
        -0.000          -0.000
 -18452959.696 9 -13904630.47449  21357582.828    21357582.1144   21357590.6644
        -0.000          -0.000
 -16195186.251 9 -10972623.27848  22501484.406    22501483.9264   22501493.5174
        -0.000          -0.000
   8324418.484 8   6492256.40845  23660752.057    23660752.1124   23660761.3234
        -0.000          -0.000
 99  5  6  0 58  0.0010000  0  8  3 22 17  6 29 23 21 26             0.001800837
  -9386753.723 9  -7070665.30247  23307596.986    23307596.7074   23307606.9734
        -0.000          -0.000
   1364404.556 9   1593974.21845  25008684.963    25008684.2574   25008699.8744
        -0.000          -0.000
 -18383589.115 9 -13492965.44648  21356536.666    21356535.9584   21356544.8094
        -0.000          -0.000
  -5337424.677 9  -3703169.37146  23536950.638    23536950.3784   23536962.3284
        -0.000          -0.000
  -6510721.055 9  -4598337.96146  24214899.812    24214899.7144   24214916.2284
        -0.000          -0.000
 -18422525.956 9 -13880915.86849  21363374.139    21363373.4344   21363382.0274
        -0.000          -0.000
 -16228965.495 9 -10998944.70448  22495056.554    22495055.9774   22495065.5404
        -0.000          -0.000
   8419987.285 8   6566725.55845  23678938.142    23678938.3204   23678947.6424
        -0.000          -0.000
 99  5  6  0 58 30.0010000  0  8  3 22 17  6 29 23 21 26             0.001807756
  -9455244.811 9  -7124034.89847  23294563.385    23294563.1604   23294573.4214
        -0.000          -0.000
   1436912.513 9   1650473.77545  25022483.343    25022482.3664   25022497.7404
        -0.000          -0.000
 -18360701.259 9 -13475130.76848  21360892.038    21360891.3534   21360900.2314
        -0.000          -0.000
  -5221249.096 9  -3612643.10146  23559058.164    23559057.9344   23559069.8064
        -0.000          -0.000
  -6606297.935 9  -4672813.07846  24196711.791    24196711.8654   24196728.1574
        -0.000          -0.000
 -18391825.193 9 -13856993.19249  21369216.314    21369215.6104   21369224.1154
        -0.000          -0.000
 -16262494.534 9 -11025071.16648  22488676.204    22488675.6044   22488685.2834
        -0.000          -0.000
   8515917.205 8   6641476.14045  23697192.744    23697192.8964   23697202.3384
        -0.000          -0.000
 99  5  6  0 59  0.0010000  0  8  3 22 17  6 29 23 21 26             0.001814671
  -9523374.878 9  -7177123.17247  23281598.692    23281598.4754   23281608.5054
        -0.000          -0.000
   1509553.098 8   1707076.68245  25036306.428    25036305.4374   25036320.9914
        -0.000          -0.000
 -18337538.955 9 -13457082.23048  21365299.651    21365298.9614   21365307.9404
        -0.000          -0.000
  -5104872.436 9  -3521960.15846  23581204.070    23581203.7424   23581215.7214
        -0.000          -0.000
  -6701752.031 9  -4747192.51446  24178547.437    24178547.5304   24178563.4694
        -0.000          -0.000
 -18360873.527 9 -13832874.99949  21375106.291    21375105.5724   21375113.9224
        -0.000          -0.000
 -16295803.347 9 -11051026.02448  22482337.601    22482337.0424   22482346.8574
        -0.000          -0.000
   8612215.944 8   6716514.11145  23715517.682    23715517.7494   23715528.0654
        -0.000          -0.000
 99  5  6  0 59 30.0010000  0  8  3 22 17  6 29 23 21 26             0.001821571
  -9591158.632 9  -7229941.61647  23268699.733    23268699.5754   23268709.5064
        -0.000          -0.000
   1582321.592 8   1763779.24945  25050153.686    25050152.8304   25050168.6364
        -0.000          -0.000
 -18314114.076 9 -13438829.07648  21369757.234    21369756.5164   21369765.5424
        -0.000          -0.000
  -4988308.622 9  -3431131.35246  23603385.281    23603385.0074   23603397.2164
        -0.000          -0.000
  -6797101.173 9  -4821490.17446  24160402.973    24160403.0414   24160418.6654
        -0.000          -0.000
 -18329683.856 9 -13808571.34449  21381041.522    21381040.7344   21381049.0344
        -0.000          -0.000
 -16328896.236 9 -11076812.62748  22476040.066    22476039.5924   22476049.4374
        -0.000          -0.000
   8708868.915 8   6791828.12445  23733910.092    23733910.5664   23733920.9014
        -0.000          -0.000
 99  5  6  1  0  0.0010000  0  8  3 22 17  6 29 23 21 26             0.001828466
  -9658597.152 9  -7282491.01447  23255866.431    23255866.3794   23255876.2604
        -0.000          -0.000
   1655218.958 9   1820582.21545  25064025.638    25064024.9754   25064040.6634
        -0.000          -0.000
 -18290437.891 9 -13420380.11248  21374262.709    21374262.0064   21374271.0444
        -0.000          -0.000
  -4871561.104 9  -3340159.39946  23625601.376    23625601.3074   23625613.6344
        -0.000          -0.000
  -6892357.088 9  -4895715.19646  24142275.960    24142276.0514   24142291.4834
        -0.000          -0.000
 -18298271.596 9 -13784094.25849  21387018.941    21387018.1764   21387026.5994
        -0.000          -0.000
 -16361770.892 9 -11102429.17248  22469784.120    22469783.6634   22469793.4464
        -0.000          -0.000
   8805889.046 8   6867428.21845  23752372.240    23752371.5254   23752384.2974
        -0.000          -0.000
 99  5  6  1  0 30.0010000  0  8  3 22 17  6 29 23 21 26             0.001835377
  -9725661.655 9  -7334748.97947  23243104.496    23243104.2844   23243114.2524
        -0.000          -0.000
   1728273.575 9   1877507.74646  25077927.927    25077927.1824   25077942.5484
        -0.000          -0.000
 -18266490.343 9 -13401719.69349  21378819.942    21378819.2014   21378828.1614
        -0.000          -0.000
  -4754607.230 9  -3249026.68946  23647857.145    23647856.8994   23647869.1164
        -0.000          -0.000
  -6987510.719 9  -4969860.53346  24124168.313    24124168.5264   24124184.0214
        -0.000          -0.000
 -18266615.630 9 -13759427.27149  21393042.791    21393042.0554   21393050.6204
        -0.000          -0.000
 -16394400.546 9 -11127854.79548  22463574.870    22463574.4214   22463584.0904
        -0.000          -0.000
   8903307.057 8   6943338.27845  23770910.557    23770909.8614   23770921.6264
        -0.000          -0.000
 99  5  6  1  1  0.0010000  0  8  3 22 17  6 29 23 21 26             0.001842310
  -9792336.620 9  -7386703.41847  23230416.594    23230416.3384   23230426.1984
        -0.000          -0.000
   1801509.847 9   1934574.80946  25091864.533    25091863.7744   25091879.1774
        -0.000          -0.000
 -18242274.865 9 -13382850.50449  21383428.168    21383427.4214   21383436.2984
        -0.000          -0.000
  -4637428.346 9  -3157718.64046  23670155.579    23670155.3324   23670167.4214
        -0.000          -0.000
  -7082551.467 9  -5043917.92446  24106082.518    24106082.5874   24106097.9144
        -0.000          -0.000
 -18234705.640 9 -13734562.33449  21399115.081    21399114.3314   21399122.8074
        -0.000          -0.000
 -16426764.759 9 -11153073.58948  22457416.293    22457415.7644   22457425.3474
        -0.000          -0.000
   9001120.555 8   7019556.50844  23789523.962    23789524.0074   23789534.5784
        -0.000          -0.000
 99  5  6  1  1 30.0010000  0  8  3 22 17  6 29 23 21 26             0.001849258
  -9858624.592 9  -7438356.29447  23217802.264    23217802.0204   23217811.8414
        -0.000          -0.000
   1874922.100 9   1991779.02346  25105834.793    25105833.8824   25105849.4274
        -0.000          -0.000
 -18217817.624 9 -13363792.89949  21388082.335    21388081.5394   21388090.2964
        -0.000          -0.000
  -4520026.055 9  -3066236.50346  23692496.322    23692496.2264   23692508.6734
        -0.000          -0.000
  -7177482.166 9  -5117889.54846  24088017.756    24088017.7034   24088032.7044
        -0.000          -0.000
 -18202533.837 9 -13709493.38849  21405237.193    21405236.5034   21405244.7754
        -0.000          -0.000
 -16458854.659 9 -11178078.64148  22451309.736    22451309.2724   22451318.9154
        -0.000          -0.000
   9099315.740 8   7096072.17644  23808209.961    23808209.7094   23808219.9564
        -0.000          -0.000
 99  5  6  1  2  0.0010000  0  8  3 22 17  6 29 23 21 26             0.001856219
  -9924523.774 9  -7489706.22447  23205261.927    23205261.6924   23205271.6174
        -0.000          -0.000
   1948489.072 8   2049103.78945  25119834.598    25119833.3224   25119848.8424
        -0.000          -0.000
 -18193126.914 9 -13344553.39448  21392780.720    21392779.9574   21392788.7284
        -0.000          -0.000
  -4402411.619 9  -2974589.05846  23714877.624    23714877.5424   23714890.3654
        -0.000          -0.000
  -7272307.537 9  -5191779.12246  24069973.117    24069972.7864   24069987.5464
        -0.000          -0.000
 -18170105.873 9 -13684224.84049  21411408.164    21411407.4814   21411415.6654
        -0.000          -0.000
 -16490698.151 9 -11202891.68048  22445250.162    22445249.6574   22445259.3354
        -0.000          -0.000
   9197881.595 8   7172876.62844  23826967.217    23826967.0224   23826975.8274
        -0.000          -0.000
 99  5  6  1  2 30.0010000  0  8  3 22 17  6 29 23 21 26             0.001863192
  -9990018.330 9  -7540740.84947  23192798.199    23192798.2004   23192808.3154
        -0.000          -0.000
   2022223.053 8   2106558.64345  25133864.870    25133864.2974   25133880.1344
        -0.000          -0.000
 -18168167.246 9 -13325104.31348  21397530.373    21397529.6384   21397538.4044
        -0.000          -0.000
  -4284555.223 9  -2882753.08446  23737305.322    23737305.1654   23737318.0864
        -0.000          -0.000
  -7367003.878 9  -5265568.17046  24051952.468    24051952.2714   24051967.0014
        -0.000          -0.000
 -18137400.718 9 -13658740.29149  21417631.900    21417631.1524   21417639.3194
        -0.000          -0.000
 -16522300.866 9 -11227517.09348  22439236.379    22439235.7414   22439245.4444
        -0.000          -0.000
   9296811.695 8   7249964.89744  23845793.353    23845793.2914   23845801.9144
        -0.000          -0.000
 99  5  6  1  3  0.0010000  0  8  3 22 17  6 29 23 21 26             0.001870153
 -10055143.208 9  -7591487.41847  23180405.177    23180405.2494   23180415.3774
        -0.000          -0.000
   2096072.444 8   2164103.49345  25147918.175    25147917.3794   25147933.2454
        -0.000          -0.000
 -18142965.358 9 -13305466.48948  21402326.175    21402325.4094   21402334.1444
        -0.000          -0.000
  -4166495.546 9  -2790758.72346  23759771.930    23759771.5624   23759784.5744
        -0.000          -0.000
  -7461591.578 9  -5339272.57246  24033952.439    24033952.6514   24033967.3774
        -0.000          -0.000
 -18104452.236 9 -13633066.13649  21423901.807    21423901.0824   21423909.2854
        -0.000          -0.000
 -16553707.919 9 -11251990.04848  22433259.620    22433259.0684   22433268.7894
        -0.000          -0.000
   9396063.623 8   7327304.02244  23864680.356    23864679.8764   23864688.9614
        -0.000          -0.000
 99  5  6  1  3 30.0010000  0  8  3 22 17  6 29 23 21 26             0.001877087
 -10119901.208 9  -7641948.12147  23168082.210    23168082.1314   23168092.2094
        -0.000          -0.000
   2169996.602 8   2221706.59345  25161985.203    25161984.6004   25162000.4174
        -0.000          -0.000
 -18117509.240 9 -13285630.55648  21407170.077    21407169.3954   21407178.1584
        -0.000          -0.000
  -4048255.692 9  -2698623.95946  23782272.468    23782272.1154   23782285.2184
        -0.000          -0.000
  -7556076.582 9  -5412896.93346  24015972.415    24015972.5494   24015987.1974
        -0.000          -0.000
 -18071267.587 9 -13607207.95649  21430216.629    21430215.8604   21430224.1434
        -0.000          -0.000
 -16584929.672 9 -11276318.61448  22427318.276    22427317.7114   22427327.4594
        -0.000          -0.000
   9495629.896 8   7404888.13944  23883627.260    23883626.3994   23883635.7534
        -0.000          -0.000
 99  5  6  1  4  0.0010000  0  8  3 22 17  6 29 23 21 26             0.001884007
 -10184274.810 9  -7692109.28547  23155832.138    23155832.1914   23155842.1874
        -0.000          -0.000
   2244006.447 8   2279376.43545  25176068.470    25176068.1904   25176084.2214
        -0.000          -0.000
 -18091764.524 9 -13265569.73948  21412069.025    21412068.4134   21412077.1144
        -0.000          -0.000
  -3929827.024 9  -2606342.05346  23804808.743    23804808.4244   23804821.7184
        -0.000          -0.000
  -7650432.410 9  -5486420.66146  23998016.989    23998016.9194   23998031.5884
        -0.000          -0.000
 -18037855.440 9 -13581172.49949  21436574.623    21436573.8794   21436582.2904
        -0.000          -0.000
 -16615952.325 9 -11300492.02748  22421414.925    22421414.3184   22421424.0454
        -0.000          -0.000
   9595527.127 8   7482730.07044  23902636.784    23902636.7074   23902645.7304
        -0.000          -0.000
 99  5  6  1  4 30.0010000  0  8  3 22 17  6 29 23 21 26             0.001890946
 -10248223.464 9  -7741939.32347  23143663.221    23143663.2254   23143672.9694
        -0.000          -0.000
   2318153.346 8   2337153.09045  25190178.275    25190178.0334   25190194.3114
        -0.000          -0.000
 -18065678.929 9 -13245243.30748  21417033.086    21417032.4274   21417041.0254
        -0.000          -0.000
  -3811163.937 9  -2513877.50046  23827389.533    23827389.3224   23827402.6504
        -0.000          -0.000
  -7744602.435 9  -5559799.63446  23980096.616    23980096.6344   23980111.1884
        -0.000          -0.000
 -18004176.957 9 -13554929.51249  21442983.321    21442982.6024   21442991.1314
        -0.000          -0.000
 -16646708.631 9 -11324457.90548  22415562.095    22415561.5104   22415571.2014
        -0.000          -0.000
   9695805.497 8   7560869.00344  23921718.710    23921719.0384   23921727.9844
        -0.000          -0.000
 99  5  6  1  5  0.0010000  0  8  3 22 17  6 29 23 21 26             0.001897867
 -10311809.210 9  -7791486.57747  23131563.552    23131563.2624   23131572.8024
        -0.000          -0.000
   2392366.164 9   2394981.08745  25204300.905    25204300.5644   25204317.1434
        -0.000          -0.000
 -18039342.246 9 -13224721.22848  21422044.800    21422044.0784   21422052.7104
        -0.000          -0.000
  -3692357.507 9  -2421301.26346  23849997.975    23849997.6994   23850010.8244
        -0.000          -0.000
  -7838657.855 9  -5633089.27646  23962198.521    23962198.4064   23962212.6344
        -0.000          -0.000
 -17970304.225 9 -13528535.15949  21449428.997    21449428.3304   21449436.8444
        -0.000          -0.000
 -16677238.360 9 -11348247.25248  22409752.343    22409751.7824   22409761.5144
        -0.000          -0.000
   9796412.855 8   7639264.32745  23940863.888    23940864.1144   23940872.8594
        -0.000          -0.000
 99  5  6  1  5 30.0010000  0  8  3 22 17  6 29 23 21 26             0.001904796
 -10375001.139 9  -7840726.97347  23119538.381    23119538.1274   23119547.5154
        -0.000          -0.000
   2466688.280 9   2452894.28346  25218444.664    25218444.0444   25218460.6324
        -0.000          -0.000
 -18012726.242 9 -13203981.49548  21427109.617    21427108.9214   21427117.5364
        -0.000          -0.000
  -3573387.748 9  -2328597.77746  23872637.442    23872637.2264   23872650.0094
        -0.000          -0.000
  -7932583.051 9  -5706277.45246  23944325.281    23944324.7894   23944338.7724
        -0.000          -0.000
 -17936220.010 9 -13501976.00249  21455914.871    21455914.2404   21455922.7114
        -0.000          -0.000
 -16707502.657 9 -11371829.76548  22403993.157    22403992.6494   22404002.2574
        -0.000          -0.000
   9897392.076 8   7717949.41045  23960079.309    23960079.5034   23960088.4434
        -0.000          -0.000
 99  5  6  1  6  0.0010000  0  8  3 22 17  6 29 23 21 26             0.001911730
 -10437813.634 9  -7889671.70047  23107585.412    23107585.1814   23107594.5664
        -0.000          -0.000
   2541121.743 8   2510894.26645  25232608.733    25232608.2104   25232625.1814
        -0.000          -0.000
 -17985847.076 9 -13183036.70648  21432224.495    21432223.8004   21432232.4984
        -0.000          -0.000
  -3454257.169 9  -2235768.93946  23895307.307    23895307.2434   23895319.8274
        -0.000          -0.000
  -8026388.163 9  -5779372.05946  23926474.362    23926473.9474   23926488.0104
        -0.000          -0.000
 -17901944.095 9 -13475267.47649  21462437.240    21462436.6444   21462445.1224
        -0.000          -0.000
 -16737509.324 9 -11395211.52048  22398283.191    22398282.5924   22398291.9844
        -0.000          -0.000
   9998731.045 8   7796914.84445  23979363.271    23979363.4134   23979372.3314
        -0.000          -0.000
 99  5  6  1  6 30.0010000  0  8  3 22 17  6 29 23 21 26             0.001918671
 -10500241.472 9  -7938316.70347  23095705.778    23095705.4964   23095714.9494
        -0.000          -0.000
   2615656.204 9   2568972.87345  25246791.784    25246791.3894   25246808.8514
        -0.000          -0.000
 -17958705.861 9 -13161887.71448  21437389.294    21437388.6254   21437397.3564
        -0.000          -0.000
  -3334956.570 9  -2142807.65246  23918009.635    23918009.5464   23918022.0874
        -0.000          -0.000
  -8120071.509 8  -5852371.81046  23908646.227    23908646.1504   23908660.3934
        -0.000          -0.000
 -17867453.740 9 -13448391.85049  21469000.482    21468999.9014   21469008.4054
        -0.000          -0.000
 -16767256.073 9 -11418390.74548  22392622.377    22392621.8414   22392631.1454
        -0.000          -0.000
  10100432.153 8   7876162.42745  23998716.648    23998716.5644   23998725.1434
        -0.000          -0.000
 99  5  6  1  7  0.0010000  0  8  3 22 17  6 29 23 21 26             0.001925636
 -10562255.476 9  -7986639.23947  23083904.774    23083904.5064   23083914.0344
        -0.000          -0.000
   2690324.609 9   2627155.82845  25261001.119    25261000.7314   25261017.5424
        -0.000          -0.000
 -17931276.660 9 -13140514.31648  21442608.908    21442608.2714   21442617.0134
        -0.000          -0.000
  -3215460.299 9  -2049693.87446  23940749.475    23940749.1644   23940761.7344
        -0.000          -0.000
  -8213602.076 9  -5925252.49146  23890847.400    23890847.5014   23890862.1484
        -0.000          -0.000
 -17832707.604 9 -13421316.92049  21475612.441    21475611.8534   21475620.3404
        -0.000          -0.000
 -16796713.780 9 -11441344.74248  22387016.753    22387016.2214   22387025.4454
        -0.000          -0.000
  10202525.847 8   7955715.94244  24018144.564    24018144.4544   24018153.3074
        -0.000          -0.000
 99  5  6  1  7 30.0010000  0  8  3 22 17  6 29 23 21 26             0.001932609
 -10623869.322 9  -8034649.95347  23072179.870    23072179.6824   23072189.2784
        -0.000          -0.000
   2765109.441 9   2685429.54645  25275232.948    25275232.3804   25275248.0184
        -0.000          -0.000
 -17903554.861 9 -13118912.92048  21447884.371    21447883.7094   21447892.2674
        -0.000          -0.000
  -3095766.275 9  -1956426.00646  23963526.604    23963526.3354   23963538.9254
        -0.000          -0.000
  -8306975.166 9  -5998010.47746  23873079.054    23873079.0714   23873093.6064
        -0.000          -0.000
 -17797721.562 9 -13394055.05349  21482269.991    21482269.4054   21482277.9104
        -0.000          -0.000
 -16825914.624 9 -11464098.58048  22381460.178    22381459.5084   22381468.6824
        -0.000          -0.000
  10304969.363 7   8035542.01344  24037638.306    24037638.4714   24037647.9354
        -0.000          -0.000
 99  5  6  1  8  0.0010000  0  8  3 22 17  6 29 23 21 26             0.001939553
 -10685129.198 9  -8082384.87047  23060522.214    23060522.2234   23060531.8344
        -0.000          -0.000
   2839959.682 8   2743754.19545  25289476.867    25289476.2504   25289491.3854
        -0.000          -0.000
 -17875600.416 9 -13097130.24248  21453203.983    21453203.2864   21453211.7844
        -0.000          -0.000
  -2975913.068 9  -1863034.07546  23986333.790    23986333.6974   23986346.3694
        -0.000          -0.000
  -8400222.804 9  -6070670.70246  23855334.441    23855334.4764   23855348.9794
        -0.000          -0.000
 -17762533.190 9 -13366635.52049  21488966.056    21488965.5394   21488973.9794
        -0.000          -0.000
 -16854919.789 9 -11486699.95748  22375940.710    22375940.0194   22375948.9584
        -0.000          -0.000
  10407689.525 7   8115583.64754  24057184.961    24057184.6794          0.0005
        -0.000          -0.000
 99  5  6  1  8 30.0010000  0  8  3 22 17  6 29 23 21 26             0.001946471
 -10746017.545 9  -8129830.27647  23048935.581    23048935.5344   23048945.2124
        -0.000          -0.000
   2914886.422 8   2802138.53845  25303735.080    25303734.4484   25303749.7634
        -0.000          -0.000
 -17847415.098 9 -13075167.64848  21458567.500    21458566.8134   21458575.3014
        -0.000          -0.000
  -2855909.000 9  -1769524.62446  24009169.855    24009169.7774   24009182.4634
        -0.000          -0.000
  -8493336.557 9  -6143226.60446  23837615.367    23837615.4724   23837629.7274
        -0.000          -0.000
 -17727139.808 9 -13339056.24349  21495701.182    21495700.6164   21495709.0374
        -0.000          -0.000
 -16883728.919 9 -11509148.59148  22370458.581    22370457.8244   22370466.7404
        -0.000          -0.000
  10510681.62017   8195837.18754         0.000           0.0005          0.0005
        -0.000          -0.000
 99  5  6  1  9  0.0010000  0  8  3 22 17  6 29 23 21 26             0.001953402
 -10806467.448 9  -8176934.03747  23037432.227    23037432.2974   23037442.1244
        -0.000          -0.000
   2989956.059 8   2860634.20145  25318020.930    25318020.0084   25318035.6984
        -0.000          -0.000
 -17818934.293 9 -13052974.80748  21463987.258    21463986.5414   21463995.0524
        -0.000          -0.000
  -2735709.970 9  -1675863.27446  24032043.286    24032043.1324   24032055.7384
        -0.000          -0.000
  -8586252.320 9  -6215628.21746  23819934.261    23819934.2934   23819948.1014
        -0.000          -0.000
 -17691499.014 9 -13311284.17749  21502483.293    21502482.7314   21502491.2204
        -0.000          -0.000
 -16912285.319 9 -11531400.28148  22365024.345    22365023.6964   22365032.6714
        -0.000          -0.000
  10613983.24018   8276331.86354  24096439.706    24096439.8225          0.0005
        -0.000          -0.000
 99  5  6  1  9 30.0010000  0  8  3 22 17  6 29 23 21 26             0.001960344
 -10866465.922 9  -8223686.03647  23026015.007    23026015.0124   23026025.0114
        -0.000          -0.000
   3065156.285 9   2919231.62645  25332331.357    25332330.4324   25332346.5714
        -0.000          -0.000
 -17790153.914 9 -13030548.55048  21469463.941    21469463.1904   21469471.6824
        -0.000          -0.000
  -2615331.922 9  -1582062.41646  24054950.545    24054950.3844   24054962.9824
        -0.000          -0.000
  -8678970.224 9  -6287875.64046  23802290.809    23802290.4484   23802304.1194
        -0.000          -0.000
 -17655628.361 9 -13283333.00949  21509309.238    21509308.6364   21509317.2314
        -0.000          -0.000
 -16940610.560 9 -11553471.83648  22359634.004    22359633.4584   22359642.4144
        -0.000          -0.000
  10717581.44318     68013.75452         0.000           0.0005          0.0005
        -0.000          -0.000
 99  5  6  1 10  0.0010000  0  8  3 22 17  6 29 23 21 26             0.001967276
 -10926045.275 9  -8270111.44447  23014677.539    23014677.4904   23014687.4994
        -0.000          -0.000
   3140452.382 9   2977903.70845  25346659.683    25346658.8644   25346675.5404
        -0.000          -0.000
 -17761111.648 9 -13007918.21548  21474990.365    21474989.6444   21474998.2214
        -0.000          -0.000
  -2494832.431 9  -1488166.92346  24077880.961    24077880.7804   24077893.3504
        -0.000          -0.000
  -8771539.409 9  -6360007.20046  23784675.135    23784674.7334   23784688.3374
        -0.000          -0.000
 -17619567.799 9 -13255233.86348  21516171.226    21516170.6354   21516179.2854
        -0.000          -0.000
 -16968732.885 9 -11575385.28148  22354282.194    22354281.7334   22354290.7364
        -0.000          -0.000
  10821457.588 7    148942.04252         0.000           0.0004          0.0005
        -0.000          -0.000
 99  5  6  1 10 30.0010000  0  8  3 22 17  6 29 23 21 26             0.001974199
 -10985183.899 9  -8316193.43447  23003423.933    23003423.7814   23003433.6884
        -0.000          -0.000
   3215840.572 8   3036647.57845  25361005.292    25361004.6234   25361021.5174
        -0.000          -0.000
 -17731775.201 9 -12985058.64048  21480573.010    21480572.2694   21480580.8594
        -0.000          -0.000
  -2374209.600 9  -1394175.33346  24100834.712    24100834.5194   24100847.4204
        -0.000          -0.000
  -8863943.442 9  -6432010.12446  23767090.614    23767090.5564   23767103.9994
        -0.000          -0.000
 -17583304.317 9 -13226976.59648  21523071.924    21523071.3684   21523079.9844
        -0.000          -0.000
 -16996622.711 9 -11597117.55748  22348974.852    22348974.3974   22348983.4984
        -0.000          -0.000
  10925629.14117    230100.51952         0.000           0.0005          0.0005
        -0.000          -0.000
 99  5  6  1 11  0.0010000  0  8  3 22 17  6 29 23 21 26             0.001981112
 -11043892.767 9  -8361940.54547  22992252.181    22992251.8754   22992261.6574
        -0.000          -0.000
   3291306.115 8   3095451.68445  25375365.590    25375364.9814   25375382.1064
        -0.000          -0.000
 -17702150.161 9 -12961974.18248  21486210.479    21486209.7464   21486218.4484
        -0.000          -0.000
  -2253469.694 9  -1300092.53246  24123810.725    24123810.6034   24123823.8654
        -0.000          -0.000
  -8956197.728 9  -6503896.31946  23749535.184    23749535.0494   23749548.2624
        -0.000          -0.000
 -17546825.975 9 -13198551.91248  21530013.607    21530013.0024   21530021.6164
        -0.000          -0.000
 -17024285.906 9 -11618673.24548  22343710.713    22343710.2024   22343719.3444
        -0.000          -0.000
  11030102.09717     61822.59052         0.000           0.0005          0.0005
        -0.000          -0.000
 99  5  6  1 11 30.0010000  0  8  3 22 17  6 29 23 21 26             0.001988024
 -11102179.440 9  -8407358.66847  22981160.581    22981160.2934   22981169.9574
        -0.000          -0.000
   3366836.284 9   3154306.15545  25389738.975    25389738.1394   25389755.0364
        -0.000          -0.000
 -17672252.424 9 -12938677.23748  21491899.895    21491899.1674   21491907.9144
        -0.000          -0.000
  -2132613.739 9  -1205919.27446  24146809.090    24146809.0914   24146822.4194
        -0.000          -0.000
  -9048312.001 9  -6575673.43146  23732006.734    23732006.4334   23732019.2444
        -0.000          -0.000
 -17510129.203 9 -13169957.03048  21536996.805    21536996.1884   21537004.7774
        -0.000          -0.000
 -17051732.348 9 -11640060.04048  22338487.679    22338487.1874   22338496.5174
        -0.000          -0.000
  11134892.55417    143501.50652         0.000           0.0005          0.0005
        -0.000          -0.000
 99  5  6  1 12  0.0010000  0  8  3 22 17  6 29 23 21 26             0.001994922
 -11160054.001 9  -8452455.66947  22970147.387    22970147.1084   22970156.8074
        -0.000          -0.000
   3442419.505 9   3213202.00445  25404122.479    25404121.5514   25404138.1144
        -0.000          -0.000
 -17642093.223 9 -12915176.56449  21497639.111    21497638.3944   21497647.1294
        -0.000          -0.000
  -2011628.842 9  -1111645.57046  24169832.314    24169832.1634   24169845.3124
        -0.000          -0.000
  -9140291.818 9  -6647345.78346  23714503.731    23714503.4404   23714515.8594
        -0.000          -0.000
 -17473203.376 9 -13141183.66248  21544023.596    21544022.9734   21544031.4464
        -0.000          -0.000
 -17078954.924 9 -11661272.38748  22333307.216    22333306.7834   22333316.3144
        -0.000          -0.000
  11239991.15217    225422.78452         0.000           0.0005          0.0005
        -0.000          -0.000
 99  5  6  1 12 30.0010000  0  8  3 22 17  6 29 23 21 26             0.002001813
 -11217505.803 9  -8497223.23547  22959214.693    22959214.3874   22959224.1064
        -0.000          -0.000
   3518051.687 9   3272136.00245  25418515.223    25418514.2884   25418530.7804
        -0.000          -0.000
 -17611676.286 9 -12891475.05848  21503427.219    21503426.4784   21503435.3974
        -0.000          -0.000
  -1890502.737 9  -1017261.81446  24192882.174    24192881.8464   24192895.1104
        -0.000          -0.000
  -9232126.816 9  -6718905.27046  23697028.282    23697027.8294   23697039.9624
        -0.000          -0.000
 -17436035.332 9 -13112221.55148  21551096.462    21551095.8074   21551104.2414
        -0.000          -0.000
 -17105960.446 9 -11682315.58148  22328168.235    22328167.7614   22328177.3414
        -0.000          -0.000
  11345402.92817     55539.41152         0.000           0.0005          0.0005
        -0.000          -0.000
 99  5  6  1 13  0.0020000  0  8  3 22 17  6 29 23 21 26             0.002008715
 -11274520.441 9  -8541650.15847  22948365.228    22948364.8584   22948374.6594
        -0.000          -0.000
   3593753.848 8   3331124.54145  25432920.877    25432920.0264   25432936.2494
        -0.000          -0.000
 -17580997.427 9 -12867569.45348  21509265.022    21509264.3164   21509273.4164
        -0.000          -0.000
  -1769221.002 9   -922756.77646  24215961.242    24215961.0394   24215974.6194
        -0.000          -0.000
  -9323814.022 9  -6790349.61746  23679580.565    23679580.2284   23679592.0464
        -0.000          -0.000
 -17398625.751 9 -13083071.23348  21558215.339    21558214.7084   21558223.0264
        -0.000          -0.000
 -17132751.573 9 -11703191.72548  22323069.946    22323069.4914   22323079.2604
        -0.000          -0.000
  11451149.412 7    137935.62552         0.000           0.0004          0.0005
        -0.000          -0.000
 99  5  6  1 13 30.0020000  0  8  3 22 17  6 29 23 21 26             0.002015630
 -11331073.042 9  -8585717.05447  22937603.631    22937603.2384   22937613.0264
        -0.000          -0.000
   3669514.040 8   3390158.30045  25447337.829    25447336.8864   25447352.9154
        -0.000          -0.000
 -17550042.673 9 -12843448.86748  21515155.464    21515154.7784   21515163.8004
        -0.000          -0.000
  -1647777.266 9   -828125.49846  24239071.046    24239071.0304   24239085.1054
        -0.000          -0.000
  -9415322.783 9  -6861654.91246  23662166.606    23662166.3744   23662178.0644
        -0.000          -0.000
 -17360990.379 9 -13053744.97148  21565377.225    21565376.5604   21565384.7874
        -0.000          -0.000
 -17159316.455 9 -11723891.57748  22318014.868    22318014.3804   22318024.2114
        -0.000          -0.000
  11557209.459 7    220575.57852         0.000           0.0004          0.0005
        -0.000          -0.000
 99  5  6  1 14  0.0020000  0  8  3 22 17  6 29 23 21 26             0.002022550
 -11387151.712 9  -8629414.65147  22926932.232    22926931.8364   22926941.4924
        -0.000          -0.000
   3745332.475 9   3449237.42445  25461765.644    25461764.5774   25461780.9354
        -0.000          -0.000
 -17518790.512 9 -12819096.52348  21521102.653    21521101.9414   21521110.8184
        -0.000          -0.000
  -1526162.694 8   -733361.11346  24262213.439    24262213.4104   24262227.9824
        -0.000          -0.000
  -9506650.157 9  -6932818.86146  23644787.154    23644786.9064   23644798.4924
        -0.000          -0.000
 -17323128.335 9 -13024242.08248  21572582.139    21572581.4634   21572589.6684
        -0.000          -0.000
 -17185643.942 9 -11744406.44248  22313004.970    22313004.3594   22313014.1804
        -0.000          -0.000
  11663572.01817     49137.86552         0.000           0.0005          0.0005
        -0.000          -0.000
 99  5  6  1 14 30.0020000  0  8  3 22 17  6 29 23 21 26             0.002029470
 -11442781.332 9  -8672762.33947  22916346.176    22916345.7244   22916355.4094
        -0.000          -0.000
   3821197.174 8   3508352.59545  25476202.411    25476201.2534   25476217.9954
        -0.000          -0.000
 -17487260.981 9 -12794528.06648  21527102.506    21527101.7384   21527110.5854
        -0.000          -0.000
  -1404407.739 9   -638487.37046  24285382.673    24285382.6094   24285397.4474
        -0.000          -0.000
  -9597817.071 9  -7003857.78946  23627438.144    23627437.9164   23627449.4684
        -0.000          -0.000
 -17285079.988 9 -12994594.03049  21579822.503    21579821.8104   21579830.0874
        -0.000          -0.000
 -17211752.677 9 -11764750.84848  22308036.356    22308035.8684   22308045.7614
        -0.000          -0.000
  11770223.622 7    132237.50352         0.000           0.0004          0.0005
        -0.000          -0.000
 99  5  6  1 15  0.0020000  0  8  3 22 17  6 29 23 21 26             0.002036392
 -11497971.678 9  -8715767.73647  22905843.594    22905843.2454   22905852.9494
        -0.000          -0.000
   3897113.701 9   3567508.13245  25490649.229    25490647.8214   25490664.7174
        -0.000          -0.000
 -17455436.640 9 -12769729.89448  21533158.321    21533157.6254   21533166.4444
        -0.000          -0.000
  -1282498.927 9   -543493.72946  24308581.668    24308581.5784   24308595.9904
        -0.000          -0.000
  -9688806.174 9  -7074758.15646  23610123.030    23610122.8624   23610134.5724
        -0.000          -0.000
 -17246845.945 9 -12964801.26248  21587098.246    21587097.5234   21587105.8034
        -0.000          -0.000
 -17237627.025 9 -11784912.60548  22303112.549    22303112.0474   22303121.9134
        -0.000          -0.000
  11877160.670 7    215557.79952         0.000           0.0004          0.0005
        -0.000          -0.000
 99  5  6  1 15 30.0020000  0  8  3 22 17  6 29 23 21 26             0.002043313
 -11552730.804 9  -8758437.12047  22895423.236    22895422.8694   22895432.6024
        -0.000          -0.000
   3973090.115 9   3626710.32245  25505107.272    25505105.8734   25505122.7444
        -0.000          -0.000
 -17423310.231 9 -12744696.33348  21539271.826    21539271.1134   21539279.8364
        -0.000          -0.000
  -1160427.721 9   -448373.57246  24331811.854    24331811.6664   24331825.3984
        -0.000          -0.000
  -9779596.684 9  -7145503.77746  23592845.795    23592845.8824   23592857.7504
        -0.000          -0.000
 -17208414.227 9 -12934854.47048  21594411.560    21594410.8004   21594419.0944
        -0.000          -0.000
 -17263252.464 9 -11804880.42048  22298236.100    22298235.6134   22298245.3714
        -0.000          -0.000
  11984379.25117     42583.24352         0.000           0.0005          0.0005
        -0.000          -0.000
 99  5  6  1 16  0.0020000  0  8  3 22 17  6 29 23 21 26             0.002050225
 -11607082.964 9  -8800789.38347  22885080.228    22885079.8894   22885089.7894
        -0.000          -0.000
   4049140.640 9   3685970.27745  25519579.061    25519577.7744   25519594.7494
        -0.000          -0.000
 -17390897.245 9 -12719439.46948  21545439.810    21545439.1134   21545447.7434
        -0.000          -0.000
  -1038221.791 9   -353148.42146  24355067.435    24355067.1484   24355080.5024
        -0.000          -0.000
  -9870186.564 9  -7216093.06046  23575607.292    23575607.1674   23575619.2324
        -0.000          -0.000
 -17169794.464 9 -12904761.14449  21601760.665    21601759.9334   21601768.1704
        -0.000          -0.000
 -17288638.854 9 -11824661.95748  22293405.231    22293404.7274   22293414.3404
        -0.000          -0.000
  12091885.73517    126371.90652         0.000           0.0005          0.0005
        -0.000          -0.000
 99  5  6  1 16 30.0020000  0  8  3 22 17  6 29 23 21 26             0.002057160
 -11661040.025 9  -8842833.77747  22874812.463    22874812.1574   22874822.1844
        -0.000          -0.000
   4125260.656 8   3745284.38745  25534064.289    25534063.1164   25534079.8314
        -0.000          -0.000
 -17358213.615 9 -12693971.71348  21551659.276    21551658.5974   21551667.3184
        -0.000          -0.000
   -915900.182 9   -257833.12746  24378344.419    24378344.1744   24378357.5604
        -0.000          -0.000
  -9960567.033 9  -7286519.15846  23558408.536    23558408.2134   23558420.3904
        -0.000          -0.000
 -17130998.386 9 -12874530.44549  21609143.306    21609142.6024   21609150.8564
        -0.000          -0.000
 -17313789.665 9 -11844259.92448  22288619.334    22288618.7204   22288628.1824
        -0.000          -0.000
  12199672.527 7    210387.60552         0.000           0.0004          0.0005
        -0.000          -0.000
 99  5  6  1 17  0.0020000  0  8  3 22 17  6 29 23 21 26             0.002064087
 -11714575.171 9  -8884549.40247  22864625.206    22864624.8394   22864634.9074
        -0.000          -0.000
   4201451.645 8   3804653.76645  25548562.733    25548561.7294   25548578.6254
        -0.000          -0.000
 -17325233.488 9 -12668272.92548  21557935.198    21557934.5124   21557943.2004
        -0.000          -0.000
   -793459.034 9   -162424.65546  24401644.112    24401643.9734   24401657.5014
        -0.000          -0.000
 -10050704.843 9  -7356756.19646  23541255.551    23541255.3794   23541267.5234
        -0.000          -0.000
 -17092003.115 9 -12844144.52549  21616563.832    21616563.2244   21616571.4114
        -0.000          -0.000
 -17338699.069 9 -11863669.77948  22283879.255    22283878.6424   22283888.0044
        -0.000          -0.000
  12307728.82817     35914.29852         0.000           0.0005          0.0005
        -0.000          -0.000
 99  5  6  1 17 30.0020000  0  8  3 22 17  6 29 23 21 26             0.002071012
 -11767650.847 9  -8925907.00647  22854525.427    22854525.0314   22854535.0784
        -0.000          -0.000
   4277720.120 8   3864083.56545  25563076.500    25563075.1234   25563092.1134
        -0.000          -0.000
 -17291952.196 9 -12642339.47148  21564268.486    21564267.7484   21564276.4064
        -0.000          -0.000
   -670909.299 9    -66931.59846  24424964.750    24424964.4784   24424978.2304
        -0.000          -0.000
 -10140594.163 9  -7426799.58846  23524150.192    23524150.0504   23524162.0034
        -0.000          -0.000
 -17052795.525 9 -12813593.14949  21624024.833    21624024.2104   21624032.3334
        -0.000          -0.000
 -17363363.380 9 -11882888.65148  22279185.815    22279185.1414   22279194.5654
        -0.000          -0.000
  12416056.39317    120345.37452         0.000           0.0005          0.0005
        -0.000          -0.000
 99  5  6  1 18  0.0020000  0  8  3 22 17  6 29 23 21 26             0.002077915
 -11820284.372 9  -8966920.09047  22844509.754    22844509.2854   22844519.2284
        -0.000          -0.000
   4354011.665 8   3923531.32045  25577593.904    25577592.8314   25577610.2124
        -0.000          -0.000
 -17258397.908 9 -12616193.27748  21570653.515    21570652.8784   21570661.5264
        -0.000          -0.000
   -548286.172 9     28618.63946  24448299.385    24448298.9454   24448312.9624
        -0.000          -0.000
 -10230277.471 9  -7496682.45446  23507084.160    23507083.9544   23507095.7254
        -0.000          -0.000
 -17013404.695 9 -12782899.00348  21631520.585    21631519.9604   21631528.1864
        -0.000          -0.000
 -17387823.760 9 -11901948.62548  22274531.082    22274530.4644   22274539.9454
        -0.000          -0.000
  12524616.788 7    204972.04952         0.000           0.0004          0.0005
        -0.000          -0.000
 99  5  6  1 18 30.0020000  0  8  3 22 17  6 29 23 21 26             0.002084792
 -11872456.996 9  -9007574.02347  22834581.580    22834581.0894   22834590.9994
        -0.000          -0.000
   4430308.259 8   3982983.01145  25592112.705    25592111.7194   25592129.4044
        -0.000          -0.000
 -17224548.564 9 -12589817.17848  21577094.965    21577094.3284   21577102.9324
        -0.000          -0.000
   -425562.959 8    124246.86845  24471652.876    24471652.5374   24471666.7994
        -0.000          -0.000
 -10319760.240 9  -7566409.06547  23490056.046    23490055.8634   23490067.6494
        -0.000          -0.000
 -16973811.146 9 -12752046.88448  21639054.960    21639054.3344   21639062.6204
        -0.000          -0.000
 -17412077.841 9 -11920847.84148  22269915.624    22269915.0394   22269924.4994
        -0.000          -0.000
  12633404.50718     29073.11552         0.000           0.0005          0.0005
        -0.000          -0.000
 99  5  6  1 19  0.0020000  0  8  3 22 17  6 29 23 21 26             0.002091657
 -11924145.645 9  -9047850.83447  22824745.176    22824744.7784   22824754.8564
        -0.000          -0.000
   4506622.890 9   4042448.72245  25606635.191    25606633.9964   25606651.8194
        -0.000          -0.000
 -17190392.265 9 -12563201.88448  21583594.832    21583594.1794   21583602.7774
        -0.000          -0.000
   -302725.739 9    219963.92445  24495028.484    24495028.0844   24495042.4354
        -0.000          -0.000
 -10409041.225 9  -7635978.46047  23473066.268    23473066.0454   23473077.9334
        -0.000          -0.000
 -16933991.819 9 -12721018.83048  21646632.381    21646631.7194   21646640.0064
        -0.000          -0.000
 -17436114.613 9 -11939577.73948  22265341.419    22265340.8554   22265350.3924
        -0.000          -0.000
  12742442.073 8    114091.42052         0.000           0.0004          0.0005
        -0.000          -0.000
 99  5  6  1 19 30.0020000  0  8  3 22 17  6 29 23 21 26             0.002098512
 -11975365.334 9  -9087762.22847  22814998.115    22814997.7364   22815007.9224
        -0.000          -0.000
   4582941.628 9   4101917.63645  25621158.652    25621157.3114   25621174.7534
        -0.000          -0.000
 -17155951.354 9 -12536364.82448  21590148.668    21590147.9824   21590156.6774
        -0.000          -0.000
   -179782.928 9    315763.26446  24518424.579    24518423.9374   24518438.1804
        -0.000          -0.000
 -10498159.893 9  -7705421.37947  23456107.281    23456107.0954   23456119.0464
        -0.000          -0.000
 -16893965.091 9 -12689829.17848  21654249.132    21654248.4964   21654256.9354
        -0.000          -0.000
 -17459938.218 9 -11958141.52448  22260808.040    22260807.4344   22260816.8664
        -0.000          -0.000
  12851729.580 8    199358.33452         0.000           0.0004          0.0005
        -0.000          -0.000
 99  5  6  1 20  0.0020000  0  8  3 22 17  6 29 23 21 26             0.002105362
 -12026117.628 9  -9127309.42847  22805340.212    22805339.7724   22805350.0164
        -0.000          -0.000
   4659272.729 8   4161396.20945  25635684.539    25635683.1464   25635699.8974
        -0.000          -0.000
 -17121209.118 9 -12509292.97548  21596759.999    21596759.2944   21596767.9554
        -0.000          -0.000
    -56720.258 8    411656.00645  24541843.016    24541842.1374   24541856.4744
        -0.000          -0.000
 -10587106.194 9  -7774729.97647  23439181.335    23439181.1324   23439193.0024
        -0.000          -0.000
 -16853734.220 9 -12658480.45748  21661904.650    21661904.1064   21661912.6464
        -0.000          -0.000
 -17483538.405 9 -11976531.22048  22256317.077    22256316.4534   22256325.8364
        -0.000          -0.000
  12961281.08318     22160.01352         0.000           0.0005          0.0005
        -0.000          -0.000
 99  5  6  1 20 30.0020000  0  8  3 22 17  6 29 23 21 26             0.002112205
 -12076414.405 9  -9166501.68847  22795768.979    22795768.5584   22795778.7754
        -0.000          -0.000
   4735620.429 8   4220887.72945  25650213.058    25650211.6694   25650228.9484
        -0.000          -0.000
 -17086173.413 9 -12481992.43248  21603427.081    21603426.3504   21603434.9554
        -0.000          -0.000
     66444.079 8    507627.94545  24565279.987    24565279.2624   24565293.8034
        -0.000          -0.000
 -10675884.114 9  -7843907.36546  23422287.526    23422287.0884   23422298.9674
        -0.000          -0.000
 -16813320.234 9 -12626989.03348  21669595.088    21669594.5924   21669603.0514
        -0.000          -0.000
 -17506917.011 9 -11994748.25348  22251868.208    22251867.7024   22251876.9654
        -0.000          -0.000
  13071088.860 8    107722.67552         0.000           0.0004          0.0005
        -0.000          -0.000
 99  5  6  1 21  0.0020000  0  8  3 22 17  6 29 23 21 26             0.002119059
 -12126239.675 9  -9205326.53547  22786287.382    22786287.0524   22786297.1474
        -0.000          -0.000
   4812013.062 8   4280414.24045  25664749.496    25664748.5354   25664766.2534
        -0.000          -0.000
 -17050841.048 9 -12454460.73748  21610150.516    21610149.8054   21610158.6154
        -0.000          -0.000
    189711.168 9    603679.96745  24588736.615    24588736.2324   24588750.3914
        -0.000          -0.000
 -10764472.875 9  -7912937.36946  23405429.370    23405428.9994   23405440.8894
        -0.000          -0.000
 -16772718.286 9 -12595351.14148  21677321.450    21677320.9134   21677329.3274
        -0.000          -0.000
 -17530055.196 9 -12012777.95048  22247465.163    22247464.6314   22247473.7824
        -0.000          -0.000
  13181173.884 8    193498.74252         0.000           0.0004          0.0005
        -0.000          -0.000
 99  5  6  1 21 30.0020000  0  8  3 22 17  6 29 23 21 26             0.002125935
 -12175579.679 9  -9243773.26647  22776898.226    22776897.9724   22776907.9774
        -0.000          -0.000
   4888464.831 8   4339986.80445  25679298.003    25679296.9824   25679314.8894
        -0.000          -0.000
 -17015189.379 9 -12426680.23548  21616934.750    21616934.0184   21616942.8954
        -0.000          -0.000
    313097.714 9    699825.05145  24612216.621    24612216.1764   24612229.9444
        -0.000          -0.000
 -10852836.068 9  -7981791.61546  23388614.095    23388613.8004   23388625.6964
        -0.000          -0.000
 -16731930.955 9 -12563568.80648  21685083.027    21685082.4804   21685090.9404
        -0.000          -0.000
 -17552945.217 9 -12030614.27748  22243109.301    22243108.7764   22243117.9084
        -0.000          -0.000
  13291544.51817     15153.24452         0.000           0.0005          0.0005
        -0.000          -0.000
 99  5  6  1 22  0.0020000  0  8  3 22 17  6 29 23 21 26             0.002132812
 -12224473.644 9  -9281872.42747  22767594.141    22767593.8434   22767603.6684
        -0.000          -0.000
   4964948.753 8   4399584.42945  25693852.825    25693851.6274   25693869.3524
        -0.000          -0.000
 -16979256.356 9 -12398680.51048  21623772.605    21623771.9044   21623780.7474
        -0.000          -0.000
    436566.148 9    796033.94646  24635712.430    24635711.7724   24635725.7204
        -0.000          -0.000
 -10940986.865 9  -8050480.34246  23371839.217    23371838.9444   23371850.8364
        -0.000          -0.000
 -16690995.888 9 -12531671.36348  21692872.801    21692872.2574   21692880.6714
        -0.000          -0.000
 -17575631.358 9 -12048291.73248  22238792.198    22238791.6454   22238800.7814
        -0.000          -0.000
  13402162.42217    101341.81852         0.000           0.0005          0.0005
        -0.000          -0.000
 99  5  6  1 22 30.0020000  0  8  3 22 17  6 29 23 21 26             0.002139709
 -12272893.691 9  -9319602.30947  22758380.306    22758379.9414   22758389.4984
        -0.000          -0.000
   5041495.113 9   4459230.72945  25708419.181    25708418.1914   25708435.7154
        -0.000          -0.000
 -16943015.872 9 -12370441.19248  21630668.982    21630668.2304   21630677.1344
        -0.000          -0.000
    560149.042 8    892332.04446  24659229.380    24659228.8814   24659243.2654
        -0.000          -0.000
 -11028880.912 9  -8118969.02746  23355113.101    23355112.8934   23355124.7654
        -0.000          -0.000
 -16649870.387 9 -12499625.51648  21700698.864    21700698.2694   21700706.6034
        -0.000          -0.000
 -17598080.536 9 -12065784.54648  22234520.076    22234519.5834   22234528.8594
        -0.000          -0.000
  13513055.31917    187730.29052         0.000           0.0005          0.0005
        -0.000          -0.000
 99  5  6  1 23  0.0020000  0  8  3 22 17  6 29 23 21 26             0.002146613
 -12320853.861 9  -9356973.84647  22749253.936    22749253.5394   22749262.9804
        -0.000          -0.000
   5118069.564 9   4518898.92945  25722991.444    25722990.3334   25723007.6784
        -0.000          -0.000
 -16906495.787 9 -12341983.99648  21637618.489    21637617.7594   21637626.7824
        -0.000          -0.000
    683820.627 8    988699.25345  24682762.964    24682762.7194   24682777.4794
        -0.000          -0.000
 -11116541.003 9  -8187275.40646  23338431.698    23338431.6304   23338443.1924
        -0.000          -0.000
 -16608573.895 9 -12467446.44048  21708557.379    21708556.7794   21708565.0754
        -0.000          -0.000
 -17620330.451 9 -12083122.08348  22230285.886    22230285.3944   22230294.8944
        -0.000          -0.000
  13624197.68317      9465.48652         0.000           0.0005          0.0005
        -0.000          -0.000
 99  5  6  1 23 30.0020000  0  8  3 22 17  6 29 23 21 26             0.002153506
 -12368357.180 9  -9393989.40047  22740214.340    22740213.8984   22740223.3664
        -0.000          -0.000
   5194645.629 9   4578568.37845  25737563.880    25737562.7454   25737580.0424
        -0.000          -0.000
 -16869692.513 9 -12313306.13948  21644621.905    21644621.1804   21644630.3004
        -0.000          -0.000
    807568.830 8   1085126.13845  24706311.070    24706311.0784   24706326.3464
        -0.000          -0.000
 -11203976.678 9  -8255406.90246  23321793.523    23321793.2484   23321804.2544
        -0.000          -0.000
 -16567105.806 9 -12435133.64448  21716448.477    21716447.8964   21716456.1224
        -0.000          -0.000
 -17642385.327 9 -12100307.65148  22226088.895    22226088.4094   22226097.9224
        -0.000          -0.000
  13735563.58417     96221.71342         0.000           0.0005          0.0004
        -0.000          -0.000
 99  5  6  1 24  0.0020000  0  9  3 22 17  6 29 23 21 31 26          0.002160394
 -12415382.974 9  -9430632.85247  22731265.436    22731265.0634   22731274.5194
        -0.000          -0.000
   5271235.573 9   4638248.63045  25752138.962    25752137.5864   25752154.9134
        -0.000          -0.000
 -16832585.644 9 -12284391.71348  21651683.113    21651682.4024   21651691.4964
        -0.000          -0.000
    931406.628 8   1181622.89945  24729876.187    24729876.3634   24729892.1414
        -0.000          -0.000
 -11291179.189 9  -8323356.72846  23305199.435    23305199.1964   23305209.6454
        -0.000          -0.000
 -16525428.621 9 -12402657.91948  21724379.363    21724378.7664   21724387.0484
        -0.000          -0.000
 -17664219.762 9 -12117321.44148  22221934.207    22221933.5854   22221942.9514
        -0.000          -0.000
   -221365.01418   -153622.87852         0.000           0.0005          0.0005
        -0.000          -0.000
  13847170.09516    183104.09552         0.000           0.0005          0.0005
        -0.000          -0.000
 99  5  6  1 24 30.0020000  0  8  3 22 17  6 29 23 21 31             0.002167174
 -12461919.780 9  -9466895.27047  22722409.790    22722409.3744   22722418.8334
        -0.000          -0.000
   5347814.964 8   4697920.63445  25766711.744    25766710.3174   25766727.4504
        -0.000          -0.000
 -16795172.709 9 -12255238.79248  21658802.677    21658801.9134   21658810.9224
        -0.000          -0.000
   1055314.819 8   1278174.46545  24753455.460    24753455.4684   24753471.4314
        -0.000          -0.000
 -11378165.632 9  -8391138.19146  23288646.494    23288646.1264   23288656.2414
        -0.000          -0.000
 -16483554.087 9 -12370028.42348  21732347.829    21732347.2794   21732355.5904
        -0.000          -0.000
 -17685847.005 9 -12134173.79448  22217818.551    22217817.9554   22217827.3914
        -0.000          -0.000
   -307628.65818    -12940.88952         0.000           0.0005          0.0005
        -0.000          -0.000
 99  5  6  1 25  0.0020000  0  8  3 22 17  6 29 23 21 31             0.002174047
 -12507940.976 9  -9502755.89447  22713652.169    22713651.7264   22713661.2934
        -0.000          -0.000
   5424397.606 8   4757595.21245  25781284.970    25781283.6694   25781300.4644
        -0.000          -0.000
 -16757445.060 9 -12225840.62348  21665982.056    21665981.2934   21665990.2204
        -0.000          -0.000
   1179295.783 8   1374782.71745  24777049.333    24777048.8544   24777064.5964
        -0.000          -0.000
 -11464932.196 9  -8458748.33246  23272135.034    23272134.8264   23272144.6204
        -0.000          -0.000
 -16441474.985 9 -12337239.51548  21740355.361    21740354.7554   21740362.9584
        -0.000          -0.000
 -17707260.578 9 -12150859.64848  22213743.602    22213743.1454   22213752.4804
        -0.000          -0.000
   -393636.477 8    -79961.26452         0.000           0.0004          0.0005
        -0.000          -0.000
 99  5  6  1 25 30.0020000  0  8  3 22 17  6 29 23 21 31             0.002180929
 -12553468.429 9  -9538231.77547  22704988.650    22704988.2444   22704997.7444
        -0.000          -0.000
   5500982.616 8   4817271.65745  25795858.599    25795857.2294   25795874.1574
        -0.000          -0.000
 -16719412.444 9 -12196204.84448  21673219.352    21673218.5634   21673227.6074
        -0.000          -0.000
   1303343.937 8   1471443.32445  24800655.857    24800655.0824   24800670.5914
        -0.000          -0.000
 -11551482.961 9  -8526190.31846  23255664.755    23255664.6984   23255674.3084
        -0.000          -0.000
 -16399207.295 9 -12304303.65848  21748398.676    21748398.0374   21748406.1844
        -0.000          -0.000
 -17728462.258 9 -12167380.39448  22209709.267    22209708.6594   22209717.8894
        -0.000          -0.000
   -479374.998 8   -146774.21852         0.000           0.0004          0.0005
        -0.000          -0.000
 99  5  6  1 26  0.0020000  0  8  3 22 17  6 29 23 21 31             0.002187829
 -12598503.541 9  -9573324.01548  22696418.921    22696418.4264   22696427.8294
        -0.000          -0.000
   5577573.461 8   4876952.67045  25810433.690    25810432.4384   25810449.0174
        -0.000          -0.000
 -16681082.409 9 -12166337.29448  21680513.067    21680512.3544   21680521.4934
        -0.000          -0.000
   1427470.739 8   1568165.24445  24824276.741    24824276.2404   24824291.5024
        -0.000          -0.000
 -11637805.975 9  -8593454.82047  23239238.244    23239238.0304   23239247.5134
        -0.000          -0.000
 -16356768.023 9 -12271234.09448  21756474.582    21756473.9764   21756482.0484
        -0.000          -0.000
 -17749463.232 9 -12183744.75248  22205712.836    22205712.2454   22205721.5054
        -0.000          -0.000
   -564859.28918     -8385.49752         0.000           0.0005          0.0005
        -0.000          -0.000
 99  5  6  1 26 30.0020000  0  8  3 22 17  6 29 23 21 31             0.002194753
 -12643042.830 9  -9608029.89148  22687943.515    22687943.0044   22687952.2374
        -0.000          -0.000
   5654173.119 8   4936640.45945  25825010.147    25825009.0584   25825025.9614
        -0.000          -0.000
 -16642451.428 9 -12136235.23948  21687864.358    21687863.6444   21687872.6184
        -0.000          -0.000
   1551681.425 8   1664952.48745  24847913.531    24847913.0474   24847928.3194
        -0.000          -0.000
 -11723892.646 9  -8660535.16947  23222856.397    23222856.1814   23222865.7244
        -0.000          -0.000
 -16314174.751 9 -12238044.53448  21764579.808    21764579.1564   21764587.2544
        -0.000          -0.000
 -17770256.214 9 -12199947.03048  22201755.958    22201755.3654   22201764.6764
        -0.000          -0.000
   -650093.046 8    -74802.06242         0.000           0.0004          0.0004
        -0.000          -0.000
 99  5  6  1 27  0.0020000  0  8  3 22 17  6 29 23 21 31             0.002201688
 -12687078.763 9  -9642343.54148  22679563.997    22679563.3854   22679572.4374
        -0.000          -0.000
   5730812.819 8   4996359.47345  25839594.340    25839593.1324   25839610.1444
        -0.000          -0.000
 -16603492.501 9 -12105877.64948  21695278.065    21695277.3424   21695286.1954
        -0.000          -0.000
   1676006.032 8   1761828.51845  24871572.039    24871571.4584   24871586.7314
        -0.000          -0.000
 -11809701.443 9  -8727398.99347  23206527.359    23206527.1664   23206537.0314
        -0.000          -0.000
 -16271388.315 9 -12204704.46648  21772721.660    21772721.0294   21772729.3274
        -0.000          -0.000
 -17790805.126 9 -12215959.12548  22197845.486    22197844.9124   22197854.2934
        -0.000          -0.000
   -735046.464 8   -141000.87552         0.000           0.0004          0.0005
        -0.000          -0.000
 99  5  6  1 27 30.0020000  0  8  3 22 17  6 29 23 21 31             0.002208610
 -12730636.253 9  -9676284.36448  22671275.380    22671274.6734   22671283.7704
        -0.000          -0.000
   5807457.469 8   5056082.33445  25854179.356    25854178.1644   25854195.2694
        -0.000          -0.000
 -16564203.383 9 -12075262.75948  21702754.503    21702753.8164   21702762.7644
        -0.000          -0.000
   1800435.046 8   1858785.91345  24895250.510    24895249.8964   24895264.9664
        -0.000          -0.000
 -11895235.196 9  -8794048.48847  23190250.548    23190250.3944   23190260.5764
        -0.000          -0.000
 -16228426.609 9 -12171227.80948  21780897.024    21780896.3794   21780904.6584
        -0.000          -0.000
 -17811122.398 9 -12231790.73048  22193979.210    22193978.5984   22193988.0344
        -0.000          -0.000
   -819754.29918     -2815.94952         0.000           0.0005          0.0005
        -0.000          -0.000
 99  5  6  1 28  0.0020000  0  8  3 22 17  6 29 23 21 31             0.002215496
 -12773728.779 9  -9709862.88148  22663075.215    22663074.4604   22663083.5794
        -0.000          -0.000
   5884059.950 8   5115772.35545  25868756.911    25868755.4724   25868772.4544
        -0.000          -0.000
 -16524609.920 9 -12044410.73848  21710288.894    21710288.2304   21710297.1734
        -0.000          -0.000
   1924924.160 8   1955790.13145  24918940.115    24918939.5864   24918954.6234
        -0.000          -0.000
 -11980516.675 9  -8860501.41947  23174021.840    23174021.6694   23174032.0044
        -0.000          -0.000
 -16185307.477 9 -12137628.48348  21789102.371    21789101.6994   21789109.9454
        -0.000          -0.000
 -17831230.476 9 -12247459.32548  22190152.739    22190152.1184   22190161.5864
        -0.000          -0.000
   -904257.640 8    -68662.86442         0.000           0.0004          0.0004
        -0.000          -0.000
 99  5  6  1 28 30.0020000  0  8  3 22 17  6 29 23 21 31             0.002222350
 -12816316.080 9  -9743047.72048  22654971.150    22654970.2814   22654979.4504
        -0.000          -0.000
   5960656.838 8   5175457.96945  25883333.615    25883331.7424   25883348.9224
        -0.000          -0.000
 -16484679.357 9 -12013296.02148  21717887.548    21717886.8304   21717895.6404
        -0.000          -0.000
   2049486.499 8   2052851.40745  24942643.430    24942643.1574   24942658.2584
        -0.000          -0.000
 -12065513.648 9  -8926732.64847  23157847.452    23157847.2464   23157857.5094
        -0.000          -0.000
 -16141985.673 9 -12103871.23748  21797346.178    21797345.5524   21797353.7454
        -0.000          -0.000
 -17851081.650 9 -12262927.72948  22186375.062    22186374.5224   22186383.9504
        -0.000          -0.000
   -988511.133 8   -134314.91952         0.000           0.0004          0.0005
        -0.000          -0.000
 99  5  6  1 29  0.0020000  0  8  3 22 17  6 29 23 21 31             0.002229163
 -12858427.924 9  -9775862.07648  22646957.314    22646956.5084   22646965.7004
        -0.000          -0.000
   6037193.743 8   5235096.85445  25897898.555    25897896.6494   25897913.5024
        -0.000          -0.000
 -16444449.928 9 -11981948.43448  21725543.047    21725542.3204   21725551.0574
        -0.000          -0.000
   2174082.833 8   2149939.14345  24966353.321    24966352.9644   24966368.4784
        -0.000          -0.000
 -12150259.698 9  -8992768.34147  23141720.729    23141720.4404   23141730.6094
        -0.000          -0.000
 -16098486.659 9 -12069975.90448  21805623.758    21805623.1414   21805631.3474
        -0.000          -0.000
 -17870732.685 9 -12278240.18248  22182635.524    22182635.0514   22182644.4774
        -0.000          -0.000
  -1072545.05318   -199795.72954         0.000           0.0005   25371897.2405
        -0.000          -0.000
 99  5  6  1 29 30.0020000  0  8  3 22 17  6 29 23 21 31             0.002235925
 -12900089.092 9  -9808325.25848  22639029.224    22639028.5874   22639037.7474
        -0.000          -0.000
   6113626.680 8   5294654.77045  25912443.727    25912441.5494   25912457.9924
        -0.000          -0.000
 -16403973.052 9 -11950408.01548  21733245.731    21733244.9484   21733253.6534
        -0.000          -0.000
   2298670.163 8   2247019.90445  24990061.445    24990061.1704   24990076.5604
        -0.000          -0.000
 -12234795.116 9  -9058639.90947  23125633.936    23125633.6084   23125643.9084
        -0.000          -0.000
 -16054869.920 9 -12035988.83548  21813923.689    21813923.0764   21813931.4054
        -0.000          -0.000
 -17890220.266 9 -12293425.27348  22178927.257    22178926.7284   22178936.0984
        -0.000          -0.000
  -1156404.89818   -265140.93245  25355927.700    25355926.7375   25355938.4864
        -0.000          -0.000
 99  5  6  1 30  0.0020000  0  8  3 22 17  6 29 23 21 31             0.002242685
 -12941233.914 9  -9840386.09048  22631199.470    22631198.8274   22631208.0554
        -0.000          -0.000
   6190030.855 8   5354190.24345  25926982.897    25926981.1344   25926997.6474
        -0.000          -0.000
 -16363205.362 9 -11918641.00848  21741003.571    21741002.8074   21741011.5484
        -0.000          -0.000
   2423293.891 8   2344129.01145  25013776.690    25013776.2824   25013792.1674
        -0.000          -0.000
 -12319072.669 9  -9124310.57347  23109595.979    23109595.8404   23109606.2554
        -0.000          -0.000
 -16011094.010 9 -12001877.74848  21822253.766    21822253.2294   21822261.7094
        -0.000          -0.000
 -17909491.799 9 -12308442.01348  22175260.206    22175259.6074   22175268.7714
        -0.000          -0.000
  -1240011.461 8   -330288.78545  25340017.737    25340014.9534   25340029.3424
        -0.000          -0.000
 99  5  6  1 30 30.0020000  0  8  3 22 17  6 29 23 21 31             0.002249464
 -12981852.001 9  -9872036.48148  22623469.770    22623469.2494   22623478.5304
        -0.000          -0.000
   6266424.595 8   5413717.58045  25941519.648    25941518.3224   25941535.3954
        -0.000          -0.000
 -16322130.414 9 -11886634.56748  21748819.989    21748819.2064   21748827.9164
        -0.000          -0.000
   2547978.155 8   2441285.27145  25037503.517    25037503.2464   25037519.1084
        -0.000          -0.000
 -12403078.106 9  -9189769.16947  23093610.108    23093609.9074   23093620.3354
        -0.000          -0.000
 -15967163.896 9 -11967646.48248  21830613.316    21830612.7914   21830621.2494
        -0.000          -0.000
 -17928558.584 9 -12323299.19948  22171632.176    22171631.4194   22171640.4214
        -0.000          -0.000
  -1323337.392 8   -395217.93845  25324161.032    25324159.0584   25324173.0994
        -0.000          -0.000
 99  5  6  1 31  0.0020000  0  8  3 22 17  6 29 23 21 31             0.002256259
 -13021964.742 9  -9903293.08648  22615836.306    22615835.7634   22615845.2074
        -0.000          -0.000
   6342765.933 8   5473204.12345  25956046.818    25956045.3634   25956062.7014
        -0.000          -0.000
 -16280766.052 9 -11854402.61548  21756691.396    21756690.6064   21756699.3644
        -0.000          -0.000
   2672700.223 8   2538471.00545  25061237.619    25061237.2864   25061252.7554
        -0.000          -0.000
 -12486834.920 9  -9255034.02547  23077671.624    23077671.2914   23077681.7664
        -0.000          -0.000
 -15923121.067 9 -11933327.39248  21838994.423    21838993.9194   21839002.3194
        -0.000          -0.000
 -17947464.683 9 -12338031.18048  22168034.401    22168033.6204   22168042.7054
        -0.000          -0.000
  -1406424.285 8   -459960.82445  25308350.017    25308348.5254   25308362.0934
        -0.000          -0.000
 99  5  6  1 31 30.0020000  0  8  3 22 17  6 29 23 21 31             0.002263094
 -13061537.705 9  -9934129.08248  22608305.469    22608305.0474   22608314.6394
        -0.000          -0.000
   6419093.557 8   5532679.91445  25970571.744    25970570.1984   25970587.6584
        -0.000          -0.000
 -16239092.763 9 -11821929.93048  21764621.509    21764620.7274   21764629.5234
        -0.000          -0.000
   2797485.836 8   2635706.28245  25084983.682    25084983.0874   25084998.5714
        -0.000          -0.000
 -12570326.521 9  -9320092.23247  23061783.532    23061783.1904   23061793.6584
        -0.000          -0.000
 -15878938.952 9 -11898899.76848  21847402.035    21847401.5194   21847409.9034
        -0.000          -0.000
 -17966168.584 9 -12352605.60348  22164475.086    22164474.2744   22164483.4404
        -0.000          -0.000
  -1489249.522 8   -524499.80745  25292588.827    25292587.7564   25292600.8974
        -0.000          -0.000
 99  5  6  1 32  0.0020000  0  8  3 22 17  6 29 23 21 31             0.002269986
 -13100565.260 9  -9964540.09448  22600878.552    22600878.1884   22600887.9284
        -0.000          -0.000
   6495399.897 8   5592139.15245  25985092.418    25985091.0554   25985108.3484
        -0.000          -0.000
 -16197100.671 9 -11789208.81248  21772612.278    21772611.5554   21772620.3194
        -0.000          -0.000
   2922333.325 8   2732989.82245  25108741.661    25108741.2004   25108756.0714
        -0.000          -0.000
 -12653565.588 9  -9384953.64447  23045943.611    23045943.1864   23045953.6294
        -0.000          -0.000
 -15834605.067 9 -11864353.87948  21855838.575    21855838.0184   21855846.4104
        -0.000          -0.000
 -17984682.606 9 -12367032.05048  22160951.941    22160951.1034   22160960.2914
        -0.000          -0.000
  -1571803.063 8   -588827.10445  25276879.092    25276877.9424   25276891.2784
        -0.000          -0.000
 99  5  6  1 32 30.0020000  0  8  3 22 17  6 29 23 21 31             0.002276927
 -13139048.682 9  -9994527.11648  22593555.309    22593554.9674   22593564.6914
        -0.000          -0.000
   6571671.336 8   5651571.17145  25999606.208    25999604.9674   25999622.7644
        -0.000          -0.000
 -16154782.463 9 -11756233.60748  21780665.154    21780664.4404   21780673.2064
        -0.000          -0.000
   3047243.051 8   2830321.80045  25132511.180    25132510.7554   25132525.5194
        -0.000          -0.000
 -12736549.891 9  -9449616.54947  23030152.041    23030151.6584   23030162.0754
        -0.000          -0.000
 -15790101.237 9 -11829675.57048  21864307.262    21864306.7164   21864315.1314
        -0.000          -0.000
 -18002992.648 9 -12381299.56848  22157467.385    22157466.6554   22157476.0254
        -0.000          -0.000
  -1654095.988 8   -652951.31445  25261219.104    25261217.9824   25261231.3084
        -0.000          -0.000
 99  5  6  1 33  0.0020000  0  9  3 22 17  6 29 23 21 31  1          0.002283904
 -13176990.343 9 -10024092.00048  22586335.378    22586334.9964   22586344.4454
        -0.000          -0.000
   6647919.207 8   5710984.77145  26014115.844    26014114.6424   26014132.3884
        -0.000          -0.000
 -16112136.601 9 -11723003.08348  21788780.494    21788779.7814   21788788.5134
        -0.000          -0.000
   3172205.711 8   2927695.01645  25156290.741    25156290.3324   25156305.3884
        -0.000          -0.000
 -12819283.442 9  -9514084.05947  23014408.271    23014407.8684   23014418.3774
        -0.000          -0.000
 -15745407.161 9 -11794849.00848  21872812.139    21872811.6484   21872820.0834
        -0.000          -0.000
 -18021075.900 9 -12395390.35848  22154026.154    22154025.4674   22154034.8594
        -0.000          -0.000
  -1736129.252 8   -716873.19845  25245608.732    25245607.7494   25245620.5804
        -0.000          -0.000
   -273410.91718   -193309.31852         0.000           0.0005          0.0005
        -0.000          -0.000
 99  5  6  1 33 30.0020000  0  9  3 22 17  6 29 23 21 31  1          0.002290862
 -13214459.035 9 -10053288.33048  22579205.346    22579205.0124   22579214.2194
        -0.000          -0.000
   6724110.366 8   5770354.25945  26028614.296    26028613.5154   26028631.4694
        -0.000          -0.000
 -16069212.257 9 -11689555.56548  21796948.769    21796948.0574   21796956.7274
        -0.000          -0.000
   3297164.640 8   3025065.41945  25180069.635    25180069.4804   25180084.6614
        -0.000          -0.000
 -12901815.841 9  -9578394.83947  22998702.487    22998702.2404   22998713.0474
        -0.000          -0.000
 -15700559.208 9 -11759902.55448  21881346.368    21881345.8704   21881354.4084
        -0.000          -0.000
 -18038957.770 9 -12409324.22448  22150623.314    22150622.6634   22150631.9314
        -0.000          -0.000
  -1817917.617 8   -780604.25745  25230044.991    25230044.1634   25230056.4684
        -0.000          -0.000
   -373678.77718    -31960.06552         0.000           0.0005          0.0005
        -0.000          -0.000
 99  5  6  1 34  0.0020000  0  9  3 22 17  6 29 23 21 31  1          0.002297763
 -13251454.923 9 -10082116.25048  22572165.385    22572164.9554   22572173.9704
        -0.000          -0.000
   6800259.264 8   5829690.87845  26043105.258    26043104.6234   26043122.4484
        -0.000          -0.000
 -16025970.931 9 -11655861.03848  21805177.409    21805176.6704   21805185.2684
        -0.000          -0.000
   3422118.755 8   3122431.99045  25203847.926    25203847.4494   25203863.3054
        -0.000          -0.000
 -12984104.392 9  -9642515.62947  22983043.311    22983043.1214   22983054.0374
        -0.000          -0.000
 -15655546.682 9 -11724827.86348  21889911.941    21889911.4804   21889920.0414
        -0.000          -0.000
 -18056614.243 9 -12423082.46648  22147263.401    22147262.7594   22147271.9244
        -0.000          -0.000
  -1899425.523 8   -844116.76045  25214534.632    25214533.7324   25214545.6724
        -0.000          -0.000
   -473961.278 8   -110101.61052         0.000           0.0004          0.0005
        -0.000          -0.000
 99  5  6  1 34 30.0020000  0  9  3 22 17  6 29 23 21 31  1          0.002304518
 -13287944.160 9 -10110549.37548  22565221.633    22565221.2034   22565230.2764
        -0.000          -0.000
   6876407.386 8   5889026.81145  26057596.066    26057595.2624   26057613.6574
        -0.000          -0.000
 -15982377.359 9 -11621892.04248  21813472.977    21813472.2174   21813480.8484
        -0.000          -0.000
   3547102.305 8   3219821.53645  25227632.052    25227631.3624   25227647.5834
        -0.000          -0.000
 -13066090.863 9  -9706401.01947  22967441.631    22967441.4324   22967452.4184
        -0.000          -0.000
 -15610333.925 9 -11689597.14948  21898515.694    21898515.2034   21898523.6944
        -0.000          -0.000
 -18074007.335 9 -12436635.48748  22143953.564    22143952.9304   22143961.9684
        -0.000          -0.000
  -1980611.716 8   -907378.58145  25199085.344    25199084.4974   25199096.0174
        -0.000          -0.000
   -574202.26718   -188211.09255         0.000           0.0005   25815951.1475
        -0.000          -0.000
 99  5  6  1 35  0.0020000  0  9  3 22 17  6 29 23 21 31  1          0.002311350
 -13323941.566 9 -10138599.25848  22558371.423    22558370.9954   22558380.1844
        -0.000          -0.000
   6952530.582 8   5948343.38445  26072082.121    26072081.3844   26072099.3574
        -0.000          -0.000
 -15938456.179 9 -11587667.75148  21821830.864    21821830.0824   21821838.8014
        -0.000          -0.000
   3672099.947 8   3317222.03845  25251419.172    25251418.4154   25251434.4464
        -0.000          -0.000
 -13147779.506 9  -9770054.34647  22951896.374    22951896.2534   22951907.4144
        -0.000          -0.000
 -15564944.452 9 -11654228.72748  21907153.023    21907152.4744   21907160.9534
        -0.000          -0.000
 -18091169.319 9 -12450008.41748  22140687.670    22140687.0914   22140696.0034
        -0.000          -0.000
  -2061481.143 8   -970393.57145  25183696.370    25183695.3314   25183706.5364
        -0.000          -0.000
   -674401.84618   -266288.30545  25796861.984    25796862.8335   25796883.7434
        -0.000          -0.000
 99  5  6  1 35 30.0020000  0  9  3 22 17  6 29 23 21 31  1          0.002318201
 -13359461.943 9 -10166277.43248  22551612.002    22551611.5744   22551620.8204
        -0.000          -0.000
   7028587.780 8   6007608.49245  26086554.972    26086554.2144   26086572.8204
        -0.000          -0.000
 -15894224.518 9 -11553201.53348  21830247.825    21830247.1144   21830255.9254
        -0.000          -0.000
   3797101.012 8   3414625.22345  25275206.651    25275205.9684   25275222.1654
        -0.000          -0.000
 -13229187.902 9  -9833489.29547  22936404.472    22936404.5274   22936415.6684
        -0.000          -0.000
 -15519415.387 9 -11618751.53348  21915816.884    21915816.3364   21915824.8184
        -0.000          -0.000
 -18108128.551 9 -12463223.36848  22137460.333    22137459.8154   22137468.7474
        -0.000          -0.000
  -2142053.308 8  -1033176.94445  25168363.954    25168362.8364   25168374.0454
        -0.000          -0.000
   -774575.137 8   -344345.00945  25777799.678    25777797.7624   25777821.5194
        -0.000          -0.000
 99  5  6  1 36  0.0020000  0  9  3 22 17  6 29 23 21 31  1          0.002325082
 -13394435.560 9 -10193529.55748  22544956.603    22544956.2024   22544965.5894
        -0.000          -0.000
   7104604.268 8   6066841.78645  26101020.298    26101019.7494   26101038.7034
        -0.000          -0.000
 -15849644.869 9 -11518464.16048  21838731.046    21838730.3414   21838739.1544
        -0.000          -0.000
   3922157.482 8   3512071.54945  25299004.402    25299003.7344   25299019.9444
        -0.000          -0.000
 -13310267.680 9  -9896668.17047  22920975.667    22920975.4994   22920986.4384
        -0.000          -0.000
 -15473709.019 9 -11583136.19248  21924514.562    21924513.9254   21924522.5104
        -0.000          -0.000
 -18124865.119 9 -12476264.81648  22134275.525    22134274.9704   22134283.9134
        -0.000          -0.000
  -2222315.250 8  -1095718.59345  25153090.665    25153089.3784   25153100.7344
        -0.000          -0.000
   -874672.512 8   -422342.56945  25758751.620    25758749.9794   25758773.1694
        -0.000          -0.000
 99  5  6  1 36 30.0020000  0  9  3 22 17  6 29 23 21 31  1          0.002331929
 -13428927.399 9 -10220406.27548  22538392.890    22538392.5854   22538401.9734
        -0.000          -0.000
   7180493.804 8   6125976.19745  26115462.511    26115461.8704   26115480.5124
        -0.000          -0.000
 -15804800.458 9 -11483520.47848  21847264.636    21847263.9444   21847272.8284
        -0.000          -0.000
   4047213.504 8   3609517.55945  25322802.069    25322801.4794   25322817.3854
        -0.000          -0.000
 -13391106.475 9  -9959659.28647  22905592.370    22905592.2794   22905602.9974
        -0.000          -0.000
 -15427903.150 9 -11547443.32148  21933231.155    21933230.5004   21933239.1134
        -0.000          -0.000
 -18141474.262 9 -12489206.96848  22131114.716    22131114.2694   22131123.2344
        -0.000          -0.000
  -2302357.186 8  -1158088.85445  25137859.175    25137858.0734   25137869.3674
        -0.000          -0.000
   -974776.987 8   -500345.63045  25739702.255    25739700.7574   25739723.2704
        -0.000          -0.000
 99  5  6  1 37  0.0020000  0  9  3 22 17  6 29 23 21 31  1          0.002338751
 -13462916.786 9 -10246891.47648  22531924.964    22531924.6534   22531933.9694
        -0.000          -0.000
   7256277.759 8   6185028.39645  26129884.398    26129883.7674   26129901.6884
        -0.000          -0.000
 -15759656.532 9 -11448343.41448  21855855.140    21855854.4774   21855863.4734
        -0.000          -0.000
   4172299.173 8   3706986.66345  25346605.278    25346604.7314   25346620.4954
        -0.000          -0.000
 -13471682.953 9 -10022445.99947  22890259.069    22890258.9734   22890269.5094
        -0.000          -0.000
 -15381987.768 9 -11511665.10448  21941968.721    21941968.0614   21941976.5714
        -0.000          -0.000
 -18157924.484 9 -12502025.28148  22127984.286    22127983.8264   22127992.8074
        -0.000          -0.000
  -2382162.976 8  -1220275.08245  25122672.531    25122671.4864   25122682.7024
        -0.000          -0.000
  -1074868.984 8   -578338.95945  25720655.439    25720653.7314   25720675.6824
        -0.000          -0.000
 99  5  6  1 37 30.0020000  0  9  3 22 17  6 29 23 21 31  1          0.002345567
 -13496347.644 9 -10272941.45748  22525563.392    22525563.0474   22525572.2324
        -0.000          -0.000
   7332016.366 8   6244045.23345  26144297.607    26144296.2414   26144314.3894
        -0.000          -0.000
 -15714166.017 9 -11412896.27948  21864511.744    21864511.0544   21864520.0434
        -0.000          -0.000
   4297456.039 8   3804511.20045  25370422.124    25370421.5124   25370437.0684
        -0.000          -0.000
 -13551949.991 9 -10084991.58347  22874984.693    22874984.5684   22874994.9504
        -0.000          -0.000
 -15335922.752 9 -11475770.30048  21950734.628    21950733.9334   21950742.5624
        -0.000          -0.000
 -18174159.192 9 -12514675.67048  22124894.775    22124894.3444   22124903.3514
        -0.000          -0.000
  -2461692.861 8  -1282246.34245  25107538.654    25107537.8134   25107548.5654
        -0.000          -0.000
  -1174906.523 8   -656289.86845  25701618.631    25701617.3714   25701638.5544
        -0.000          -0.000
 99  5  6  1 38  0.0020000  0  9  3 22 17  6 29 23 21 31  1          0.002352378
 -13529217.041 9 -10298553.94848  22519308.697    22519308.3374   22519317.3064
        -0.000          -0.000
   7407714.588 8   6303030.62545  26158702.577    26158700.8494   26158719.5434
        -0.000          -0.000
 -15668340.203 9 -11377187.87748  21873232.181    21873231.4974   21873240.3854
        -0.000          -0.000
   4422672.776 8   3902082.46245  25394250.476    25394249.9864   25394264.9824
        -0.000          -0.000
 -13631893.865 9 -10147285.35347  22859771.629    22859771.5604   22859782.0694
        -0.000          -0.000
 -15289711.343 9 -11439761.43248  21959528.245    21959527.5964   21959536.4284
        -0.000          -0.000
 -18190184.682 9 -12527163.03048  22121845.207    22121844.8154   22121853.6584
        -0.000          -0.000
  -2540945.559 8  -1344001.66745  25092457.476    25092456.4544   25092467.1524
        -0.000          -0.000
  -1274900.704 8   -734206.96845  25682590.091    25682589.1734   25682609.6504
        -0.000          -0.000
 99  5  6  1 38 30.0020000  0  9  3 22 17  6 29 23 21 31  1          0.002359190
 -13561538.462 9 -10323739.43948  22513158.252    22513157.8754   22513166.6094
        -0.000          -0.000
   7483382.749 8   6361992.66045  26173101.507    26173100.0304   26173118.6254
        -0.000          -0.000
 -15622180.952 9 -11341219.63248  21882016.005    21882015.2764   21882024.1014
        -0.000          -0.000
   4547937.759 8   3999691.32545  25418087.764    25418087.3334   25418102.2414
        -0.000          -0.000
 -13711516.195 9 -10209328.58447  22844619.747    22844619.7994   22844630.3524
        -0.000          -0.000
 -15243367.387 9 -11403649.27548  21968347.092    21968346.4904   21968355.4504
        -0.000          -0.000
 -18205992.954 9 -12539481.11848  22118837.168    22118836.6184   22118845.3574
        -0.000          -0.000
  -2619906.624 8  -1405529.70145  25077431.783    25077430.6264   25077441.0194
        -0.000          -0.000
  -1374857.074 8   -812094.60045  25663568.753    25663568.1814   25663588.2364
        -0.000          -0.000
 99  5  6  1 39  0.0020000  0  9  3 22 17  6 29 23 21 31  1          0.002365974
 -13593340.810 9 -10348520.46448  22507106.404    22507106.0654   22507114.6514
        -0.000          -0.000
   7558988.728 8   6420906.15645  26187488.668    26187487.5694   26187506.0754
        -0.000          -0.000
 -15575738.813 9 -11305030.94848  21890853.527    21890852.8584   21890861.7234
        -0.000          -0.000
   4673198.499 8   4097296.82945  25441924.227    25441924.1914   25441939.1164
        -0.000          -0.000
 -13790850.989 9 -10271147.75947  22829522.916    22829522.8804   22829533.3134
        -0.000          -0.000
 -15196920.830 9 -11367457.16748  21977185.623    21977185.0214   21977193.8904
        -0.000          -0.000
 -18221608.750 9 -12551649.24648  22115865.515    22115864.9254   22115873.6864
        -0.000          -0.000
  -2698602.089 8  -1466850.79645  25062456.398    25062455.1644   25062465.7884
        -0.000          -0.000
  -1474809.808 8   -889979.37645  25644547.955    25644547.8484   25644567.7504
        -0.000          -0.000
 99  5  6  1 39 30.0020000  0  9  3 22 17  6 29 23 21 31  1          0.002372718
 -13624654.233 9 -10372920.49948  22501147.376    22501147.1504   22501155.7004
        -0.000          -0.000
   7634493.16818   6479740.52845  26201856.541    26201855.9935   26201874.4684
        -0.000          -0.000
 -15529053.047 9 -11268652.44748  21899737.550    21899736.8284   21899745.7534
        -0.000          -0.000
   4798415.211 8   4194868.05345  25465751.944    25465752.0494   25465767.5454
        -0.000          -0.000
 -13869929.036 9 -10332766.87247  22814475.037    22814474.8974   22814485.1194
        -0.000          -0.000
 -15150381.879 9 -11331193.07348  21986041.921    21986041.3004   21986049.9544
        -0.000          -0.000
 -18237072.967 9 -12563699.25848  22112922.858    22112922.2124   22112930.9614
        -0.000          -0.000
  -2777042.713 8  -1527973.34045  25047529.098    25047527.9994   25047538.7924
        -0.000          -0.000
  -1574790.686 9   -967886.08245  25625522.406    25625522.4504   25625541.7564
        -0.000          -0.000
 99  5  6  1 40  0.0020000  0  9  3 22 17  6 29 23 21 31  1          0.002379464
 -13655439.219 9 -10396908.76148  22495289.153    22495288.8254   22495297.3764
        -0.000          -0.000
   7709937.596 8   6538528.15845  26216212.780    26216212.1834   26216231.3154
        -0.000          -0.000
 -15482059.367 9 -11232034.01648  21908680.147    21908679.4274   21908688.4304
        -0.000          -0.000
   4923635.376 8   4292442.03045  25489579.632    25489579.7934   25489596.1574
        -0.000          -0.000
 -13948703.190 9 -10394149.19147  22799484.743    22799484.7454   22799494.8934
        -0.000          -0.000
 -15103687.970 9 -11294808.23948  21994927.684    21994927.0294   21994935.5034
        -0.000          -0.000
 -18252341.559 9 -12575596.83648  22110017.411    22110016.7544   22110025.3874
        -0.000          -0.000
  -2855163.540 8  -1588846.65745  25032662.482    25032661.7704   25032672.8864
        -0.000          -0.000
  -1674747.241 9  -1045773.82145  25606501.773    25606501.5284   25606520.4434
        -0.000          -0.000
 99  5  6  1 40 30.0020000  0  9  3 22 17  6 29 23 21 31  1          0.002386222
 -13685700.511 9 -10420488.96648  22489530.870    22489530.4714   22489538.8254
        -0.000          -0.000
   7785317.28618   6597265.37645  26230556.351    26230556.5645   26230575.7524
        -0.000          -0.000
 -15434738.187 9 -11195160.39848  21917684.973    21917684.2934   21917693.4174
        -0.000          -0.000
   5048854.969 8   4390015.55645  25513408.003    25513408.0454   25513424.9754
        -0.000          -0.000
 -14027179.003 9 -10455299.03247  22784551.415    22784551.2444   22784561.4004
        -0.000          -0.000
 -15056824.096 9 -11258290.95248  22003845.648    22003844.9854   22003853.3434
        -0.000          -0.000
 -18267408.381 9 -12587337.19548  22107150.335    22107149.6494   22107158.2024
        -0.000          -0.000
  -2932952.594 8  -1649461.46945  25017859.022    25017858.5874   25017870.5384
        -0.000          -0.000
  -1774663.289 9  -1123629.98145  25587488.913    25587488.3604   25587506.8084
        -0.000          -0.000
 99  5  6  1 41  0.0020000  0  9  3 22 17  6 29 23 21 31  1          0.002392966
 -13715473.838 9 -10443688.94548  22483865.329    22483864.8844   22483873.0804
        -0.000          -0.000
   7860565.05218   6655899.74245  26244874.743    26244875.0035   26244895.4144
        -0.000          -0.000
 -15387132.356 9 -11158064.97448  21926744.076    21926743.4024   21926752.5214
        -0.000          -0.000
   5174026.690 8   4487551.68145  25537227.535    25537227.5044   25537244.6294
        -0.000          -0.000
 -14105397.209 9 -10516248.15247  22769666.588    22769666.5184   22769676.7784
        -0.000          -0.000
 -15009824.246 9 -11221667.70348  22012789.440    22012788.7834   22012797.0644
        -0.000          -0.000
 -18282320.718 9 -12598957.17548  22104312.503    22104311.8744   22104320.4774
        -0.000          -0.000
  -3010445.814 8  -1709845.75845  25003112.351    25003111.6564   25003124.1004
        -0.000          -0.000
  -1874589.832 9  -1201494.31045  25568473.821    25568472.9554   25568491.0524
        -0.000          -0.000
 99  5  6  1 41 30.0020000  0  9  3 22 17  6 29 23 21 31  1          0.002399750
 -13744711.818 9 -10466471.76748  22478301.471    22478301.0564   22478309.3684
        -0.000          -0.000
   7935736.111 8   6714474.35745  26259179.166    26259179.7904   26259199.5964
        -0.000          -0.000
 -15339172.649 9 -11120693.79648  21935870.486    21935869.7734   21935878.9874
        -0.000          -0.000
   5299198.088 8   4585087.52245  25561047.368    25561047.2144   25561064.0804
        -0.000          -0.000
 -14183293.743 9 -10576946.61747  22754842.925    22754843.0514   22754853.1574
        -0.000          -0.000
 -14962653.447 9 -11184911.24148  22021765.758    22021765.0894   22021773.3704
        -0.000          -0.000
 -18297030.260 9 -12610419.13048  22101513.290    22101512.6614   22101521.3864
        -0.000          -0.000
  -3087581.161 8  -1769951.12845  24988433.965    24988432.9884   24988445.5654
        -0.000          -0.000
  -1974472.031 9  -1279324.09245  25549467.034    25549465.6244   25549483.7374
        -0.000          -0.000
 99  5  6  1 42  0.0020000  0  9  3 22 17  6 29 23 21 31  1          0.002406586
 -13773365.912 9 -10488799.61648  22472848.650    22472848.2514   22472856.7864
        -0.000          -0.000
   8010860.568 8   6773012.65245  26273475.368    26273475.8494   26273495.7774
        -0.000          -0.000
 -15290821.002 9 -11083017.20548  21945071.357    21945070.6344   21945080.0884
        -0.000          -0.000
   5424399.577 8   4682646.91345  25584872.989    25584872.7904   25584889.0214
        -0.000          -0.000
 -14260834.202 9 -10637367.62847  22740087.364    22740087.4554   22740097.2524
        -0.000          -0.000
 -14915303.620 9 -11148015.28048  22030776.090    22030775.4324   22030783.8664
        -0.000          -0.000
 -18311499.063 9 -12621693.49248  22098759.945    22098759.3474   22098768.1074
        -0.000          -0.000
  -3164334.102 8  -1829758.55745  24973828.099    24973827.4084   24973839.7864
        -0.000          -0.000
  -2074272.340 8  -1357090.04945  25530474.747    25530473.5234   25530491.7634
        -0.000          -0.000
 99  5  6  1 42 30.0020000  0  9  3 22 17  6 29 23 21 31  1          0.002413440
 -13801481.349 9 -10510707.74548  22467498.389    22467498.0654   22467506.7794
        -0.000          -0.000
   8085864.105 8   6831456.68945  26287749.156    26287749.2394   26287769.0404
        -0.000          -0.000
 -15242147.207 9 -11045089.59448  21954333.540    21954332.8324   21954342.4144
        -0.000          -0.000
   5549566.035 8   4780179.03945  25608691.799    25608691.6704   25608707.4534
        -0.000          -0.000
 -14338076.279 9 -10697556.12847  22725388.577    22725388.7414   22725398.4744
        -0.000          -0.000
 -14867852.456 9 -11111040.36148  22039805.676    22039805.0504   22039813.5694
        -0.000          -0.000
 -18325800.405 9 -12632837.35948  22096038.423    22096037.8324   22096046.6104
        -0.000          -0.000
  -3240766.151 8  -1889315.94245  24959283.686    24959283.0694   24959295.0884
        -0.000          -0.000
  -2174052.193 8  -1434840.16545  25511485.705    25511485.2094   25511503.7524
        -0.000          -0.000
 99  5  6  1 43  0.0020000  0  9  3 22 17  6 29 23 21 31  1          0.002420326
 -13829003.897 9 -10532153.88048  22462260.955    22462260.6904   22462269.6704
        -0.000          -0.000
   8160791.610 8   6889841.51245  26302008.606    26302008.0374   26302027.9084
        -0.000          -0.000
 -15193118.477 9 -11006885.42048  21963663.506    21963662.7434   21963672.1984
        -0.000          -0.000
   5674737.596 8   4877715.10645  25632511.688    25632511.2704   25632527.1074
        -0.000          -0.000
 -14414976.360 9 -10757478.14747  22710755.179    22710755.1314   22710764.9364
        -0.000          -0.000
 -14820269.832 9 -11073962.99448  22048860.440    22048859.7924   22048868.2074
        -0.000          -0.000
 -18339891.006 9 -12643817.02648  22093356.849    22093356.3584   22093365.1964
        -0.000          -0.000
  -3316839.416 8  -1948593.70445  24944807.499    24944806.5304   24944818.5654
        -0.000          -0.000
  -2273766.581 8  -1512539.24345  25492508.870    25492509.1354   25492527.9944
        -0.000          -0.000
 99  5  6  1 43 30.0020000  0  9  3 22 17  6 29 23 21 31  1          0.002427228
 -13855944.054 9 -10553146.20448  22457134.558    22457134.2094   22457143.1934
        -0.000          -0.000
   8235645.495 8   6948168.97045  26316253.718    26316252.4184   26316272.9844
        -0.000          -0.000
 -15143734.031 9 -10968404.05348  21973061.071    21973060.3174   21973069.7774
        -0.000          -0.000
   5799916.361 8   4975256.77045  25656332.554    25656332.3214   25656347.9774
        -0.000          -0.000
 -14491546.307 9 -10817142.91347  22696184.332    22696184.2094   22696194.1344
        -0.000          -0.000
 -14772559.944 9 -11036786.45248  22057939.457    22057938.7274   22057947.0834
        -0.000          -0.000
 -18353779.326 9 -12654639.05548  22090713.920    22090713.5174   22090722.2574
        -0.000          -0.000
  -3392574.198 8  -2007607.72445  24930395.570    24930394.6674   24930406.8304
        -0.000          -0.000
  -2373406.471 8  -1590180.30245  25473546.902    25473547.5014   25473566.5114
        -0.000          -0.000
 99  5  6  1 44  0.0020000  0  9  3 22 17  6 29 23 21 31  1          0.002434118
 -13882311.399 9 -10573692.17948  22452116.964    22452116.6234   22452125.6334
        -0.000          -0.000
   8310396.638 8   7006416.35945  26330478.703    26330477.0404   26330498.3154
        -0.000          -0.000
 -15094014.695 9 -10929661.72448  21982522.458    21982521.7074   21982531.1124
        -0.000          -0.000
   5925092.806 8   5072796.60645  25680152.787    25680152.7204   25680168.9024
        -0.000          -0.000
 -14567810.302 9 -10876569.28447  22681671.477    22681671.3864   22681681.4704
        -0.000          -0.000
 -14724727.855 9 -10999514.69948  22067041.494    22067040.8064   22067049.2334
        -0.000          -0.000
 -18367486.416 9 -12665319.87448  22088105.567    22088105.1134   22088113.8904
        -0.000          -0.000
  -3467999.579 8  -2066380.62245  24916042.631    24916041.5434   24916053.8964
        -0.000          -0.000
  -2472990.516 9  -1667777.69645  25454596.143    25454596.6524   25454615.4844
        -0.000          -0.000
 99  5  6  1 44 30.0020000  0  9  3 22 17  6 29 23 21 31  1          0.002440961
 -13908158.893 9 -10593833.08048  22447198.416    22447198.0284   22447206.9524
        -0.000          -0.000
   8385006.188 8   7064553.44745  26344676.746    26344675.0614   26344695.6384
        -0.000          -0.000
 -15044002.939 9 -10890691.52348  21992039.567    21992038.8284   21992048.0544
        -0.000          -0.000
   6050213.750 8   5170293.21145  25703962.313    25703962.2284   25703978.9474
        -0.000          -0.000
 -14643798.410 9 -10935780.67547  22667211.062    22667210.9974   22667221.3264
        -0.000          -0.000
 -14676802.885 9 -10962170.56748  22076161.273    22076160.6224   22076169.0844
        -0.000          -0.000
 -18381049.275 9 -12675888.31148  22085524.563    22085524.1204   22085533.0014
        -0.000          -0.000
  -3543166.112 8  -2124951.84945  24901738.785    24901738.0644   24901749.9414
        -0.000          -0.000
  -2572561.972 8  -1745365.41745  25435648.087    25435648.1294   25435667.2454
        -0.000          -0.000
 99  5  6  1 45  0.0020000  0  9  3 22 17  6 29 23 21 31  1          0.002447771
 -13933461.393 9 -10613549.30948  22442383.575    22442383.1014   22442391.9874
        -0.000          -0.000
   8459517.90118   7122614.21144  26358855.905    26358854.4665   26358874.6784
        -0.000          -0.000
 -14993656.930 9 -10851460.88548  22001620.173    22001619.4164   22001628.6374
        -0.000          -0.000
   6175318.681 8   5267777.35045  25727768.762    25727768.7274   25727785.7994
        -0.000          -0.000
 -14719465.996 9 -10994742.31847  22652811.770    22652811.7654   22652822.2314
        -0.000          -0.000
 -14628737.917 9 -10924717.33848  22085307.814    22085307.1704   22085315.6714
        -0.000          -0.000
 -18394415.477 9 -12686303.50048  22082981.040    22082980.6114   22082989.4004
        -0.000          -0.000
  -3618046.634 9  -2183300.18345  24887489.722    24887489.1094   24887501.0084
        -0.000          -0.000
  -2672076.652 8  -1822908.87945  25416710.754    25416710.6294   25416729.6584
        -0.000          -0.000
 99  5  6  1 45 30.0020000  0  9  3 22 17  6 29 23 21 31  1          0.002454572
 -13958200.896 9 -10632826.85348  22437675.833    22437675.4104   22437684.1934
        -0.000          -0.000
   8533952.476 8   7180614.95744  26373020.797    26373019.0564   26373039.3704
        -0.000          -0.000
 -14942947.417 9 -10811946.98748  22011269.763    22011269.0764   22011278.2694
        -0.000          -0.000
   6300434.489 8   5365269.95945  25751577.677    25751577.5234   25751594.8564
        -0.000          -0.000
 -14794782.573 9 -11053430.42847  22638479.501    22638479.4374   22638489.8764
        -0.000          -0.000
 -14580501.829 9 -10887130.76548  22094486.934    22094486.2854   22094494.8874
        -0.000          -0.000
 -18407567.449 9 -12696551.73848  22080478.488    22080477.9534   22080486.6484
        -0.000          -0.000
  -3692605.865 9  -2241398.16945  24873301.957    24873301.2414   24873312.7344
        -0.000          -0.000
  -2771514.303 8  -1900392.34845  25397787.902    25397787.7784   25397806.8534
        -0.000          -0.000
 99  5  6  1 46  0.0020000  0  9  3 22 17  6 29 23 21 31  1          0.002461360
 -13982403.659 9 -10651686.14848  22433070.186    22433069.7394   22433078.4414
        -0.000          -0.000
   8608275.716 8   7238529.01245  26387165.079    26387163.3054   26387182.7264
        -0.000          -0.000
 -14891909.251 9 -10772176.99648  22020982.070    22020981.4024   22020990.5274
        -0.000          -0.000
   6425507.286 9   5462729.05745  25775378.736    25775378.3774   25775395.5164
        -0.000          -0.000
 -14869767.931 9 -11111860.45747  22624210.387    22624210.1854   22624220.4034
        -0.000          -0.000
 -14532129.791 9 -10849438.27148  22103691.791    22103691.1534   22103699.8154
        -0.000          -0.000
 -18420537.376 9 -12706658.13448  22078010.389    22078009.8224   22078018.5104
        -0.000          -0.000
  -3766857.042 8  -2299256.09245  24859172.656    24859171.8634   24859183.1214
        -0.000          -0.000
  -2870918.016 8  -1977849.38145  25378871.516    25378871.5744   25378890.5714
        -0.000          -0.000
 99  5  6  1 46 30.0020000  0  9  3 22 17  6 29 23 21 31  1          0.002468149
 -14006063.567 9 -10670122.44048  22428567.800    22428567.3864   22428576.0154
        -0.000          -0.000
   8682500.713 8   7296366.46245  26401289.129    26401288.1774   26401307.6184
        -0.000          -0.000
 -14840525.154 9 -10732137.45248  22030760.170    22030759.5324   22030768.5294
        -0.000          -0.000
   6550539.913 8   5560156.82845  25799172.090    25799171.6254   25799188.3724
        -0.000          -0.000
 -14944402.652 9 -11170017.26147  22610007.827    22610007.5684   22610017.6114
        -0.000          -0.000
 -14483598.031 9 -10811621.31148  22112926.981    22112926.3404   22112935.0124
        -0.000          -0.000
 -18433304.709 9 -12716606.66048  22075580.776    22075580.3044   22075588.9144
        -0.000          -0.000
  -3840769.626 8  -2356850.19545  24845107.234    24845106.7414   24845118.0124
        -0.000          -0.000
  -2970257.409 8  -2055256.27445  25359967.554    25359967.5104   25359986.8034
        -0.000          -0.000
 99  5  6  1 47  0.0020000  0  9  3 22 17  6 29 23 21 31  1          0.002474888
 -14029186.877 9 -10688140.60548  22424167.761    22424167.2424   22424175.7424
        -0.000          -0.000
   8756606.444 8   7354110.95945  26415390.683    26415389.6184   26415409.6184
        -0.000          -0.000
 -14788822.788 9 -10691849.89348  22040598.976    22040598.2414   22040607.0874
        -0.000          -0.000
   6675523.815 8   5657546.63845  25822956.140    25822956.0674   25822972.5474
        -0.000          -0.000
 -15018718.405 9 -11227925.52847  22595865.969    22595865.8074   22595875.5474
        -0.000          -0.000
 -14434925.356 9 -10773694.54548  22122188.980    22122188.3784   22122196.9854
        -0.000          -0.000
 -18445896.399 9 -12726418.31648  22073184.793    22073184.2134   22073192.7384
        -0.000          -0.000
  -3914337.035 8  -2414175.30245  24831107.407    24831106.9834   24831118.4794
        -0.000          -0.000
  -3069533.768 9  -2132614.06945  25341075.614    25341075.6594   25341094.8794
        -0.000          -0.000
 99  5  6  1 47 30.0020000  0  9  3 22 17  6 29 23 21 31  1          0.002481687
 -14051775.220 9 -10705741.90948  22419869.364    22419868.8584   22419877.3454
        -0.000          -0.000
   8830585.14517   7411756.51554  26429468.607    26429467.1835   26429486.0925
        -0.000          -0.000
 -14736820.889 9 -10651328.94848  22050494.610    22050493.9014   22050502.6764
        -0.000          -0.000
   6800449.491 8   5754891.11644  25846728.951    25846729.3004   25846745.1144
        -0.000          -0.000
 -15092719.048 9 -11285588.23747  22581784.315    22581784.1064   22581793.5544
        -0.000          -0.000
 -14386131.942 9 -10735673.69848  22131474.040    22131473.4304   22131482.0554
        -0.000          -0.000
 -18458321.724 9 -12736100.34548  22070820.259    22070819.6904   22070828.2074
        -0.000          -0.000
  -3987549.712 8  -2471224.02545  24817175.162    24817174.8584   24817186.5164
        -0.000          -0.000
  -3168757.157 9  -2209930.56545  25322194.012    25322193.9504   25322212.9204
        -0.000          -0.000
 99  5  6  1 48  0.0020000  0  9  3 22 17  6 29 23 21 31  1          0.002488489
 -14073803.840 9 -10722907.06548  22415677.482    22415676.8904   22415685.5914
        -0.000          -0.000
   8904459.69317   7469320.82154  26443525.960    26443525.2055   26443544.7415
        -0.000          -0.000
 -14684502.832 9 -10610561.64248  22060450.424    22060449.6894   22060458.4524
        -0.000          -0.000
   6925326.175 8   5852197.45344  25870492.262    25870492.9204   25870508.8174
        -0.000          -0.000
 -15166386.198 9 -11342991.08747  22567765.877    22567765.6814   22567775.1014
        -0.000          -0.000
 -14337216.260 9 -10697557.57148  22140782.355    22140781.7364   22140790.4114
        -0.000          -0.000
 -18470553.457 9 -12745631.52548  22068492.578    22068492.0214   22068500.4964
        -0.000          -0.000
  -4060398.677 9  -2527989.31445  24803312.052    24803311.8354   24803323.8754
        -0.000          -0.000
  -3267910.208 9  -2287192.24845  25303325.887    25303325.6634   25303344.4814
        -0.000          -0.000
 99  5  6  1 48 30.0020000  0  9  3 22 17  6 29 23 21 31  1          0.002495291
 -14095282.859 9 -10739643.95448  22411589.882    22411589.3904   22411598.3144
        -0.000          -0.000
   8978220.13917   7526796.26755  26457562.726    26457562.3705   26457581.0775
        -0.000          -0.000
 -14631881.396 9 -10569557.91048  22070463.830    22070463.1264   22070471.8624
        -0.000          -0.000
   7050164.268 7   5949473.76454  25894248.407    25894248.5094          0.0005
        -0.000          -0.000
 -15239732.178 9 -11400143.69848  22553808.507    22553808.3044   22553817.7694
        -0.000          -0.000
 -14288194.071 9 -10659358.45348  22150111.011    22150110.3584   22150119.1054
        -0.000          -0.000
 -18482593.802 9 -12755013.56148  22066201.319    22066200.7374   22066209.2244
        -0.000          -0.000
  -4132892.742 9  -2584478.05945  24789516.501    24789516.2564   24789528.6064
        -0.000          -0.000
  -3366981.280 9  -2364390.05845  25284473.083    25284472.9544   25284491.5774
        -0.000          -0.000
 99  5  6  1 49  0.0020000  0  9  3 22 17  6 29 23 21 31  1          0.002502083
 -14116203.737 9 -10755945.93048  22407608.538    22407608.1164   22407617.2314
        -0.000          -0.000
   9051872.870 8   7584187.87644  26471578.583    26471577.8464   26471596.5034
        -0.000          -0.000
 -14578965.531 9 -10528324.77248  22080533.390    22080532.7254   22080541.5134
        -0.000          -0.000
   7174985.80517   6046737.10754  25918001.366    25918000.3735          0.0005
        -0.000          -0.000
 -15312753.065 9 -11457042.98048  22539912.889    22539912.7444   22539922.3084
        -0.000          -0.000
 -14239088.058 9 -10621094.03248  22159455.610    22159454.9484   22159463.7854
        -0.000          -0.000
 -18494440.955 9 -12764245.06248  22063946.875    22063946.2584   22063954.7664
        -0.000          -0.000
  -4205030.280 9  -2640689.00446  24775789.113    24775788.7184   24775801.1574
        -0.000          -0.000
  -3465979.702 9  -2441531.23545  25265633.907    25265633.8764   25265652.5574
        -0.000          -0.000
 99  5  6  1 49 30.0020000  0  9  3 22 17  6 29 23 21 31  1          0.002508852
 -14136575.559 9 -10771820.07248  22403731.681    22403731.3404   22403740.5194
        -0.000          -0.000
   9125418.667 8   7641495.99944  26485574.728    26485573.4264   26485592.1924
        -0.000          -0.000
 -14525743.946 9 -10486853.41348  22090661.156    22090660.4544   22090669.3614
        -0.000          -0.000
   7299779.89817   6143979.05554         0.000           0.0005          0.0005
        -0.000          -0.000
 -15385446.021 9 -11513686.72648  22526079.763    22526079.6504   22526089.1204
        -0.000          -0.000
 -14189910.042 9 -10582773.50948  22168813.942    22168813.2504   22168822.1214
        -0.000          -0.000
 -18506092.442 9 -12773324.11448  22061729.576    22061728.9734   22061737.5484
        -0.000          -0.000
  -4276822.716 9  -2696631.03846  24762127.402    24762127.0364   24762139.4324
        -0.000          -0.000
  -3564927.229 9  -2518632.75545  25246804.463    25246804.5224   25246823.0014
        -0.000          -0.000
 99  5  6  1 50  0.0020000  0  9  3 22 17  6 29 23 21 31  1          0.002515600
 -14156396.320 9 -10787264.80848  22399959.758    22399959.4714   22399968.7354
        -0.000          -0.000
   9198843.58518   7698710.06745  26499547.391    26499546.0155   26499564.4604
        -0.000          -0.000
 -14472208.874 9 -10445137.78348  22100848.417    22100847.7224   22100856.9164
        -0.000          -0.000
   7424531.94216     23540.17852         0.000           0.0005          0.0005
        -0.000          -0.000
 -15457822.888 9 -11570084.15848  22512306.769    22512306.6354   22512316.0504
        -0.000          -0.000
 -14140659.426 9 -10544396.41348  22178186.035    22178185.3324   22178194.1934
        -0.000          -0.000
 -18517561.736 9 -12782261.19048  22059547.155    22059546.5834   22059555.0524
        -0.000          -0.000
  -4348274.355 8  -2752307.56746  24748530.740    24748530.3694   24748542.4584
        -0.000          -0.000
  -3663824.382 9  -2595695.00245  25227984.810    25227984.6804   25228003.0054
        -0.000          -0.000
 99  5  6  1 50 30.0020000  0  8  3 22 17 29 23 21 31  1             0.002522342
 -14175663.530 9 -10802278.19748  22396293.151    22396292.9194   22396302.2794
        -0.000          -0.000
   9272141.430 8   7755825.08444  26513495.517    26513494.0624   26513511.9764
        -0.000          -0.000
 -14418357.553 9 -10403175.73348  22111095.888    22111095.2474   22111104.5394
        -0.000          -0.000
 -15529867.196 9 -11626222.46147  22498596.836    22498596.8664   22498606.2614
        -0.000          -0.000
 -14091315.207 9 -10505946.37248  22187575.851    22187575.1714   22187584.0534
        -0.000          -0.000
 -18528853.712 9 -12791060.09148  22057398.617    22057397.9214   22057406.2634
        -0.000          -0.000
  -4419374.679 8  -2807710.29045  24735000.887    24735000.5454   24735012.3264
        -0.000          -0.000
  -3762644.127 9  -2672696.94145  25209179.948    25209179.5394   25209197.8124
        -0.000          -0.000
 99  5  6  1 51  0.0020000  0  9  3 22 17 29 23 21  8 31  1          0.002529070
 -14194368.147 9 -10816853.21348  22392733.781    22392733.5134   22392742.7674
        -0.000          -0.000
   9345311.239 7   7812840.33345  26527419.868    26527417.9194   26527436.6954
        -0.000          -0.000
 -14364182.973 9 -10360961.78548  22121405.048    22121404.3604   22121413.5844
        -0.000          -0.000
 -15601574.716 9 -11682098.32747  22484951.415    22484951.3224   22484960.6104
        -0.000          -0.000
 -14041880.037 9 -10467425.45748  22196983.025    22196982.3794   22196991.3114
        -0.000          -0.000
 -18539976.008 9 -12799726.78048  22055282.071    22055281.3774   22055289.7344
        -0.000          -0.000
    -21471.43918    710558.290 1         0.000           0.0001          0.000
        -0.000          -0.000
  -4490127.428 8  -2862842.19945  24721537.238    24721536.6274   24721548.2454
        -0.000          -0.000
  -3861401.845 9  -2749650.55645  25190386.865    25190386.4794   25190404.1404
        -0.000          -0.000
 99  5  6  1 51 30.0020000  0  8  3 17 29 23 21  8 31  1             0.002535789
 -14212493.018 9 -10830976.46248  22389284.844    22389284.5114   22389293.6304
        -0.000          -0.000
 -14309660.843 9 -10318477.02848  22131780.436    22131779.6774   22131788.8704
        -0.000          -0.000
 -15672926.897 9 -11737697.29647  22471373.648    22471373.4024   22471382.6074
        -0.000          -0.000
 -13992331.852 9 -10428816.49248  22206411.694    22206411.1114   22206420.1264
        -0.000          -0.000
 -18550923.002 9 -12808256.87448  22053198.740    22053198.1194   22053206.5174
        -0.000          -0.000
    -86025.14318    -44035.11652         0.000           0.0005          0.0005
        -0.000          -0.000
  -4560534.333 8  -2917704.62445  24708139.545    24708138.6614   24708150.1694
        -0.000          -0.000
  -3960083.533 9  -2826544.94445  25171607.962    25171607.6894   25171624.9304
        -0.000          -0.000
 99  5  6  1 52  0.0020000  0  8  3 17 29 23 21  8 31  1             0.002542498
 -14230055.072 9 -10844661.14748  22385942.948    22385942.5544   22385951.6784
        -0.000          -0.000
 -14254807.435 9 -10275734.12848  22142218.691    22142217.9524   22142227.1804
        -0.000          -0.000
 -15743920.572 9 -11793016.92947  22457863.810    22457863.6544   22457872.7594
        -0.000          -0.000
 -13942667.500 9 -10390117.00148  22215862.529    22215861.9594   22215870.9884
        -0.000          -0.000
 -18561713.181 9 -12816664.77248  22051145.413    22051144.7314   22051153.1484
        -0.000          -0.000
   -150457.408 8    -94241.20252         0.000           0.0004          0.0005
        -0.000          -0.000
  -4630600.309 8  -2972301.35945  24694806.608    24694805.5434   24694817.1484
        -0.000          -0.000
  -4058679.789 9  -2903372.75445  25152845.270    25152845.1094   25152861.9864
        -0.000          -0.000
 99  5  6  1 52 30.0020000  0  8  3 17 29 23 21  8 31  1             0.002549199
 -14247059.421 9 -10857911.25348  22382707.048    22382706.6954   22382715.9054
        -0.000          -0.000
 -14199628.388 9 -10232737.48448  22152718.858    22152718.1124   22152727.4674
        -0.000          -0.000
 -15814543.601 9 -11848047.75147  22444424.821    22444424.5784   22444433.4984
        -0.000          -0.000
 -13892878.125 9 -10351320.10348  22225337.238    22225336.6304   22225345.6494
        -0.000          -0.000
 -18572341.784 9 -12824946.77048  22049122.700    22049122.0804   22049130.5484
        -0.000          -0.000
   -214741.480 8   -144331.78852         0.000           0.0004          0.0005
        -0.000          -0.000
  -4700326.541 8  -3026633.34645  24681537.748    24681536.6494   24681548.6834
        -0.000          -0.000
  -4157177.055 9  -2980123.43545  25134101.718    25134101.2454   25134118.2404
        -0.000          -0.000
 99  5  6  1 53  0.0020000  0  8  3 17 29 23 21  8 31  1             0.002555856
 -14263492.794 9 -10870716.43648  22379579.846    22379579.5394   22379588.7594
        -0.000          -0.000
 -14144107.886 9 -10189474.76848  22163283.923    22163283.2584   22163292.6974
        -0.000          -0.000
 -15884801.388 9 -11902793.95847  22431055.135    22431054.7854   22431063.6894
        -0.000          -0.000
 -13842958.427 9 -10312421.64848  22234836.614    22234835.9744   22234845.0304
        -0.000          -0.000
 -18582795.253 9 -12833092.29448  22047133.476    22047132.8774   22047141.2974
        -0.000          -0.000
   -278871.28618    -39594.96252         0.000           0.0005          0.0005
        -0.000          -0.000
  -4769684.220 8  -3080678.18345  24668339.571    24668338.2644   24668350.3544
        -0.000          -0.000
  -4255583.774 9  -3056803.56345  25115375.516    25115374.7494   25115391.8934
        -0.000          -0.000
 99  5  6  1 53 30.0020000  0  8  3 17 29 23 21  8 31  1             0.002562580
 -14279388.249 9 -10883102.46048  22376555.203    22376554.8634   22376563.9264
        -0.000          -0.000
 -14088267.377 9 -10145962.71248  22173910.119    22173909.4324   22173918.8414
        -0.000          -0.000
 -15954710.918 9 -11957268.81648  22417751.347    22417751.2044   22417760.2244
        -0.000          -0.000
 -13792910.991 9 -10273423.65548  22244360.238    22244359.6104   22244368.6614
        -0.000          -0.000
 -18593090.980 9 -12841114.91048  22045174.279    22045173.6544   22045181.9564
        -0.000          -0.000
   -342855.805 8    -89455.28052         0.000           0.0004          0.0005
        -0.000          -0.000
  -4838670.289 8  -3134433.41545  24655212.307    24655210.5944   24655222.2934
        -0.000          -0.000
  -4353899.489 9  -3133412.78845  25096666.500    25096665.6014   25096682.7254
        -0.000          -0.000
 99  5  6  1 54  0.0020000  0  8  3 17 29 23 21  8 31  1             0.002569325
 -14294743.336 9 -10895067.41048  22373633.384    22373632.9464   22373641.9044
        -0.000          -0.000
 -14032105.355 9 -10102200.12548  22184597.422    22184596.7334   22184606.0564
        -0.000          -0.000
 -16024280.586 9 -12011478.84848  22404512.618    22404512.5594   22404521.4614
        -0.000          -0.000
 -13742723.912 9 -10234316.84148  22253910.545    22253909.8794   22253918.7764
        -0.000          -0.000
 -18603225.981 9 -12849012.28248  22043245.579    22043244.9994   22043253.2094
        -0.000          -0.000
   -406689.008 7   -139197.73352         0.000           0.0004          0.0005
        -0.000          -0.000
  -4907257.145 8  -3187877.56445  24642160.489    24642158.8984   24642170.4174
        -0.000          -0.000
  -4452108.240 9  -3209938.67845  25077977.397    25077976.6994   25077993.8024
        -0.000          -0.000
 99  5  6  1 54 30.0020000  0  8  3 17 29 23 21  8 31  1             0.002576084
 -14309529.700 9 -10906589.20848  22370819.638    22370819.1644   22370828.1644
        -0.000          -0.000
 -13975617.299 9 -10058183.48148  22195346.709    22195346.0024   22195355.4684
        -0.000          -0.000
 -16093508.076 9 -12065422.24448  22391339.214    22391339.0594   22391347.7964
        -0.000          -0.000
 -13692413.602 9 -10195114.01048  22263484.246    22263483.5614   22263492.3554
        -0.000          -0.000
 -18613180.325 9 -12856768.89148  22041351.297    22041350.6714   22041359.0794
        -0.000          -0.000
   -470385.07016    -35190.74152         0.000           0.0005          0.0005
        -0.000          -0.000
  -4975439.197 9  -3241006.32045  24629185.857    24629184.2904   24629195.3844
        -0.000          -0.000
  -4550211.336 9  -3286382.26245  25059308.313    25059307.9034   25059324.9714
        -0.000          -0.000
 99  5  6  1 55  0.0020000  0  8  3 17 29 23 21  8 31  1             0.002582834
 -14323763.007 9 -10917680.05548  22368111.017    22368110.5804   22368119.5934
        -0.000          -0.000
 -13918813.039 9 -10013920.44148  22206156.117    22206155.4094   22206164.9464
        -0.000          -0.000
 -16162410.227 9 -12119112.12448  22378227.552    22378227.3664   22378236.0104
        -0.000          -0.000
 -13642011.059 9 -10155839.31648  22273075.520    22273074.9114   22273083.7404
        -0.000          -0.000
 -18622964.407 9 -12864392.83048  22039489.168    22039488.6694   22039497.2684
        -0.000          -0.000
   -533971.30817    -84701.71652         0.000           0.0005          0.0005
        -0.000          -0.000
  -5043236.271 9  -3293835.08945  24616284.452    24616282.9734   24616293.5724
        -0.000          -0.000
  -4648244.515 9  -3362771.36045  25040652.658    25040652.4584   25040669.2394
        -0.000          -0.000
 99  5  6  1 55 30.0020000  0  7  3 17 29 23 21 31  1                0.002589588
 -14337434.178 9 -10928332.88448  22365509.314    22365508.9214   22365518.0864
        -0.000          -0.000
 -13861680.874 9  -9969401.87748  22217028.037    22217027.3324   22217036.7664
        -0.000          -0.000
 -16230955.766 9 -12172524.13548  22365183.624    22365183.5064   22365192.1634
        -0.000          -0.000
 -13591517.330 9 -10116493.56148  22282684.268    22282683.6594   22282692.4354
        -0.000          -0.000
 -18632568.037 9 -12871876.13348  22037661.704    22037661.1254   22037669.6514
        -0.000          -0.000
  -5110667.440 9  -3346378.74945  24603452.247    24603451.1164   24603461.5384
        -0.000          -0.000
  -4746189.352 9  -3439091.62245  25022014.257    25022013.7814   25022030.2824
        -0.000          -0.000
 99  5  6  1 56  0.0020000  0  7  3 17 29 23 21 31  1                0.002596284
 -14350530.751 9 -10938537.98448  22363016.889    22363016.6164   22363025.9104
        -0.000          -0.000
 -13804208.932 9  -9924618.56548  22227964.636    22227963.9304   22227973.2824
        -0.000          -0.000
 -16299127.648 9 -12225644.98248  22352210.756    22352210.6774   22352219.3464
        -0.000          -0.000
 -13540943.931 9 -10077085.72848  22292308.032    22292307.4374   22292316.2264
        -0.000          -0.000
 -18641980.236 9 -12879210.27948  22035870.430    22035869.8554   22035878.4864
        -0.000          -0.000
  -5177756.873 9  -3398656.11445  24590685.155    24590684.2534   24590694.5064
        -0.000          -0.000
  -4844048.899 9  -3515345.43645  25003391.953    25003391.4034   25003407.6044
        -0.000          -0.000
 99  5  6  1 56 30.0020000  0  8  3 22 17 29 23 21 31  1             0.002602937
 -14363048.799 9 -10948292.28148  22360634.736    22360634.4054   22360643.8274
        -0.000          -0.000
     46269.44717     26487.80852         0.000           0.0005          0.0005
        -0.000          -0.000
 -13746376.356 9  -9879554.25048  22238969.966    22238969.2624   22238978.5124
        -0.000          -0.000
 -16366896.530 9 -12278451.80948  22339314.613    22339314.4754   22339323.2694
        -0.000          -0.000
 -13490293.797 9 -10037618.09248  22301946.417    22301945.8444   22301954.5864
        -0.000          -0.000
 -18651184.587 9 -12886382.46448  22034118.822    22034118.3074   22034126.9054
        -0.000          -0.000
  -5244497.931 9  -3450662.02745  24577984.627    24577983.7864   24577993.8214
        -0.000          -0.000
  -4941822.639 8  -3591532.39645  24984785.577    24984785.1944   24984801.6794
        -0.000          -0.000
 99  5  6  1 57  0.0020000  0  8  3 22 17 29 23 21 31  1             0.002609572
 -14375010.606 9 -10957613.14148  22358358.486    22358358.2114   22358367.6164
        -0.000          -0.000
    117611.05718     82077.86952         0.000           0.0005          0.0005
        -0.000          -0.000
 -13688163.965 9  -9834193.96048  22250047.501    22250046.8034   22250056.0554
        -0.000          -0.000
 -16434263.250 9 -12330945.25948  22326494.995    22326494.9494   22326503.8264
        -0.000          -0.000
 -13439542.072 9  -9998071.30748  22311604.189    22311603.6084   22311612.3364
        -0.000          -0.000
 -18660200.819 9 -12893408.05848  22032403.148    22032402.5854   22032411.1144
        -0.000          -0.000
  -5310876.719 9  -3502385.66345  24565352.876    24565352.1624   24565362.0574
        -0.000          -0.000
  -5039507.656 9  -3667650.22046  24966196.275    24966196.0434   24966212.7894
        -0.000          -0.000
 99  5  6  1 57 30.0020000  0  8  3 22 17 29 23 21 31  1             0.002616205
 -14386418.643 9 -10966502.48648  22356187.796    22356187.4334   22356196.7964
        -0.000          -0.000
    188799.59517    137548.20452         0.000           0.0005          0.0005
        -0.000          -0.000
 -13629579.902 9  -9788544.05848  22261195.711    22261194.9764   22261204.2994
        -0.000          -0.000
 -16501237.277 9 -12383132.70848  22313750.410    22313750.3124   22313759.1594
        -0.000          -0.000
 -13388675.008 9  -9958434.63848  22321284.088    22321283.4374   22321292.0724
        -0.000          -0.000
 -18669041.021 9 -12900296.49948  22030720.807    22030720.2604   22030728.8684
        -0.000          -0.000
  -5376881.440 9  -3553817.79745  24552792.206    24552791.4764   24552801.6184
        -0.000          -0.000
  -5137088.635 9  -3743686.98046  24947627.467    24947626.8784   24947643.5454
        -0.000          -0.000
 99  5  6  1 58  0.0020000  0  8  3 22 17 29 23 21 31  1             0.002622856
 -14397266.422 9 -10974955.26448  22354123.639    22354123.2624   22354132.6064
        -0.000          -0.000
    259836.30418     21711.69152         0.000           0.0005          0.0005
        -0.000          -0.000
 -13570625.855 9  -9742605.84248  22272414.216    22272413.5094   22272422.8284
        -0.000          -0.000
 -16567832.726 9 -12435025.17348  22301077.977    22301077.7054   22301086.5804
        -0.000          -0.000
 -13337676.768 9  -9918695.75148  22330988.900    22330988.1884   22330996.5904
        -0.000          -0.000
 -18677698.445 9 -12907042.51148  22029073.239    22029072.7304   22029081.3804
        -0.000          -0.000
  -5442480.381 9  -3604933.75945  24540309.083    24540308.2884   24540318.6144
        -0.000          -0.000
  -5234551.052 9  -3819631.33445  24929081.045    24929080.1874   24929096.7604
        -0.000          -0.000
 99  5  6  1 58 30.0020000  0  8  3 22 17 29 23 21 31  1             0.002629539
 -14407552.182 9 -10982970.11648  22352166.363    22352166.0074   22352175.2634
        -0.000          -0.000
    330694.71717     76908.57252         0.000           0.0005          0.0005
        -0.000          -0.000
 -13511319.280 9  -9696392.93248  22283699.694    22283699.0264   22283708.3674
        -0.000          -0.000
 -16634069.892 9 -12486638.45848  22288473.389    22288473.1214   22288482.0064
        -0.000          -0.000
 -13286548.809 9  -9878855.77348  22340718.172    22340717.4734   22340725.7654
        -0.000          -0.000
 -18686187.745 9 -12913657.51348  22027457.729    22027457.2494   22027465.8874
        -0.000          -0.000
  -5507646.054 9  -3655712.12745  24527908.713    24527907.8824   24527918.0554
        -0.000          -0.000
  -5331900.430 9  -3895487.62145  24910555.976    24910554.9424   24910571.7844
        -0.000          -0.000
 99  5  6  1 59  0.0020000  0  8  3 22 17 29 23 21 31  1             0.002636257
 -14417259.378 9 -10990534.15348  22350319.227    22350318.8564   22350327.8234
        -0.000          -0.000
    401381.650 7    131957.54752         0.000           0.0004          0.0005
        -0.000          -0.000
 -13451670.709 9  -9649913.55148  22295050.401    22295049.7484   22295059.0724
        -0.000          -0.000
 -16699948.299 9 -12537972.20248  22275937.028    22275936.8604   22275945.7814
        -0.000          -0.000
 -13235274.535 9  -9838901.78948  22350475.230    22350474.5984   22350482.7804
        -0.000          -0.000
 -18694498.136 9 -12920133.11448  22025876.293    22025875.7744   22025884.5294
        -0.000          -0.000
  -5572371.405 9  -3706147.38745  24515592.297    24515591.3184   24515601.2584
        -0.000          -0.000
  -5429114.338 9  -3971238.33745  24892056.764    24892055.5594   24892072.3424
        -0.000          -0.000
 99  5  6  1 59 30.0020000  0  8  3 22 17 29 23 21 31  1             0.002642979
 -14426377.868 9 -10997639.45548  22348583.989    22348583.5684   22348592.3704
        -0.000          -0.000
    471888.95118     16973.09752         0.000           0.0005          0.0005
        -0.000          -0.000
 -13391713.256 9  -9603193.48048  22306460.031    22306459.3494   22306468.6444
        -0.000          -0.000
 -16765475.466 9 -12589032.24148  22263467.494    22263467.2734   22263476.3204
        -0.000          -0.000
 -13183887.052 9  -9798859.57648  22360254.035    22360253.3494   22360261.4934
        -0.000          -0.000
 -18702623.615 9 -12926464.62348  22024330.027    22024329.5444   22024338.2894
        -0.000          -0.000
  -5636680.059 9  -3756257.94145  24503355.166    24503354.1204   24503363.9494
        -0.000          -0.000
  -5526195.663 9  -4046885.75745  24873582.577    24873581.2394   24873598.0144
        -0.000          -0.000
 99  5  6  2  0  0.0020000  0  8  3 22 17 29 23 21 31  1             0.002649698
 -14434906.724 9 -11004285.30848  22346960.785    22346960.4514   22346969.1784
        -0.000          -0.000
    542223.52018     71793.72752         0.000           0.0005          0.0005
        -0.000          -0.000
 -13331455.432 9  -9556239.35048  22317926.806    22317926.1014   22317935.2304
        -0.000          -0.000
 -16830644.356 9 -12639813.09948  22251066.032    22251065.8384   22251075.0824
        -0.000          -0.000
 -13132407.710 9  -9758745.80248  22370050.154    22370049.4284   22370057.7744
        -0.000          -0.000
 -18710571.486 9 -12932657.73848  22022817.643    22022817.1314   22022825.8894
        -0.000          -0.000
  -5700570.347 9  -3806042.52445  24491197.703    24491196.5674   24491206.2344
        -0.000          -0.000
  -5623151.246 9  -4122435.18945  24855131.989    24855130.9824   24855147.6164
        -0.000          -0.000
 99  5  6  2  0 30.0020000  0  8  3 22 17 29 23 21 31  1             0.002656398
 -14442844.456 9 -11010470.54148  22345450.262    22345449.9474   22345458.6004
        -0.000          -0.000
    612391.475 7    126501.00752         0.000           0.0004          0.0005
        -0.000          -0.000
 -13270902.102 9  -9509054.95448  22329449.826    22329449.0444   22329458.0814
        -0.000          -0.000
 -16895446.885 9 -12690308.49648  22238734.262    22238734.1454   22238743.5374
        -0.000          -0.000
 -13080853.561 9  -9718573.73848  22379860.373    22379859.6864   22379868.3004
        -0.000          -0.000
 -18718356.034 9 -12938723.59648  22021336.378    22021335.8664   22021344.5584
        -0.000          -0.000
  -5764058.110 9  -3855513.43445  24479116.686    24479115.3814   24479125.2014
        -0.000          -0.000
  -5719989.668 9  -4197893.32946  24836703.678    24836702.9594   24836719.6414
        -0.000          -0.000
 99  5  6  2  1  0.0020000  0  7  3 17 29 23 21 31  1                0.002663078
 -14450194.690 9 -11016197.99148  22344051.653    22344051.2154   22344059.8514
        -0.000          -0.000
 -13210041.068 9  -9461630.79348  22341031.216    22341030.4674   22341039.6644
        -0.000          -0.000
 -16959869.253 9 -12740507.66148  22226475.020    22226474.9324   22226484.3544
        -0.000          -0.000
 -13029225.100 9  -9678343.76148  22389684.778    22389684.1544   22389692.8894
        -0.000          -0.000
 -18725970.922 9 -12944657.24048  22019887.499    22019886.9194   22019895.4744
        -0.000          -0.000
  -5827155.272 8  -3904679.95945  24467109.444    24467107.9654   24467118.3224
        -0.000          -0.000
  -5816696.393 9  -4273248.84946  24818300.617    24818300.0194   24818316.8144
        -0.000          -0.000
 99  5  6  2  1 30.0020000  0  7  3 17 29 23 21 31  1                0.002669747
 -14456962.852 9 -11021471.87448  22342763.614    22342763.1974   22342771.9104
        -0.000          -0.000
 -13148865.859 9  -9413961.81248  22352672.301    22352671.5584   22352680.9214
        -0.000          -0.000
 -17023907.253 9 -12790407.30748  22214289.123    22214288.8984   22214298.3094
        -0.000          -0.000
 -12977532.729 9  -9638063.98948  22399521.483    22399520.8944   22399529.5654
        -0.000          -0.000
 -18733426.889 9 -12950467.05448  22018468.732    22018468.1614   22018476.5924
        -0.000          -0.000
  -5889854.908 8  -3953536.76845  24455177.242    24455176.0954   24455187.0544
        -0.000          -0.000
  -5913260.626 9  -4348493.35346  24799925.012    24799924.3904   24799941.0304
        -0.000          -0.000
 99  5  6  2  2  0.0020000  0  7  3 17 29 23 21 31  1                0.002676407
 -14463163.947 9 -11026303.89448  22341583.460    22341583.0844   22341591.8924
        -0.000          -0.000
 -13087374.878 9  -9366046.77748  22364373.457    22364372.7574   22364382.3124
        -0.000          -0.000
 -17087573.739 9 -12840017.45848  22202173.771    22202173.5054   22202182.7774
        -0.000          -0.000
 -12925784.727 9  -9597740.86448  22409368.687    22409368.1084   22409376.8004
        -0.000          -0.000
 -18740738.420 9 -12956164.30348  22017077.397    22017076.7954   22017085.1644
        -0.000          -0.000
  -5952170.010 8  -4002093.93445  24443318.413    24443317.6444   24443328.9584
        -0.000          -0.000
  -6009688.304 9  -4423631.41746  24781575.544    24781574.4744   24781591.1954
        -0.000          -0.000
 99  5  6  2  2 30.0020000  0  7  3 17 29 23 21 31  1                0.002683068
 -14468795.521 9 -11030692.13548  22340511.668    22340511.3264   22340520.2304
        -0.000          -0.000
 -13025548.966 9  -9317870.77748  22376138.514    22376137.8424   22376147.4954
        -0.000          -0.000
 -17150854.100 9 -12889326.74548  22190131.810    22190131.5824   22190140.7474
        -0.000          -0.000
 -12873962.939 9  -9557360.25148  22419229.970    22419229.3814   22419238.1594
        -0.000          -0.000
 -18747891.597 9 -12961738.17948  22015716.026    22015715.5174   22015723.9874
        -0.000          -0.000
  -6014096.439 9  -4050348.25845  24431534.226    24431533.3514   24431544.1824
        -0.000          -0.000
  -6105958.004 9  -4498646.40146  24763255.691    24763254.5664   24763271.2754
        -0.000          -0.000
 99  5  6  2  3  0.0020000  0  7  3 17 29 23 21 31  1                0.002689743
 -14473845.328 9 -11034627.04348  22339550.649    22339550.3514   22339559.2934
        -0.000          -0.000
 -12963364.678 9  -9269415.48748  22387971.955    22387971.2794   22387980.7934
        -0.000          -0.000
 -17213731.076 9 -12938321.70348  22178166.523    22178166.3254   22178175.5664
        -0.000          -0.000
 -12822048.348 9  -9516907.32148  22429108.897    22429108.3414   22429117.1774
        -0.000          -0.000
 -18754865.918 9 -12967172.68148  22014388.850    22014388.4064   22014396.8494
        -0.000          -0.000
  -6075611.113 8  -4098281.71545  24419828.889    24419827.5054   24419837.7744
        -0.000          -0.000
  -6202051.538 9  -4573524.12646  24744969.036    24744968.2164   24744984.7944
        -0.000          -0.000
 99  5  6  2  3 30.0020000  0  7  3 17 29 23 21 31  1                0.002696417
 -14478335.109 9 -11038125.57148  22338696.294    22338695.9634   22338704.9784
        -0.000          -0.000
 -12900846.609 9  -9220700.13248  22399868.990    22399868.2644   22399877.6124
        -0.000          -0.000
 -17276233.536 9 -12987024.83248  22166272.502    22166272.3694   22166281.6494
        -0.000          -0.000
 -12770068.455 9  -9476403.49748  22439000.420    22438999.8534   22439008.6424
        -0.000          -0.000
 -18761701.600 9 -12972499.14748  22013088.178    22013087.5974   22013096.0604
        -0.000          -0.000
  -6136738.213 9  -4145913.20345  24408197.198    24408195.8064   24408205.1964
        -0.000          -0.000
  -6297997.691 9  -4648286.99146  24726710.500    24726709.8064   24726726.2264
        -0.000          -0.000
 99  5  6  2  4  0.0020000  0  8  3 17 29 23 21  9 31  1             0.002703089
 -14482239.131 9 -11041167.64548  22337953.469    22337953.0674   22337962.2024
        -0.000          -0.000
 -12837975.045 9  -9171709.32348  22411833.055    22411832.3614   22411841.6674
        -0.000          -0.000
 -17338341.119 9 -13035420.27348  22154453.748    22154453.6114   22154462.8154
        -0.000          -0.000
 -12718004.614 9  -9435834.26548  22448908.004    22448907.4154   22448916.2334
        -0.000          -0.000
 -18768394.707 9 -12977714.53048  22011814.305    22011813.7994   22011822.3874
        -0.000          -0.000
     -1981.74518     -1172.82952         0.000           0.0005          0.0005
        -0.000          -0.000
  -6197459.421 9  -4193228.41445  24396642.183    24396641.0274   24396649.9954
        -0.000          -0.000
  -6393807.342 9  -4722943.48445  24708478.154    24708477.6284   24708493.5784
        -0.000          -0.000
 99  5  6  2  4 30.0020000  0  8  3 17 29 23 21  9 31  1             0.002709774
 -14485540.137 9 -11043739.83748  22337325.315    22337324.9314   22337334.1164
        -0.000          -0.000
 -12774731.242 9  -9122428.46848  22423868.061    22423867.3594   22423876.4744
        -0.000          -0.000
 -17400027.520 9 -13083487.51848  22142715.119    22142715.0274   22142724.1284
        -0.000          -0.000
 -12665832.553 9  -9395180.71348  22458836.152    22458835.5414   22458844.3434
        -0.000          -0.000
 -18774934.504 9 -12982810.45148  22010569.646    22010569.2104   22010577.8444
        -0.000          -0.000
     -3805.402 8     -2589.05652         0.000           0.0004          0.0005
        -0.000          -0.000
  -6257740.706 9  -4240200.80445  24385170.967    24385169.6494   24385178.7514
        -0.000          -0.000
  -6489474.048 9  -4797488.61146  24690272.920    24690272.6214   24690288.3464
        -0.000          -0.000
 99  5  6  2  5  0.0020000  0  8  3 17 29 23 21  9 31  1             0.002716461
 -14488243.772 9 -11045846.54648  22336810.899    22336810.5084   22336819.6164
        -0.000          -0.000
 -12711120.114 9  -9072861.37548  22435972.852    22435972.1604   22435981.2804
        -0.000          -0.000
 -17461310.363 9 -13131240.28948  22131053.387    22131053.2014   22131062.3334
        -0.000          -0.000
 -12613570.043 9  -9354456.66848  22468781.501    22468780.8674   22468789.5284
        -0.000          -0.000
 -18781335.248 9 -12987798.00848  22009351.681    22009351.1634   22009359.6714
        -0.000          -0.000
     -5150.247 8     -3631.21152         0.000           0.0004          0.0005
        -0.000          -0.000
  -6317586.194 8  -4286833.62645  24373782.333    24373781.2834   24373790.4494
        -0.000          -0.000
  -6585024.598 9  -4871943.19646  24672089.975    24672089.7684   24672105.4334
        -0.000          -0.000
 99  5  6  2  5 30.0020000  0  8  3 17 29 23 21  9 31  1             0.002723178
 -14490318.744 9 -11047463.39248  22336416.023    22336415.6614   22336424.6404
        -0.000          -0.000
 -12647113.726 9  -9022986.26948  22448152.921    22448152.2174   22448161.3774
        -0.000          -0.000
 -17522154.978 9 -13178651.59048  22119474.691    22119474.5474   22119483.8884
        -0.000          -0.000
 -12561179.491 9  -9313632.85248  22478751.181    22478750.5354   22478759.0604
        -0.000          -0.000
 -18787557.462 9 -12992646.45348  22008167.636    22008167.0934   22008175.3734
        -0.000          -0.000
     -5960.34518      -335.40452         0.000           0.0005          0.0005
        -0.000          -0.000
  -6376958.747 8  -4333097.92945  24362483.625    24362482.8054   24362492.2914
        -0.000          -0.000
  -6680424.349 9  -4946280.29646  24653936.029    24653935.5364   24653951.1234
        -0.000          -0.000
 99  5  6  2  6  0.0020000  0  8  3 17 29 23 21  9 31  1             0.002729833
 -14491840.769 9 -11048649.37248  22336126.471    22336126.0824   22336134.8684
        -0.000          -0.000
 -12582788.398 9  -8972862.64748  22460393.639    22460392.9144   22460402.2444
        -0.000          -0.000
 -17582619.672 9 -13225766.84948  22107968.491    22107968.3224   22107977.7244
        -0.000          -0.000
 -12508725.831 9  -9272759.87148  22488732.881    22488732.1754   22488740.6604
        -0.000          -0.000
 -18793647.175 9 -12997391.65248  22007008.881    22007008.3154   22007016.4434
        -0.000          -0.000
     -6292.406 7      -608.57452         0.000           0.0004          0.0005
        -0.000          -0.000
  -6435920.305 8  -4379041.93645  24351262.957    24351262.0944   24351272.2844
        -0.000          -0.000
  -6775748.607 9  -5020558.58146  24635796.328    24635795.6644   24635811.2984
        -0.000          -0.000
 99  5  6  2  6 30.0020000  0  8  3 17 29 23 21  9 31  1             0.002736497
 -14492785.492 9 -11049385.49048  22335946.563    22335946.2564   22335954.9584
        -0.000          -0.000
 -12518102.071 9  -8922457.74648  22472703.095    22472702.3024   22472711.6554
        -0.000          -0.000
 -17642666.927 9 -13272556.83048  22096541.846    22096541.6334   22096550.8674
        -0.000          -0.000
 -12456166.707 9  -9231804.71548  22498734.434    22498733.7614   22498742.4144
        -0.000          -0.000
 -18799538.152 9 -13001981.99848  22005887.844    22005887.2614   22005895.3604
        -0.000          -0.000
     -6088.132 7      -468.34152         0.000           0.0004          0.0005
        -0.000          -0.000
  -6494430.852 9  -4424634.53145  24340128.138    24340127.4514   24340138.0864
        -0.000          -0.000
  -6870931.887 9  -5094727.01546  24617683.205    24617682.4444   24617698.2134
        -0.000          -0.000
 99  5  6  2  7  0.0020000  0  8  3 17 29 23 21  9 31  1             0.002743177
 -14493148.670 9 -11049668.46148  22335877.447    22335877.1744   22335885.8694
        -0.000          -0.000
 -12453058.379 9  -8871774.39448  22485080.478    22485079.6934   22485089.0144
        -0.000          -0.000
 -17702294.514 9 -13319019.80848  22085195.037    22085194.8384   22085203.9634
        -0.000          -0.000
 -12403494.371 9  -9190761.34148  22508757.571    22508756.9224   22508765.7434
        -0.000          -0.000
 -18805209.590 9 -13006401.26948  22004808.552    22004807.9884   22004816.1084
        -0.000          -0.000
     -5329.51517       371.87852         0.000           0.0005          0.0005
        -0.000          -0.000
  -6552484.405 9  -4469871.03246  24329080.777    24329080.1284   24329090.8454
        -0.000          -0.000
  -6965950.399 9  -5168767.09346  24599601.538    24599600.7324   24599616.2844
        -0.000          -0.000
 99  5  6  2  7 30.0020000  0  9  3 17 29 23 21  9  8 31  1          0.002749871
 -14492928.373 9 -11049496.77548  22335919.231    22335919.0254   22335927.9624
        -0.000          -0.000
 -12387674.375 9  -8820825.84248  22497522.671    22497521.9194   22497531.2304
        -0.000          -0.000
 -17761492.979 9 -13365148.39548  22073929.958    22073929.7064   22073938.7794
        -0.000          -0.000
 -12350694.985 9  -9149618.97748  22518804.910    22518804.2264   22518813.1304
        -0.000          -0.000
 -18810652.657 9 -13010642.60148  22003772.746    22003772.1764   22003780.4034
        -0.000          -0.000
     -4032.97518      1357.24352         0.000           0.0005          0.0005
        -0.000          -0.000
    -32683.67318    -12666.38552         0.000           0.0005          0.0005
        -0.000          -0.000
  -6610080.150 9  -4514750.81046  24318120.796    24318120.1064   24318130.8444
        -0.000          -0.000
  -7060794.628 9  -5242671.36046  24581553.043    24581552.3564   24581567.5964
        -0.000          -0.000
 99  5  6  2  8  0.0020000  0  9  3 17 29 23 21  9  8 31  1          0.002756543
 -14492152.430 9 -11048892.12348  22336066.834    22336066.6834   22336075.7704
        -0.000          -0.000
 -12321972.880 9  -8769629.89148  22510025.386    22510024.5944   22510033.9074
        -0.000          -0.000
 -17820285.770 9 -13410960.88648  22062742.108    22062741.9014   22062750.8884
        -0.000          -0.000
 -12297798.876 9  -9108401.24648  22528870.695    22528870.0084   22528878.9044
        -0.000          -0.000
 -18815905.581 9 -13014735.77148  22002773.201    22002772.5984   22002780.9504
        -0.000          -0.000
     -2230.930 8      2725.02152         0.000           0.0004          0.0005
        -0.000          -0.000
    -91495.355 8    -58493.07952         0.000           0.0004          0.0005
        -0.000          -0.000
  -6667245.133 9  -4559294.94246  24307242.838    24307242.2464   24307252.9864
        -0.000          -0.000
  -7155487.656 9  -5316457.80846  24563533.533    24563532.7304   24563547.8494
        -0.000          -0.000
 99  5  6  2  8 30.0020000  0  9  3 17 29 23 21  9  8 31  1          0.002763203
 -14490838.923 9 -11047868.59448  22336316.897    22336316.7394   22336325.7454
        -0.000          -0.000
 -12255971.390 9  -8718200.17748  22522585.115    22522584.3494   22522593.6954
        -0.000          -0.000
 -17878714.806 9 -13456489.92448  22051623.613    22051623.3394   22051632.1884
        -0.000          -0.000
 -12244838.876 9  -9067133.71548  22538948.689    22538948.0014   22538956.8474
        -0.000          -0.000
 -18821014.679 9 -13018716.86148  22001801.020    22001800.4004   22001808.7704
        -0.000          -0.000
        45.53718       859.32452         0.000           0.0005          0.0005
        -0.000          -0.000
   -150096.89118   -104154.91952         0.000           0.0005          0.0005
        -0.000          -0.000
  -6724001.927 9  -4603520.97446  24296442.444    24296441.9634   24296452.8604
        -0.000          -0.000
  -7250041.523 9  -5390135.84846  24545540.369    24545539.7364   24545554.6054
        -0.000          -0.000
 99  5  6  2  9  0.0020000  0  9  3 17 29 23 21  9  8 31  1          0.002769849
 -14488952.025 9 -11046398.27148  22336676.159    22336675.8714   22336684.8104
        -0.000          -0.000
 -12189651.648 9  -8666522.46748  22535205.473    22535204.7024   22535213.9754
        -0.000          -0.000
 -17936746.351 9 -13501709.23448  22040580.652    22040580.3544   22040589.0324
        -0.000          -0.000
 -12191786.184 9  -9025793.95848  22549044.306    22549043.5824   22549052.4504
        -0.000          -0.000
 -18825982.416 9 -13022587.80548  22000855.705    22000855.0654   22000863.3524
        -0.000          -0.000
      2806.095 8      2970.22952         0.000           0.0004          0.0005
        -0.000          -0.000
   -208458.18418     -9478.11652         0.000           0.0005          0.0005
        -0.000          -0.000
  -6780331.497 9  -4647414.08346  24285723.226    24285722.7454   24285734.1354
        -0.000          -0.000
  -7344444.815 9  -5463696.54546  24527575.902    24527575.3434   24527590.1004
        -0.000          -0.000
 99  5  6  2  9 30.0020000  0  9  3 17 29 23 21  9  8 31  1          0.002776506
 -14486455.821 9 -11044453.16548  22337151.043    22337150.8324   22337159.8704
        -0.000          -0.000
 -12122962.276 9  -8614556.74048  22547896.031    22547895.2574   22547904.5824
        -0.000          -0.000
 -17994335.439 9 -13546583.76248  22029621.766    22029621.4704   22029630.0814
        -0.000          -0.000
 -12138619.716 9  -8984365.53648  22559161.479    22559160.8284   22559169.5854
        -0.000          -0.000
 -18830795.227 9 -13026338.01748  21999939.826    21999939.1594   21999947.3874
        -0.000          -0.000
      6075.796 8      5452.98552         0.000           0.0004          0.0005
        -0.000          -0.000
   -266530.932 8    -54734.17652         0.000           0.0004          0.0005
        -0.000          -0.000
  -6836206.987 9  -4690953.36346  24275089.983    24275089.6854   24275101.4024
        -0.000          -0.000
  -7438671.667 9  -5537119.75746  24509645.467    24509644.5264   24509658.9974
        -0.000          -0.000
 99  5  6  2 10  0.0020000  0  9  3 17 29 23 21  9  8 31  1          0.002783157
 -14483378.192 9 -11042054.99248  22337736.777    22337736.5164   22337745.6584
        -0.000          -0.000
 -12055922.037 9  -8562317.61348  22560653.314    22560652.5964   22560661.9324
        -0.000          -0.000
 -18051520.808 9 -13591143.71148  22018739.637    22018739.3944   22018748.0274
        -0.000          -0.000
 -12085392.679 9  -8942889.92348  22569290.335    22569289.6664   22569298.2494
        -0.000          -0.000
 -18835493.698 9 -13029999.15748  21999045.506    21999044.9284   21999053.3914
        -0.000          -0.000
      9835.39518      1193.76052         0.000           0.0005          0.0005
        -0.000          -0.000
   -324355.760 7    -99804.97252         0.000           0.0004          0.0005
        -0.000          -0.000
  -6891653.279 9  -4734158.20746  24264538.746    24264538.4904   24264550.2124
        -0.000          -0.000
  -7532740.555 9  -5610419.88546  24491744.470    24491743.5204   24491757.7734
        -0.000          -0.000
 99  5  6  2 10 30.0020000  0  9  3 17 29 23 21  9  8 31  1          0.002789815
 -14479695.602 9 -11039185.42648  22338437.746    22338437.4014   22338446.5324
        -0.000          -0.000
 -11988520.306 9  -8509796.80348  22573479.384    22573478.6364   22573488.0044
        -0.000          -0.000
 -18108278.857 9 -13635370.68648  22007938.889    22007938.6814   22007947.2954
        -0.000          -0.000
 -12032082.757 9  -8901349.72648  22579435.014    22579434.3234   22579442.8414
        -0.000          -0.000
 -18840046.444 9 -13033546.73648  21998179.029    21998178.4884   21998187.1024
        -0.000          -0.000
     14102.047 8      4529.04852         0.000           0.0004          0.0005
        -0.000          -0.000
   -381937.97917     -6369.91352         0.000           0.0005          0.0005
        -0.000          -0.000
  -6946637.066 9  -4777002.62846  24254075.686    24254075.2534   24254086.9514
        -0.000          -0.000
  -7626624.362 9  -5683575.83246  24473877.937    24473877.2404   24473891.8524
        -0.000          -0.000
 99  5  6  2 11  0.0020000  0  8  3 17 29 23 21  9 31  1             0.002796429
 -14475441.654 9 -11035870.64448  22339247.452    22339246.9414   22339256.0104
        -0.000          -0.000
 -11920803.948 9  -8457030.84248  22586365.363    22586364.6554   22586373.9944
        -0.000          -0.000
 -18164623.386 9 -13679275.44548  21997216.822    21997216.6744   21997225.2174
        -0.000          -0.000
 -11978719.289 9  -8859767.81648  22589589.814    22589589.0534   22589597.6864
        -0.000          -0.000
 -18844470.865 9 -13036994.31148  21997337.069    21997336.5214   21997345.1444
        -0.000          -0.000
     18839.520 8      8239.90852         0.000           0.0004          0.0005
        -0.000          -0.000
  -7001185.287 9  -4819507.64646  24243695.575    24243694.9494   24243706.4644
        -0.000          -0.000
  -7720360.133 9  -5756616.42446  24456039.705    24456039.2284   24456054.2484
        -0.000          -0.000
 99  5  6  2 11 30.0020000  0  8  3 17 29 23 21  9 31  1             0.002803094
 -14470549.297 9 -11032058.41348  22340178.296    22340177.8074   22340186.8454
        -0.000          -0.000
 -11852702.736 9  -8403964.97748  22599324.673    22599323.9144   22599333.2174
        -0.000          -0.000
 -18220491.606 9 -13722809.04948  21986585.393    21986585.2844   21986593.6844
        -0.000          -0.000
 -11925248.484 9  -8818102.27148  22599764.828    22599764.0994   22599772.9274
        -0.000          -0.000
 -18848676.010 9 -13040271.02948  21996536.780    21996536.2654   21996544.9634
        -0.000          -0.000
     24121.48118      1319.24752         0.000           0.0005          0.0005
        -0.000          -0.000
  -7055204.207 9  -4861600.22146  24233416.114    24233415.5654   24233426.6094
        -0.000          -0.000
  -7813862.540 9  -5829475.16946  24438246.221    24438245.7454   24438261.0484
        -0.000          -0.000
 99  5  6  2 12  0.0020000  0  8  3 17 29 23 21  9 31  1             0.002809771
 -14465076.011 9 -11027793.51648  22341219.678    22341219.2464   22341228.3684
        -0.000          -0.000
 -11784283.791 9  -8350651.52148  22612344.466    22612343.6604   22612352.8934
        -0.000          -0.000
 -18275935.027 9 -13766011.64048  21976034.933    21976034.7584   21976043.0084
        -0.000          -0.000
 -11871707.359 9  -8776381.90348  22609953.392    22609952.6364   22609961.4244
        -0.000          -0.000
 -18852696.674 9 -13043403.99648  21995771.720    21995771.1454   21995779.8184
        -0.000          -0.000
     29907.175 8      5830.85452         0.000           0.0004          0.0005
        -0.000          -0.000
  -7108731.048 9  -4903309.35046  24223230.431    24223229.8564   24223240.6254
        -0.000          -0.000
  -7907169.977 9  -5902182.00746  24420489.842    24420489.5374   24420504.9294
        -0.000          -0.000
 99  5  6  2 12 30.0020000  0  8  3 17 29 23 21  9 31  1             0.002816429
 -14459065.285 9 -11023109.82648  22342363.477    22342363.0744   22342372.1304
        -0.000          -0.000
 -11715579.908 9  -8297116.03548  22625418.412    22625417.6294   22625426.8034
        -0.000          -0.000
 -18330973.683 9 -13808898.81848  21965561.367    21965561.1694   21965569.3004
        -0.000          -0.000
 -11818110.426 9  -8734618.04348  22620152.575    22620151.8144   22620160.4894
        -0.000          -0.000
 -18856559.174 9 -13046413.71948  21995036.616    21995036.1134   21995044.6914
        -0.000          -0.000
     36174.349 8     10721.33252         0.000           0.0004          0.0005
        -0.000          -0.000
  -7161810.228 9  -4944669.65146  24213129.699    24213129.2094   24213140.1284
        -0.000          -0.000
  -8000318.839 9  -5974765.25946  24402763.728    24402763.5394   24402778.9864
        -0.000          -0.000
 99  5  6  2 13  0.0020000  0  8  3 17 29 23 21  9 31  1             0.002823083
 -14452494.321 9 -11017989.59548  22343614.084    22343613.6284   22343622.4154
        -0.000          -0.000
 -11646551.487 9  -8243327.67947  22638554.126    22638553.2864   22638562.3104
        -0.000          -0.000
 -18385587.109 9 -13851454.65648  21955168.782    21955168.5534   21955176.6004
        -0.000          -0.000
 -11764441.842 9  -8692798.36348  22630365.369    22630364.6354   22630373.2774
        -0.000          -0.000
 -18860260.650 9 -13049297.96948  21994332.254    21994331.7814   21994340.2714
        -0.000          -0.000
     42959.77218      1232.24852         0.000           0.0005          0.0005
        -0.000          -0.000
  -7214445.270 8  -4985683.83046  24203113.107    24203112.7354   24203124.2874
        -0.000          -0.000
  -8093282.158 9  -6047203.93846  24385073.109    24385072.9854   24385088.1324
        -0.000          -0.000
 99  5  6  2 13 30.0020000  0  8  3 17 29 23 21  9 31  1             0.002829756
 -14445347.105 9 -11012420.33248  22344974.312    22344973.8364   22344982.3584
        -0.000          -0.000
 -11577162.533 9  -8189258.39347  22651758.385    22651757.5754   22651766.4674
        -0.000          -0.000
 -18439764.843 9 -13893670.99648  21944858.999    21944858.8014   21944866.8644
        -0.000          -0.000
 -11710680.648 9  -8650906.52948  22640595.793    22640595.0724   22640603.6764
        -0.000          -0.000
 -18863797.196 9 -13052053.70748  21993659.360    21993658.8374   21993667.2094
        -0.000          -0.000
     50294.353 8      6955.47652         0.000           0.0004          0.0005
        -0.000          -0.000
  -7266624.860 8  -5026343.13546  24193182.847    24193182.7794   24193194.8594
        -0.000          -0.000
  -8186024.162 9  -6119470.15046  24367424.872    24367424.5344   24367439.2764
        -0.000          -0.000
 99  5  6  2 14  0.0020000  0  8  3 17 29 23 21  9 31  1             0.002836419
 -14437655.660 9 -11006427.00048  22346437.901    22346437.3934   22346445.9324
        -0.000          -0.000
 -11507442.687 9  -8134931.25847  22665025.561    22665024.7704   22665033.6224
        -0.000          -0.000
 -18493546.183 9 -13935578.44648  21934624.588    21934624.4364   21934632.5424
        -0.000          -0.000
 -11656844.852 9  -8608956.55748  22650840.434    22650839.7404   22650848.2554
        -0.000          -0.000
 -18867213.784 9 -13054715.96448  21993009.306    21993008.7474   21993017.0294
        -0.000          -0.000
     58154.910 8     13101.32352         0.000           0.0004          0.0005
        -0.000          -0.000
  -7318407.652 8  -5066693.22446  24183328.468    24183328.6014   24183340.9874
        -0.000          -0.000
  -8278585.777 9  -6191595.79246  24349810.745    24349810.5174   24349825.0944
        -0.000          -0.000
 99  5  6  2 14 30.0020000  0  8  3 17 29 23 21  9 31  1             0.002843087
 -14429373.678 9 -10999973.49948  22348013.732    22348013.2634   22348021.9844
        -0.000          -0.000
 -11437351.594 9  -8080314.82247  22678363.400    22678362.5964   22678371.4284
        -0.000          -0.000
 -18546917.038 9 -13977166.04648  21924468.408    21924468.2864   21924476.3564
        -0.000          -0.000
 -11602913.436 9  -8566932.07648  22661103.182    22661102.5354   22661111.0204
        -0.000          -0.000
 -18870499.163 9 -13057275.97648  21992384.170    21992383.5704   21992391.8144
        -0.000          -0.000
     66566.29918       957.36252         0.000           0.0005          0.0005
        -0.000          -0.000
  -7369770.883 9  -5106716.38946  24173554.140    24173554.3574   24173566.5934
        -0.000          -0.000
  -8370945.377 9  -6263564.04746  24332235.398    24332235.0644   24332249.4324
        -0.000          -0.000
 99  5  6  2 15  0.0020000  0  8  3 17 29 23 21  9 31  1             0.002849749
 -14420510.099 9 -10993066.81648  22349700.093    22349699.7554   22349708.6004
        -0.000          -0.000
 -11366915.698 9  -8025429.69947  22691766.861    22691766.0974   22691774.9364
        -0.000          -0.000
 -18599907.130 9 -14018456.94948  21914384.720    21914384.5774   21914392.5224
        -0.000          -0.000
 -11548913.425 9  -8524854.12748  22671379.045    22671378.4014   22671386.8354
        -0.000          -0.000
 -18873686.492 9 -13059759.58748  21991777.574    21991776.9404   21991785.2164
        -0.000          -0.000
     75490.912 8      7911.06242         0.000           0.0004          0.0004
        -0.000          -0.000
  -7420717.338 9  -5146414.82146  24163859.540    24163859.6774   24163871.3494
        -0.000          -0.000
  -8463133.287 9  -6335398.52446  24314692.913    24314692.4684   24314706.4614
        -0.000          -0.000
 99  5  6  2 15 30.0020000  0  8  3 17 29 23 21  9 31  1             0.002856419
 -14411039.671 9 -10985687.27048  22351502.246    22351501.8974   22351510.5524
        -0.000          -0.000
 -11296120.144 9  -7970264.35947  22705238.970    22705238.1814   22705247.1104
        -0.000          -0.000
 -18652490.521 9 -14059430.93648  21904378.327    21904378.1954   21904386.0604
        -0.000          -0.000
 -11494819.194 9  -8482702.76548  22681672.905    22681672.2554   22681680.7024
        -0.000          -0.000
 -18876726.837 9 -13062128.68148  21991198.822    21991198.3104   21991206.6944
        -0.000          -0.000
     84953.189 8     15281.90652         0.000           0.0004          0.0005
        -0.000          -0.000
  -7471190.707 9  -5185744.59646  24154255.146    24154255.1074   24154266.1684
        -0.000          -0.000
  -8555135.215 9  -6407088.08546  24297185.768    24297185.3984   24297198.8124
        -0.000          -0.000
 99  5  6  2 16  0.0020000  0  8  3 17 29 23 21  9 31  1             0.002863100
 -14400951.371 9 -10977826.27048  22353421.986    22353421.6684   22353430.1534
        -0.000          -0.000
 -11224960.020 9  -7914814.92047  22718780.229    22718779.4664   22718788.6294
        -0.000          -0.000
 -18704644.874 9 -14100070.60948  21894453.570    21894453.4264   21894461.3184
        -0.000          -0.000
 -11440628.910 9  -8440476.56848  22691984.978    22691984.2664   22691992.7744
        -0.000          -0.000
 -18879596.021 9 -13064364.38448  21990652.961    21990652.4284   21990660.7664
        -0.000          -0.000
     94957.36118       473.17852         0.000           0.0005          0.0005
        -0.000          -0.000
  -7521163.073 9  -5224683.98746  24144746.156    24144745.9794   24144756.4554
        -0.000          -0.000
  -8646949.885 9  -6478631.72246  24279714.275    24279713.7744   24279726.8834
        -0.000          -0.000
 99  5  6  2 16 30.0020000  0  8  3 17 29 23 21  9 31  1             0.002869768
 -14390281.245 9 -10969511.88648  22355452.391    22355452.0634   22355460.4874
        -0.000          -0.000
 -11153470.023 9  -7859108.42247  22732384.336    22732383.5884   22732392.9674
        -0.000          -0.000
 -18756391.094 9 -14140392.26348  21884606.596    21884606.4124   21884614.2654
        -0.000          -0.000
 -11386386.151 9  -8398209.49348  22702307.007    22702306.2814   22702314.8114
        -0.000          -0.000
 -18882321.075 9 -13066487.78648  21990134.360    21990133.8074   21990142.2064
        -0.000          -0.000
    105450.511 8      8644.00442         0.000           0.0004          0.0004
        -0.000          -0.000
  -7570647.005 9  -5263242.79146  24135330.403    24135329.8894   24135339.8384
        -0.000          -0.000
  -8738604.057 9  -6550050.31446  24262272.974    24262272.3894   24262285.3064
        -0.000          -0.000
 99  5  6  2 17  0.0020000  0  8  3 17 29 23 21  9 31  1             0.002876423
 -14379034.883 9 -10960748.48548  22357592.604    22357592.2414   22357600.5094
        -0.000          -0.000
 -11081647.240 9  -7803142.61848  22746051.852    22746051.0564   22746060.4424
        -0.000          -0.000
 -18807695.234 9 -14180369.43148  21874843.696    21874843.5214   21874851.4124
        -0.000          -0.000
 -11332088.140 9  -8355899.34948  22712639.535    22712638.8274   22712647.3454
        -0.000          -0.000
 -18884861.070 9 -13068466.98448  21989650.904    21989650.4224   21989658.8824
        -0.000          -0.000
    116442.185 8     17182.47052         0.000           0.0004          0.0005
        -0.000          -0.000
  -7619630.812 9  -5301411.88846  24126009.260    24126008.4734   24126018.1604
        -0.000          -0.000
  -8830075.126 9  -6621326.20746  24244866.092    24244865.7304   24244878.6634
        -0.000          -0.000
 99  5  6  2 17 30.0020000  0  8  3 17 29 23 21  9 31  1             0.002883134
 -14367212.011 9 -10951535.85148  22359842.526    22359842.1034   22359850.3424
        -0.000          -0.000
 -11009480.160 9  -7746908.53347  22759784.855    22759784.0594   22759793.3104
        -0.000          -0.000
 -18858539.124 9 -14219987.96548  21865168.432    21865168.2494   21865176.1424
        -0.000          -0.000
 -11277725.076 9  -8313538.50448  22722984.335    22722983.6464   22722992.1934
        -0.000          -0.000
 -18887195.812 9 -13070286.22648  21989206.735    21989206.1894   21989214.5474
        -0.000          -0.000
    127950.34017     17182.470 1         0.000           0.0001          0.000
        -0.000          -0.000
  -7668117.336 9  -5339193.46546  24116782.170    24116781.5104   24116791.1414
        -0.000          -0.000
  -8921338.062 9  -6692439.91746  24227499.033    24227498.5334   24227511.5134
        -0.000          -0.000
 99  5  6  2 18  0.0020000  0  8  3 17 29 23 21  9 31  1             0.002889683
 -14354835.385 9 -10941891.73048  22362197.783    22362197.2634   22362205.5764
        -0.000          -0.000
 -10936993.644 9  -7690425.56047  22773578.402    22773577.6704   22773586.7194
        -0.000          -0.000
 -18908947.087 9 -14259266.81948  21855576.136    21855575.9504   21855583.7314
        -0.000          -0.000
 -11223309.786 9  -8271136.98248  22733338.983    22733338.3484   22733347.0644
        -0.000          -0.000
 -18889362.046 9 -13071974.18348  21988794.498    21988793.9754   21988802.3464
        -0.000          -0.000
    139944.07116      9110.78852         0.000           0.0005          0.0005
        -0.000          -0.000
  -7716147.859 9  -5376619.74246  24107642.174    24107641.4574   24107651.4094
        -0.000          -0.000
  -9012415.110 9  -6763408.78346  24210167.315    24210166.8014   24210179.8584
        -0.000          -0.000
 99  5  6  2 18 30.0020000  0  8  3 17 29 23 21  9 31  1             0.002896281
 -14341888.215 9 -10931803.02748  22364661.477    22364661.0574   22364669.4604
        -0.000          -0.000
 -10864190.665 9  -7633695.98247  22787432.265    22787431.5404   22787440.4934
        -0.000          -0.000
 -18958915.321 9 -14298203.03148  21846067.421    21846067.2734   21846074.9774
        -0.000          -0.000
 -11168832.504 9  -8228687.15648  22743705.667    22743705.0304   22743713.8544
        -0.000          -0.000
 -18891355.987 9 -13073527.88148  21988415.145    21988414.6074   21988422.9724
        -0.000          -0.000
    152454.19817     18757.31252         0.000           0.0005          0.0005
        -0.000          -0.000
  -7763721.505 9  -5413690.02046  24098589.397    24098588.6144   24098598.4624
        -0.000          -0.000
  -9103290.230 9  -6834220.30946  24192874.320    24192873.5534   24192886.5924
        -0.000          -0.000
 99  5  6  2 19  0.0020000  0  8  3 17 29 23 21  9 31  1             0.002902863
 -14328377.264 9 -10921275.01148  22367232.533    22367232.0774   22367240.7044
        -0.000          -0.000
 -10791086.982 9  -7576732.08447  22801343.364    22801342.6594   22801351.8364
        -0.000          -0.000
 -19008452.270 9 -14336803.18448  21836640.781    21836640.6984   21836648.4004
        -0.000          -0.000
 -11114306.629 9  -8186199.46248  22754081.732    22754081.0274   22754089.7484
        -0.000          -0.000
 -18893206.192 9 -13074969.57348  21988063.143    21988062.5614   21988070.8374
        -0.000          -0.000
    165482.86917     28808.19052         0.000           0.0005          0.0005
        -0.000          -0.000
  -7810851.045 9  -5450414.25146  24089621.029    24089620.3734   24089630.0364
        -0.000          -0.000
  -9193970.330 9  -6904879.90346  24175618.205    24175617.4994   24175630.4354
        -0.000          -0.000
 99  5  6  2 19 30.0020000  0  8  3 17 29 23 21  9 31  1             0.002909449
 -14314276.841 9 -10910287.66148  22369915.861    22369915.3804   22369924.0464
        -0.000          -0.000
 -10717656.746 9  -7519513.72447  22815316.669    22815315.9464   22815325.2564
        -0.000          -0.000
 -19057544.052 9 -14375056.44648  21827299.035    21827298.8464   21827306.6074
        -0.000          -0.000
 -11059703.212 9  -8143651.32648  22764472.399    22764471.7244   22764480.3984
        -0.000          -0.000
 -18894929.806 9 -13076312.61348  21987735.077    21987734.4884   21987742.7824
        -0.000          -0.000
    179052.97517      9623.13352         0.000           0.0005          0.0005
        -0.000          -0.000
  -7857509.040 9  -5486771.06146  24080742.409    24080741.7894   24080751.2904
        -0.000          -0.000
  -9284437.598 9  -6975373.65546  24158402.634    24158401.8574   24158414.7174
        -0.000          -0.000
 99  5  6  2 20  0.0020000  0  8  3 17 29 23 21  9 31  1             0.002916058
 -14299556.925 9 -10898817.59348  22372716.998    22372716.4914   22372725.1154
        -0.000          -0.000
 -10643877.969 9  -7462023.79847  22829356.403    22829355.6664   22829364.9114
        -0.000          -0.000
 -19106175.516 9 -14412951.02148  21818044.688    21818044.4924   21818052.3104
        -0.000          -0.000
 -11005015.682 9  -8101037.66048  22774878.962    22774878.3504   22774887.0624
        -0.000          -0.000
 -18896511.459 9 -13077545.04848  21987433.914    21987433.3474   21987441.7724
        -0.000          -0.000
    193180.42617     20528.31752         0.000           0.0005          0.0005
        -0.000          -0.000
  -7903660.953 9  -5522733.50346  24071960.021    24071959.3394   24071968.8614
        -0.000          -0.000
  -9374673.226 9  -7045686.91446  24141231.261    24141230.3054   24141243.1524
        -0.000          -0.000
 99  5  6  2 20 30.0020000  0  8  3 17 29 23 21  9 31  1             0.002922672
 -14284259.752 9 -10886897.71448  22375627.694    22375627.3764   22375635.9814
        -0.000          -0.000
 -10569781.666 9  -7404286.44947  22843456.661    22843455.8344   22843464.9564
        -0.000          -0.000
 -19154371.669 9 -14450506.39248  21808873.060    21808872.8424   21808880.7354
        -0.000          -0.000
 -10950300.185 9  -8058402.20748  22785291.038    22785290.3714   22785299.1674
        -0.000          -0.000
 -18897991.622 9 -13078698.39548  21987152.140    21987151.5824   21987160.0004
        -0.000          -0.000
    207824.48117     31836.11352         0.000           0.0005          0.0005
        -0.000          -0.000
  -7949329.248 9  -5558319.10646  24063269.670    24063268.7464   24063278.4234
        -0.000          -0.000
  -9464705.507 9  -7115841.73046  24124098.329    24124097.4364   24124110.2964
        -0.000          -0.000
 99  5  6  2 21  0.0020000  0  8  3 17 29 23 21  9 31  1             0.002929288
 -14268380.792 9 -10874524.48648  22378649.239    22378649.0044   22378657.7034
        -0.000          -0.000
 -10495319.574 9  -7346264.07347  22857626.405    22857625.5754   22857634.7184
        -0.000          -0.000
 -19202106.640 9 -14487702.40248  21799789.211    21799789.0404   21799797.0464
        -0.000          -0.000
 -10895523.588 9  -8015719.13948  22795714.788    22795714.0564   22795722.7874
        -0.000          -0.000
 -18899353.891 9 -13079759.87348  21986892.878    21986892.3014   21986900.8444
        -0.000          -0.000
    222978.34517      9781.45352         0.000           0.0005          0.0005
        -0.000          -0.000
  -7994493.323 9  -5593511.82246  24054674.970    24054674.0274   24054683.7274
        -0.000          -0.000
  -9554520.798 9  -7185827.44646  24107006.710    24107005.8684   24107018.6984
        -0.000          -0.000
 99  5  6  2 21 30.0020000  0  9  3 17 29 23 21  9  8 31  1          0.002935855
 -14251941.389 9 -10861714.54148  22381777.542    22381777.2584   22381786.1894
        -0.000          -0.000
 -10420506.161 9  -7287967.91347  22871862.974    22871862.0994   22871871.2674
        -0.000          -0.000
 -19249403.297 9 -14524556.87048  21790788.861    21790788.6024   21790796.8044
        -0.000          -0.000
 -10840696.394 9  -7972996.63948  22806148.088    22806147.3634   22806155.9304
        -0.000          -0.000
 -18900585.790 9 -13080719.76748  21986658.361    21986657.7744   21986666.4234
        -0.000          -0.000
    238629.576 8     21972.77352         0.000           0.0004          0.0005
        -0.000          -0.000
    -13387.79018     -3039.43352         0.000           0.0005          0.0005
        -0.000          -0.000
  -8039160.472 9  -5628317.34046  24046174.726    24046173.8414   24046183.4744
        -0.000          -0.000
  -9644144.026 9  -7255663.50546  24089951.742    24089950.9354   24089963.7394
        -0.000          -0.000
 99  5  6  2 22  0.0020000  0  9  3 17 29 23 21  9  8 31  1          0.002942464
 -14234922.091 9 -10848452.73648  22385016.197    22385015.8464   22385025.0224
        -0.000          -0.000
 -10345322.002 9  -7229382.86047  22886170.026    22886169.2144   22886178.3414
        -0.000          -0.000
 -19296242.505 9 -14561054.88848  21781875.363    21781875.2024   21781883.5114
        -0.000          -0.000
 -10785793.136 9  -7930214.85548  22816595.806    22816595.0804   22816603.5574
        -0.000          -0.000
 -18901642.112 9 -13081542.84648  21986457.199    21986456.7034   21986465.3454
        -0.000          -0.000
    254821.616 8     34585.65152         0.000           0.0004          0.0005
        -0.000          -0.000
    -64712.992 8    -43033.11142         0.000           0.0004          0.0004
        -0.000          -0.000
  -8083303.973 9  -5662714.83546  24037774.157    24037773.4064   24037782.8564
        -0.000          -0.000
  -9733550.824 9  -7325330.91046  24072938.046    24072937.3424   24072949.9584
        -0.000          -0.000
 99  5  6  2 22 30.0020000  0  9  3 17 29 23 21  9  8 31  1          0.002949062
 -14217371.924 9 -10834777.28048  22388355.903    22388355.4644   22388364.8474
        -0.000          -0.000
 -10269805.832 9  -7170539.12247  22900540.163    22900539.3864   22900548.5904
        -0.000          -0.000
 -19342658.679 9 -14597223.26248  21773042.629    21773042.4664   21773050.6494
        -0.000          -0.000
 -10730831.335 9  -7887387.44848  22827054.778    22827054.0194   22827062.4194
        -0.000          -0.000
 -18902558.148 9 -13082256.60448  21986282.878    21986282.3544   21986291.0204
        -0.000          -0.000
    271531.32617      9918.36252         0.000           0.0005          0.0005
        -0.000          -0.000
   -115707.434 8    -82768.75252         0.000           0.0004          0.0005
        -0.000          -0.000
  -8126964.992 9  -5696736.35646  24029465.533    24029464.7894   24029474.2184
        -0.000          -0.000
  -9822771.492 9  -7394853.26846  24055960.127    24055959.1964   24055971.5394
        -0.000          -0.000
 99  5  6  2 23  0.0020000  0  9  3 17 29 23 21  9  8 31  1          0.002955680
 -14199246.933 9 -10820653.91148  22391804.808    22391804.4074   22391813.9184
        -0.000          -0.000
 -10193926.604 9  -7111412.47347  22914979.567    22914978.8304   22914987.9504
        -0.000          -0.000
 -19388622.812 9 -14633039.39748  21764295.947    21764295.6924   21764303.7224
        -0.000          -0.000
 -10675744.233 9  -7844462.41848  22837537.434    22837536.6724   22837545.1094
        -0.000          -0.000
 -18903284.429 9 -13082822.51448  21986144.566    21986144.1494   21986152.7414
        -0.000          -0.000
    288829.16217     23474.90952         0.000           0.0005          0.0005
        -0.000          -0.000
   -166337.91218   -122220.87955         0.000           0.0005   24014550.5535
        -0.000          -0.000
  -8170103.469 9  -5730350.71646  24021256.222    24021255.7014   24021265.2424
        -0.000          -0.000
  -9911757.776 9  -7464192.97746  24039026.510    24039025.5694   24039037.8134
        -0.000          -0.000
 99  5  6  2 23 30.0020000  0  9  3 17 29 23 21  9  8 31  1          0.002962303
 -14180570.641 9 -10806100.95148  22395358.715    22395358.3464   22395367.8614
        -0.000          -0.000
 -10117748.114 9  -7052052.63147  22929475.926    22929475.1254   22929484.2514
        -0.000          -0.000
 -19434173.349 9 -14668533.25948  21755627.762    21755627.5924   21755635.6024
        -0.000          -0.000
 -10620573.079 9  -7801471.88548  22848036.000    22848035.2854   22848043.7444
        -0.000          -0.000
 -18903855.459 9 -13083267.43648  21986036.207    21986035.6544   21986044.0084
        -0.000          -0.000
    306691.91017     37478.71552         0.000           0.0005          0.0005
        -0.000          -0.000
   -216650.19018   -161425.14945  24004966.496    24004966.5575   24004976.5984
        -0.000          -0.000
  -8212758.066 9  -5763588.02946  24013138.874    24013138.6504   24013148.4594
        -0.000          -0.000
 -10000536.443 9  -7533370.93946  24022132.227    24022131.3454   24022143.4984
        -0.000          -0.000
 99  5  6  2 24  0.0020000  0  9  3 17 29 23 21  9  8 31  1          0.002968909
 -14161361.045 9 -10791132.43148  22399014.080    22399013.7864   22399023.1454
        -0.000          -0.000
 -10041275.898 9  -6992463.91247  22944028.053    22944027.2904   22944036.4344
        -0.000          -0.000
 -19479318.153 9 -14703710.96348  21747036.992    21747036.8104   21747044.8474
        -0.000          -0.000
 -10565319.284 9  -7758416.96948  22858550.397    22858549.7254   22858558.1864
        -0.000          -0.000
 -18904295.060 9 -13083609.95748  21985952.602    21985952.0324   21985960.2634
        -0.000          -0.000
    325078.20918      9961.62552         0.000           0.0005          0.0005
        -0.000          -0.000
   -266675.160 8   -200405.57545  23995447.152    23995448.0764   23995455.9284
        -0.000          -0.000
  -8254954.433 9  -5796468.28246  24005109.176    24005108.8794   24005118.8164
        -0.000          -0.000
 -10089100.216 9  -7602381.43546  24005278.956    24005278.0634   24005290.0754
        -0.000          -0.000
 99  5  6  2 24 30.0020000  0  9  3 17 29 23 21  9  8 31  1          0.002975503
 -14141599.513 9 -10775733.82448  22402774.537    22402774.2924   22402783.4274
        -0.000          -0.000
  -9964498.681 9  -6932637.51947  22958638.353    22958637.5664   22958646.6974
        -0.000          -0.000
 -19524039.446 9 -14738558.65848  21738526.689    21738526.5314   21738534.6384
        -0.000          -0.000
 -10509977.511 9  -7715293.50648  22869081.629    22869080.9554   22869089.4174
        -0.000          -0.000
 -18904595.082 9 -13083843.70448  21985895.654    21985895.0614   21985903.1844
        -0.000          -0.000
    343986.39717     24728.49752         0.000           0.0005          0.0005
        -0.000          -0.000
   -316414.303 8   -239163.28144  23985981.866    23985980.7424   23985990.8864
        -0.000          -0.000
  -8296678.840 9  -5828980.78246  23997169.676    23997169.0664   23997179.1264
        -0.000          -0.000
 -10177427.674 9  -7671207.79746  23988470.797    23988469.7194   23988481.4454
        -0.000          -0.000
 99  5  6  2 25  0.0020000  0  9  3 17 29 23 21  9  8 31  1          0.002982088
 -14121244.372 9 -10759872.67448  22406648.137    22406647.8604   22406656.7294
        -0.000          -0.000
  -9887380.243 9  -6872545.25747  22973313.445    22973312.7074   22973321.9684
        -0.000          -0.000
 -19568294.788 9 -14773043.27648  21730105.231    21730105.0814   21730113.0474
        -0.000          -0.000
 -10454531.622 9  -7672088.91048  22879632.656    22879631.9904   22879640.4084
        -0.000          -0.000
 -18904712.911 9 -13083935.49148  21985873.161    21985872.5674   21985880.7284
        -0.000          -0.000
    363429.77517     39918.29352         0.000           0.0005          0.0005
        -0.000          -0.000
   -365838.988 8   -277675.88354  23976576.102    23976576.2414          0.0005
        -0.000          -0.000
  -8337896.401 9  -5861098.34246  23989326.371    23989325.6454   23989335.7574
        -0.000          -0.000
 -10265489.704 9  -7739827.32046  23971712.740    23971711.9704   23971723.3324
        -0.000          -0.000
 99  5  6  2 25 30.0020000  0  9  3 17 29 23 21  9  8 31  1          0.002988663
 -14100306.535 9 -10743557.47348  22410632.640    22410632.3124   22410641.1724
        -0.000          -0.000
  -9809915.757 9  -6812183.35447  22988054.347    22988053.6524   22988062.9914
        -0.000          -0.000
 -19612080.003 9 -14807161.56448  21721773.232    21721773.0294   21721780.9994
        -0.000          -0.000
 -10399017.911 9  -7628831.45448  22890196.573    22890195.9074   22890204.2574
        -0.000          -0.000
 -18904665.294 9 -13083898.35248  21985882.285    21985881.6814   21985889.7224
        -0.000          -0.000
    383373.06817      9512.76152         0.000           0.0005          0.0005
        -0.000          -0.000
   -414940.845 8   -315936.95954  23967231.689    23967231.8624          0.0005
        -0.000          -0.000
  -8378609.573 9  -5892822.87446  23981578.974    23981578.1994   23981588.2624
        -0.000          -0.000
 -10353287.976 9  -7808241.33346  23955005.136    23955004.5554   23955015.6324
        -0.000          -0.000
 99  5  6  2 26  0.0020000  0  9  3 17 29 23 21  9  8 31  1          0.002995233
 -14078791.962 9 -10726792.87348  22414726.666    22414726.3384   22414735.3824
        -0.000          -0.000
  -9732100.104 9  -6751547.83247  23002862.133    23002861.4404   23002870.7364
        -0.000          -0.000
 -19655404.499 9 -14840920.85348  21713528.923    21713528.7274   21713536.7394
        -0.000          -0.000
 -10343458.259 9  -7585538.20748  22900769.214    22900768.5484   22900776.8894
        -0.000          -0.000
 -18904465.455 9 -13083742.59748  21985920.314    21985919.6554   21985927.7594
        -0.000          -0.000
    403819.92716     25358.27452         0.000           0.0005          0.0005
        -0.000          -0.000
   -463712.110 8   -353940.31954  23957951.040    23957950.6864   23957959.5685
        -0.000          -0.000
  -8418811.252 9  -5924148.84646  23973928.957    23973928.1254   23973938.0834
        -0.000          -0.000
 -10440826.294 9  -7876452.78546  23938347.172    23938346.3584   23938357.6484
        -0.000          -0.000
 99  5  6  2 26 30.0020000  0  9  3 17 29 23 21  9  8 31  1          0.003001801
 -14056702.531 9 -10709580.33448  22418930.156    22418929.8774   22418938.9054
        -0.000          -0.000
  -9653955.127 9  -6690655.65047  23017732.668    23017731.9364   23017741.1804
        -0.000          -0.000
 -19698270.056 9 -14874322.52748  21705371.900    21705371.6944   21705379.7644
        -0.000          -0.000
 -10287889.530 9  -7542237.90548  22911343.747    22911343.0874   22911351.4344
        -0.000          -0.000
 -18904135.258 9 -13083485.27348  21985983.032    21985982.3914   21985990.5754
        -0.000          -0.000
    424773.51917     41572.16252         0.000           0.0005          0.0005
        -0.000          -0.000
   -512139.736 8   -391676.10645  23948735.662    23948735.2254   23948744.6794
        -0.000          -0.000
  -8458503.928 9  -5955078.17146  23966375.586    23966374.7744   23966384.8754
        -0.000          -0.000
 -10528133.609 9  -7944484.23446  23921732.855    23921732.1994   23921743.7004
        -0.000          -0.000
 99  5  6  2 27  0.0030000  0  9  3 17 29 23 21  9  8 31  1          0.003008372
 -14034038.163 9 -10691919.79648  22423243.311    22423242.9924   22423251.8114
        -0.000          -0.000
  -9575471.967 9  -6629499.96547  23032667.460    23032666.7774   23032676.0754
        -0.000          -0.000
 -19740670.554 9 -14907361.81048  21697303.281    21697303.0904   21697311.1634
        -0.000          -0.000
 -10232294.239 9  -7498916.88548  22921923.472    22921922.7234   22921931.0354
        -0.000          -0.000
 -18903678.510 9 -13083129.32348  21986070.005    21986069.3314   21986077.4804
        -0.000          -0.000
    446247.03917      8842.98452         0.000           0.0005          0.0005
        -0.000          -0.000
   -560210.939 8   -429134.05445  23939588.519    23939588.0674   23939597.2064
        -0.000          -0.000
  -8497687.495 9  -5985610.78646  23958919.163    23958918.3464   23958928.5744
        -0.000          -0.000
 -10615211.076 9  -8012336.57147  23905162.423    23905161.8814   23905173.4304
        -0.000          -0.000
 99  5  6  2 27 30.0030000  0  8  3 17 29 23 21  8 31  1             0.003014945
 -14010819.741 9 -10673827.51548  22427661.783    22427661.4334   22427670.0584
        -0.000          -0.000
  -9496674.061 9  -6568099.01047  23047662.211    23047661.5164   23047670.8154
        -0.000          -0.000
 -19782626.257 9 -14940054.49548  21689319.338    21689319.2174   21689327.1694
        -0.000          -0.000
 -10176670.256 9  -7455573.51548  22932508.445    22932507.7054   22932516.0154
        -0.000          -0.000
 -18903131.745 9 -13082703.23748  21986173.978    21986173.2894   21986181.5554
        -0.000          -0.000
   -607934.125 8   -466320.78545  23930507.580    23930506.8954   23930515.7444
        -0.000          -0.000
  -8536374.078 9  -6015756.14046  23951557.054    23951556.4034   23951566.8114
        -0.000          -0.000
 -10702058.131 9  -8080009.37347  23888636.026    23888635.3034   23888646.8704
        -0.000          -0.000
 99  5  6  2 28  0.0030000  0  8  3 17 29 23 21  8 31  1             0.003021543
 -13987022.006 9 -10655283.81948  22432190.232    22432189.8784   22432198.6004
        -0.000          -0.000
  -9417545.003 9  -6506440.03047  23062719.866    23062719.1924   23062728.3664
        -0.000          -0.000
 -19824127.297 9 -14972392.90548  21681422.006    21681421.8344   21681429.6944
        -0.000          -0.000
 -10120989.582 9  -7412185.97448  22943104.086    22943103.3704   22943111.6884
        -0.000          -0.000
 -18902464.340 9 -13082183.14148  21986300.815    21986300.1914   21986308.4864
        -0.000          -0.000
   -655307.020 8   -503234.56845  23921492.643    23921491.8164   23921500.6084
        -0.000          -0.000
  -8574546.432 9  -6045500.77046  23944292.822    23944292.3314   23944302.9144
        -0.000          -0.000
 -10788669.043 9  -8147498.16447  23872153.980    23872153.4024   23872165.2534
        -0.000          -0.000
 99  5  6  2 28 30.0030000  0  8  3 17 29 23 21  8 31  1             0.003028127
 -13962660.562 9 -10636300.90048  22436825.933    22436825.6194   22436834.5634
        -0.000          -0.000
  -9338092.872 9  -6444529.32047  23077839.006    23077838.3554   23077847.3614
        -0.000          -0.000
 -19865179.979 9 -15004381.94348  21673609.805    21673609.6634   21673617.4874
        -0.000          -0.000
 -10065257.563 9  -7368758.41248  22953709.645    22953708.8784   22953717.0034
        -0.000          -0.000
 -18901677.722 9 -13081570.16048  21986450.314    21986449.7484   21986458.1324
        -0.000          -0.000
   -702347.535 8   -539889.42445  23912540.936    23912539.8744   23912548.9744
        -0.000          -0.000
  -8612226.854 9  -6074862.08246  23937122.586    23937122.0854   23937132.6344
        -0.000          -0.000
 -10875057.282 9  -8214813.48047  23855714.483    23855714.1334   23855725.8724
        -0.000          -0.000
 99  5  6  2 29  0.0030000  0  8  3 17 29 23 21  8 31  1             0.003034722
 -13937700.413 9 -10616851.45848  22441575.591    22441575.3114   22441584.3374
        -0.000          -0.000
  -9258267.598 9  -6382327.84547  23093029.419    23093028.7184   23093037.5864
        -0.000          -0.000
 -19905754.258 9 -15035998.20248  21665888.613    21665888.5384   21665896.3514
        -0.000          -0.000
 -10009426.919 9  -7325254.00348  22964333.881    22964333.1534   22964341.1004
        -0.000          -0.000
 -18900725.747 9 -13080828.33648  21986631.363    21986630.8724   21986639.2404
        -0.000          -0.000
   -749031.341 8   -576266.26745  23903656.926    23903655.9644   23903665.4284
        -0.000          -0.000
  -8649373.602 9  -6103807.53346  23930053.910    23930053.3684   23930063.8194
        -0.000          -0.000
 -10961169.111 9  -8281913.39347  23839328.020    23839327.6374   23839339.0764
        -0.000          -0.000
 99  5  6  2 29 30.0030000  0  8  3 17 29 23 21  8 31  1             0.003041297
 -13912181.893 9 -10596966.92548  22446431.565    22446431.2594   22446440.3054
        -0.000          -0.000
  -9178102.198 9  -6319861.31247  23108284.624    23108283.7884   23108292.7154
        -0.000          -0.000
 -19945882.249 9 -15067266.70048  21658252.463    21658252.3344   21658260.1454
        -0.000          -0.000
  -9953562.978 9  -7281723.65648  22974964.454    22974963.7144   22974971.6744
        -0.000          -0.000
 -18899628.584 9 -13079973.36148  21986840.301    21986839.7474   21986847.9204
        -0.000          -0.000
   -795395.564 8   -612394.02545  23894834.116    23894833.1514   23894842.4374
        -0.000          -0.000
  -8686018.026 9  -6132361.57646  23923080.942    23923080.2464   23923090.5034
        -0.000          -0.000
 -11047046.933 9  -8348830.94647  23822986.368    23822985.5314   23822996.8864
        -0.000          -0.000
 99  5  6  2 30  0.0030000  0  8  3 17 29 23 21  8 31  1             0.003047842
 -13886099.886 9 -10576643.30748  22451394.738    22451394.4334   22451403.4754
        -0.000          -0.000
  -9097595.179 9  -6257128.59747  23123604.649    23123603.8824   23123612.9894
        -0.000          -0.000
 -19985557.776 9 -15098182.63648  21650702.574    21650702.4304   21650710.0904
        -0.000          -0.000
  -9897678.543 9  -7238177.33548  22985598.821    22985598.0224   22985606.0764
        -0.000          -0.000
 -18898365.032 9 -13078988.73948  21987080.805    21987080.2314   21987088.3184
        -0.000          -0.000
   -841424.273 8   -648260.46945  23886075.057    23886074.1464   23886083.7364
        -0.000          -0.000
  -8722160.084 9  -6160524.13946  23916202.973    23916202.4194   23916212.8344
        -0.000          -0.000
 -11132697.050 9  -8415571.11347  23806687.507    23806686.6844   23806698.0124
        -0.000          -0.000
 99  5  6  2 30 30.0030000  0  8  3 17 29 23 21  8 31  1             0.003054359
 -13859468.154 9 -10555891.33248  22456462.788    22456462.3644   22456471.2124
        -0.000          -0.000
  -9016757.221 9  -6194138.01247  23138987.392    23138986.6344   23138995.9614
        -0.000          -0.000
 -20024770.424 9 -15128737.87448  21643240.760    21643240.4874   21643248.1334
        -0.000          -0.000
  -9841758.785 9  -7194603.48348  22996239.789    22996239.0654   22996247.1884
        -0.000          -0.000
 -18896955.884 9 -13077890.67148  21987348.975    21987348.3754   21987356.4304
        -0.000          -0.000
   -887103.698 8   -683854.82345  23877382.314    23877381.4434   23877391.0584
        -0.000          -0.000
  -8757806.803 9  -6188300.71846  23909419.182    23909418.8044   23909429.4704
        -0.000          -0.000
 -11218118.964 9  -8482133.44447  23790431.881    23790431.2184   23790442.5194
        -0.000          -0.000
 99  5  6  2 31  0.0030000  0  8  3 17 29 23 21  8 31  1             0.003060871
 -13832266.225 9 -10534695.04348  22461639.315    22461638.8714   22461647.4364
        -0.000          -0.000
  -8935573.178 9  -6130877.74447  23154435.808    23154435.2184   23154444.8424
        -0.000          -0.000
 -20063483.253 9 -15158903.64948  21635873.820    21635873.5574   21635881.2684
        -0.000          -0.000
  -9785756.236 9  -7150965.12047  23006896.629    23006895.8784   23006904.0914
        -0.000          -0.000
 -18895373.602 9 -13076657.70048  21987650.045    21987649.4774   21987657.4644
        -0.000          -0.000
   -932406.911 8   -719155.81445  23868761.146    23868760.4314   23868769.1984
        -0.000          -0.000
  -8792914.007 9  -6215656.90646  23902738.682    23902738.1884   23902748.7704
        -0.000          -0.000
 -11303286.992 9  -8548497.96647  23774224.965    23774224.2974   23774235.1144
        -0.000          -0.000
 99  5  6  2 31 30.0030000  0  8  3 17 29 23 21  8 31  1             0.003067370
 -13804510.522 9 -10513067.23348  22466921.139    22466920.6544   22466929.0774
        -0.000          -0.000
  -8854073.289 9  -6067371.37947  23169944.780    23169944.1714   23169953.9044
        -0.000          -0.000
 -20101718.280 9 -15188697.11448  21628597.803    21628597.5444   21628605.2644
        -0.000          -0.000
  -9729674.531 9  -7107265.09947  23017568.370    23017567.7004   23017575.9994
        -0.000          -0.000
 -18893640.101 9 -13075306.89348  21987979.854    21987979.3584   21987987.3364
        -0.000          -0.000
   -977330.612 8   -754161.18145  23860212.108    23860211.3804   23860221.1004
        -0.000          -0.000
  -8827498.562 9  -6242605.84246  23896157.727    23896157.1244   23896167.4074
        -0.000          -0.000
 -11388221.862 9  -8614680.78447  23758062.404    23758061.6464   23758072.0754
        -0.000          -0.000
 99  5  6  2 32  0.0030000  0  8  3 17 29 23 21  8 31  1             0.003073868
 -13776190.834 9 -10490999.95848  22472310.195    22472309.7444   22472318.2064
        -0.000          -0.000
  -8772256.185 9  -6003617.82047  23185514.317    23185513.6434   23185523.1934
        -0.000          -0.000
 -20139476.055 9 -15218118.68948  21621412.544    21621412.3184   21621420.0814
        -0.000          -0.000
  -9673487.285 9  -7063482.83248  23028260.360    23028259.7774   23028268.1164
        -0.000          -0.000
 -18891763.129 9 -13073844.28448  21988337.140    21988336.5914   21988344.5664
        -0.000          -0.000
  -1021859.935 8   -788859.34345  23851737.917    23851737.3364   23851747.6024
        -0.000          -0.000
  -8861557.329 9  -6269145.08646  23889676.835    23889676.2414   23889685.9734
        -0.000          -0.000
 -11472906.998 9  -8680669.01347  23741947.223    23741946.6224   23741956.7574
        -0.000          -0.000
 99  5  6  2 32 30.0030000  0  8  3 17 29 23 21  8 31  1             0.003080373
 -13747317.034 9 -10468500.89948  22477804.607    22477804.1704   22477812.8164
        -0.000          -0.000
  -8690120.758 9  -5939616.21847  23201144.287    23201143.6424   23201152.9894
        -0.000          -0.000
 -20176762.941 9 -15247173.33748  21614316.996    21614316.8004   21614324.5984
        -0.000          -0.000
  -9617199.908 9  -7019622.52748  23038971.578    23038970.9624   23038979.2424
        -0.000          -0.000
 -18889751.898 9 -13072277.06848  21988719.857    21988719.2374   21988727.2944
        -0.000          -0.000
  -1066007.934 9   -823260.26745  23843336.935    23843336.2324   23843346.6884
        -0.000          -0.000
  -8895077.494 9  -6295264.60646  23883298.206    23883297.4884   23883307.2224
        -0.000          -0.000
 -11557337.087 9  -8746458.50547  23725880.681    23725879.9464   23725890.1914
        -0.000          -0.000
 99  5  6  2 33  0.0030000  0  8  3 17 29 23 21  8 31  1             0.003086891
 -13717886.048 9 -10445567.68248  22483404.876    22483404.6334   22483413.3784
        -0.000          -0.000
  -8607668.401 9  -5875367.69647  23216834.553    23216833.8804   23216843.2534
        -0.000          -0.000
 -20213611.538 9 -15275886.46948  21607304.976    21607304.7044   21607312.4484
        -0.000          -0.000
  -9560845.133 9  -6975709.70448  23049695.456    23049694.8494   23049703.1734
        -0.000          -0.000
 -18887608.701 9 -13070607.01548  21989127.659    21989127.0744   21989135.0674
        -0.000          -0.000
  -1109784.219 9   -857371.56945  23835006.524    23835005.8684   23835016.4064
        -0.000          -0.000
  -8928064.175 9  -6320968.43546  23877020.859    23877020.2334   23877030.0954
        -0.000          -0.000
 -11641508.277 9  -8812046.24947  23709863.074    23709862.2654   23709872.9924
        -0.000          -0.000
 99  5  6  2 33 30.0030000  0  8  3 17 29 23 21  8 31  1             0.003093442
 -13687870.302 9 -10422178.81048  22489116.703    22489116.4884   22489125.1804
        -0.000          -0.000
  -8524866.780 9  -5810846.94847  23232591.235    23232590.5624   23232599.8864
        -0.000          -0.000
 -20250014.650 9 -15304252.47948  21600377.609    21600377.4104   21600384.9534
        -0.000          -0.000
  -9504432.978 9  -6931752.15048  23060430.391    23060429.7874   23060438.0314
        -0.000          -0.000
 -18885320.128 9 -13068823.68148  21989563.192    21989562.5634   21989570.5294
        -0.000          -0.000
  -1153161.906 9   -891172.23145  23826752.258    23826751.4444   23826761.8974
        -0.000          -0.000
  -8960509.802 9  -6346250.66246  23870846.524    23870845.9874   23870856.0594
        -0.000          -0.000
 -11725385.547 9  -8877404.98447  23693900.944    23693900.6144   23693911.6044
        -0.000          -0.000
